[[{"header":{"parameterUnit":"m.s-1","parameterCategory":1,"la1":31.0,"la2":29.5877,"lo1":-88.7671,"lo2":-86.6584,"dy":0.0162,"dx":0.0185,"nx":115,"ny":88,"refTime":"2024-09-12T06:00:00:Z","depth":0,"parameterNumber":2,"parameterNumberName":"U-component_of_WINDS"},"data":[0.0,0.0,0.0,0.0,0.0,0.0,0.0,0.0,0.0,0.0,0.0,0.0,0.0,0.0,0.0,0.0,0.0,0.0,0.0,0.0,0.0,0.0,0.0,0.0,0.0,0.0,0.0,0.0,0.0,0.0,0.0,0.0,0.0,0.0,0.0,0.0,0.0,0.0,0.0,0.0,0.0,0.0,0.0,0.0,0.0,0.0,0.0,0.0,0.0,0.0,0.0,0.0,0.0,0.0,0.0,0.0,0.0,0.0,0.0,0.0,0.0,0.0,0.0,0.0,0.0,0.0,0.0,0.0,0.0,0.0,0.0,0.0,0.0,0.0,0.0,0.0,0.0,0.0,0.0,0.0,0.0,0.0,0.0,0.0,0.0,0.0,0.0,0.0,0.0,0.0,0.0,0.0,0.0,0.0,0.0,0.0,0.0,0.0,0.0,0.0,0.0,0.0,0.0,0.0,0.0,0.0,0.0,0.0,0.0,0.0,0.0,0.0,0.0,0.0,0.0,0.0,0.0,0.0,0.0,0.0,0.0,0.0,0.0,0.0,0.0,0.0,0.0,0.0,0.0,0.0,0.0,0.0,0.0,0.0,0.0,0.0,0.0,0.0,0.0,0.0,0.0,0.0,0.0,0.0,0.0,0.0,0.0,0.0,0.0,0.0,0.0,0.0,0.0,0.0,0.0,0.0,0.0,0.0,0.0,0.0,0.0,0.0,0.0,0.0,0.0,0.0,0.0,0.0,0.0,0.0,0.0,0.0,0.0,0.0,0.0,0.0,0.0,0.0,0.0,0.0,0.0,0.0,0.0,0.0,0.0,0.0,0.0,0.0,0.0,0.0,0.0,0.0,0.0,0.0,0.0,0.0,0.0,0.0,0.0,0.0,0.0,0.0,0.0,0.0,0.0,0.0,0.0,0.0,0.0,0.0,0.0,0.0,0.0,0.0,0.0,0.0,0.0,0.0,0.0,0.0,0.0,0.0,0.0,0.0,0.0,0.0,0.0,0.0,0.0,0.0,0.0,0.0,0.0,0.0,0.0,0.0,0.0,0.0,0.0,0.0,0.0,0.0,0.0,0.0,0.0,0.0,0.0,0.0,0.0,0.0,0.0,0.0,0.0,0.0,0.0,0.0,0.0,0.0,0.0,0.0,0.0,0.0,0.0,0.0,0.0,0.0,0.0,0.0,0.0,0.0,0.0,0.0,0.0,0.0,0.0,0.0,0.0,0.0,0.0,0.0,0.0,0.0,0.0,0.0,0.0,0.0,0.0,0.0,0.0,0.0,0.0,0.0,0.0,0.0,0.0,0.0,0.0,0.0,0.0,0.0,0.0,0.0,0.0,0.0,0.0,0.0,0.0,0.0,0.0,0.0,0.0,0.0,0.0,0.0,0.0,0.0,0.0,0.0,0.0,0.0,0.0,0.0,0.0,0.0,0.0,0.0,0.0,0.0,0.0,0.0,0.0,0.0,0.0,0.0,0.0,0.0,0.0,0.0,0.0,0.0,0.0,0.0,0.0,0.0,0.0,0.0,0.0,0.0,0.0,0.0,0.0,0.0,0.0,0.0,0.0,0.0,0.0,0.0,0.0,0.0,0.0,0.0,0.0,0.0,0.0,0.0,0.0,0.0,0.0,0.0,0.0,0.0,0.0,0.0,0.0,0.0,0.0,0.0,0.0,0.0,0.0,0.0,0.0,0.0,0.0,0.0,0.0,0.0,0.0,0.0,0.0,0.0,0.0,0.0,0.0,0.0,0.0,0.0,0.0,0.0,0.0,0.0,0.0,0.0,0.0,0.0,0.0,0.0,0.0,0.0,0.0,0.0,0.0,0.0,0.0,0.0,0.0,0.0,0.0,0.0,0.0,0.0,0.0,0.0,0.0,0.0,0.0,0.0,0.0,0.0,0.0,0.0,0.0,0.0,0.0,0.0,0.0,0.0,0.0,0.0,0.0,0.0,0.0,0.0,0.0,0.0,0.0,0.0,0.0,0.0,0.0,0.0,0.0,0.0,0.0,0.0,0.0,0.0,0.0,0.0,0.0,0.0,0.0,0.0,0.0,0.0,0.0,0.0,0.0,0.0,0.0,0.0,0.0,0.0,0.0,0.0,0.0,0.0,0.0,0.0,0.0,0.0,0.0,0.0,0.0,0.0,0.0,0.0,0.0,0.0,0.0,0.0,0.0,0.0,0.0,0.0,0.0,0.0,0.0,0.0,0.0,0.0,0.0,0.0,0.0,0.0,0.0,0.0,0.0,0.0,0.0,0.0,0.0,0.0,0.0,0.0,0.0,0.0,0.0,0.0,0.0,0.0,0.0,0.0,0.0,0.0,0.0,0.0,0.0,0.0,0.0,0.0,0.0,0.0,0.0,0.0,0.0,0.0,0.0,0.0,0.0,0.0,0.0,0.0,0.0,0.0,0.0,0.0,0.0,0.0,0.0,0.0,0.0,0.0,0.0,0.0,0.0,0.0,0.0,0.0,0.0,0.0,0.0,0.0,0.0,0.0,0.0,0.0,0.0,0.0,0.0,0.0,0.0,0.0,0.0,0.0,0.0,0.0,0.0,0.0,0.0,0.0,0.0,0.0,0.0,0.0,0.0,0.0,0.0,0.0,0.0,0.0,0.0,0.0,0.0,0.0,0.0,0.0,0.0,0.0,0.0,0.0,0.0,0.0,0.0,0.0,0.0,0.0,0.0,0.0,0.0,0.0,0.0,0.0,0.0,0.0,0.0,0.0,0.0,0.0,0.0,0.0,0.0,0.0,0.0,0.0,0.0,0.0,0.0,0.0,0.0,0.0,0.0,0.0,0.0,0.0,0.0,0.0,0.0,0.0,0.0,0.0,0.0,0.0,0.0,0.0,0.0,0.0,0.0,0.0,0.0,0.0,0.0,0.0,0.0,0.0,0.0,0.0,0.0,0.0,0.0,0.0,0.0,0.0,0.0,0.0,0.0,0.0,0.0,0.0,0.0,0.0,0.0,0.0,0.0,0.0,0.0,0.0,0.0,0.0,0.0,0.0,0.0,0.0,0.0,0.0,0.0,0.0,0.0,0.0,0.0,0.0,0.0,0.0,0.0,0.0,0.0,0.0,0.0,0.0,0.0,0.0,0.0,0.0,0.0,0.0,0.0,0.0,0.0,0.0,0.0,0.0,0.0,0.0,0.0,0.0,0.0,0.0,0.0,0.0,0.0,0.0,0.0,0.0,0.0,0.0,0.0,0.0,0.0,0.0,0.0,0.0,0.0,0.0,0.0,0.0,0.0,0.0,0.0,0.0,0.0,0.0,0.0,0.0,0.0,0.0,0.0,0.0,0.0,0.0,0.0,0.0,0.0,0.0,0.0,0.0,0.0,0.0,0.0,0.0,0.0,0.0,0.0,0.0,0.0,0.0,0.0,0.0,0.0,0.0,0.0,0.0,0.0,0.0,0.0,0.0,0.0,0.0,0.0,0.0,0.0,0.0,0.0,0.0,0.0,0.0,0.0,0.0,0.0,0.0,0.0,0.0,0.0,0.0,0.0,0.0,0.0,0.0,0.0,0.0,0.0,0.0,0.0,0.0,0.0,0.0,0.0,0.0,0.0,0.0,0.0,0.0,0.0,0.0,0.0,0.0,0.0,0.0,0.0,0.0,0.0,0.0,0.0,0.0,0.0,0.0,0.0,0.0,0.0,0.0,0.0,0.0,0.0,0.0,0.0,0.0,0.0,0.0,0.0,0.0,0.0,0.0,0.0,0.0,0.0,0.0,0.0,0.0,0.0,0.0,0.0,0.0,0.0,0.0,0.0,0.0,0.0,0.0,0.0,0.0,0.0,0.0,0.0,0.0,0.0,0.0,0.0,0.0,0.0,0.0,0.0,0.0,0.0,0.0,0.0,0.0,0.0,0.0,0.0,0.0,0.0,0.0,0.0,0.0,0.0,0.0,0.0,0.0,0.0,0.0,0.0,0.0,0.0,0.0,0.0,0.0,0.0,0.0,0.0,0.0,0.0,0.0,0.0,0.0,0.0,0.0,0.0,0.0,0.0,0.0,0.0,0.0,0.0,0.0,0.0,0.0,0.0,0.0,0.0,0.0,0.0,0.0,0.0,0.0,0.0,0.0,0.0,0.0,0.0,0.0,0.0,0.0,0.0,0.0,0.0,0.0,0.0,0.0,0.0,0.0,0.0,0.0,0.0,0.0,0.0,0.0,0.0,0.0,0.0,0.0,0.0,0.0,0.0,0.0,0.0,0.0,0.0,0.0,0.0,0.0,0.0,0.0,0.0,0.0,0.0,0.0,-0.3633,0.0,0.0,0.0,0.0,0.0,0.0,0.0,0.0,0.0,0.0,0.0,0.0,0.0,0.0,0.0,0.0,0.0,0.0,0.0,0.0,0.0,0.0,0.0,0.0,0.0,0.0,0.0,0.0,0.0,0.0,0.0,0.0,0.0,0.0,0.0,0.0,0.0,0.0,0.0,0.0,0.0,0.0,0.0,0.0,0.0,0.0,0.0,0.0,0.0,0.0,0.0,0.0,0.0,0.0,0.0,0.0,0.0,0.0,0.0,0.0,0.0,0.0,0.0,0.0,0.0,0.0,0.0,0.0,0.0,0.0,0.0,0.0,0.0,0.0,0.0,0.0,0.0,0.0,0.0,0.0,0.0,0.0,0.0,0.0,0.0,0.0,0.0,0.0,0.0,0.0,0.0,0.0,0.0,0.0,0.0,0.0,0.0,0.0,0.0,0.0,0.0,0.0,0.0,0.0,0.0,0.0,0.0,0.0,0.0,0.0,-0.3556,-0.3855,-0.3584,-0.3313,-0.3093,0.0,0.0,0.0,0.0,0.0,0.0,0.0,0.0,0.0,0.0,0.0,0.0,0.0,0.0,0.0,0.0,0.0,0.0,0.0,0.0,0.0,0.0,0.0,0.0,0.0,0.0,0.0,0.0,0.0,0.0,0.0,0.0,0.0,0.0,0.0,0.0,0.0,0.0,0.0,0.0,0.0,0.0,0.0,0.0,0.0,0.0,0.0,0.0,0.0,0.0,0.0,0.0,0.0,0.0,0.0,0.0,0.0,0.0,0.0,0.0,0.0,0.0,0.0,0.0,0.0,0.0,0.0,0.0,0.0,0.0,0.0,0.0,0.0,0.0,0.0,0.0,0.0,0.0,0.0,0.0,0.0,0.0,0.0,0.0,0.0,0.0,0.0,0.0,0.0,0.0,0.0,0.0,0.0,0.0,0.0,0.0,0.0,0.0,0.0,0.0,0.0,0.0,0.0,0.0,0.0,0.0,0.0,0.0,0.0,0.0,0.0,0.0,-0.2923,-0.272,-0.2667,0.0,0.0,0.0,0.0,0.0,0.0,0.0,0.0,0.0,0.0,0.0,0.0,0.0,0.0,0.0,0.0,0.0,0.0,0.0,0.0,0.0,0.0,0.0,0.0,0.0,0.0,0.0,0.0,0.0,0.0,0.0,0.0,0.0,0.0,0.0,0.0,0.0,0.0,0.0,0.0,0.0,0.0,0.0,0.0,0.0,0.0,0.0,0.0,0.0,0.0,0.0,0.0,0.0,0.0,0.0,0.0,0.0,0.0,0.0,0.0,0.0,0.0,0.0,0.0,0.0,0.0,0.0,0.0,0.0,0.0,0.0,0.0,0.0,0.0,0.0,0.0,0.0,0.0,0.0,0.0,0.0,0.0,0.0,0.0,0.0,0.0,0.0,0.0,0.0,0.0,0.0,0.0,0.0,0.0,0.0,0.0,0.0,0.0,0.0,0.0,0.0,0.0,0.0,0.0,0.0,0.0,0.0,0.0,0.0,0.0,-0.2646,-0.251,-0.2745,0.0,-0.2504,0.0,0.0,0.0,0.0,0.0,0.0,0.0,0.0,0.0,0.0,0.0,0.0,0.0,0.0,0.0,0.0,0.0,0.0,0.0,0.0,0.0,0.0,0.0,0.0,0.0,0.0,0.0,0.0,0.0,0.0,0.0,0.0,0.0,0.0,0.0,0.0,0.0,0.0,0.0,0.0,0.0,0.0,0.0,0.0,0.0,0.0,0.0,0.0,0.0,0.0,0.0,0.0,0.0,0.0,0.0,0.0,0.0,0.0,0.0,0.0,0.0,0.0,0.0,0.0,0.0,0.0,0.0,0.0,0.0,0.0,0.0,0.0,0.0,0.0,0.0,0.0,0.0,0.0,0.0,0.0,0.0,0.0,0.0,0.0,0.0,0.0,0.0,0.0,0.0,0.0,0.0,0.0,0.0,0.0,0.0,0.0,0.0,0.0,0.0,0.0,0.0,0.0,0.0,0.0,0.0,0.0,0.0,0.0,0.0,0.0,-0.2384,-0.2574,-0.2461,-0.2355,0.0,0.0,0.0,0.0,0.0,0.0,0.0,0.0,0.0,0.0,0.0,0.0,0.0,0.0,0.0,0.0,0.0,0.0,0.0,0.0,0.0,0.0,0.0,0.0,0.0,0.0,0.0,0.0,0.0,0.0,0.0,0.0,0.0,0.0,0.0,0.0,0.0,0.0,0.0,0.0,0.0,0.0,0.0,0.0,0.0,0.0,0.0,0.0,0.0,0.0,0.0,0.0,0.0,0.0,0.0,0.0,0.0,0.0,0.0,0.0,0.0,0.0,0.0,0.0,0.0,0.0,0.0,0.0,0.0,0.0,0.0,0.0,0.0,0.0,0.0,0.0,0.0,0.0,0.0,0.0,0.0,0.0,0.0,0.0,0.0,0.0,0.0,0.0,0.0,0.0,0.0,0.0,0.0,0.0,0.0,0.0,0.0,0.0,0.0,0.0,0.0,0.0,0.0,0.0,0.0,0.0,0.0,0.0,0.0,0.0,-0.2216,-0.2179,-0.2532,-0.2281,-0.2103,-0.2022,0.0,0.0,0.0,0.0,0.0,0.0,0.0,0.0,0.0,0.0,0.0,0.0,0.0,0.0,0.0,0.0,0.0,0.0,0.0,0.0,0.0,0.0,0.0,0.0,0.0,0.0,0.0,0.0,0.0,0.0,0.0,0.0,0.0,0.0,0.0,0.0,0.0,0.0,0.0,0.0,0.0,0.0,0.0,0.0,0.0,0.0,0.0,0.0,0.0,0.0,0.0,0.0,0.0,0.0,0.0,0.0,0.0,0.0,0.0,0.0,0.0,0.0,0.0,0.0,0.0,0.0,0.0,0.0,0.0,0.0,0.0,0.0,0.0,0.0,0.0,0.0,0.0,0.0,0.0,0.0,0.0,0.0,0.0,0.0,0.0,0.0,0.0,0.0,0.0,0.0,0.0,0.0,0.0,0.0,0.0,0.0,0.0,0.0,0.0,0.0,0.0,0.0,0.0,0.0,0.0,0.0,0.0,0.0,-0.2469,-0.2173,-0.2082,-0.2225,-0.2201,-0.2077,0.0,0.0,0.0,0.0,0.0,0.0,0.0,0.0,0.0,0.0,0.0,0.0,0.0,0.0,0.0,0.0,0.0,0.0,0.0,0.0,0.0,0.0,0.0,0.0,0.0,0.0,0.0,0.0,0.0,0.0,0.0,0.0,0.0,0.0,0.0,0.0,0.0,0.0,0.0,0.0,0.0,0.0,0.0,0.0,0.0,0.0,0.0,0.0,0.0,0.0,0.0,0.0,0.0,0.0,0.0,0.0,0.0,0.0,0.0,0.0,0.0,0.0,0.0,0.0,0.0,0.0,0.0,0.0,0.0,0.0,0.0,0.0,0.0,0.0,0.0,0.0,0.0,0.0,0.0,0.0,0.0,0.0,0.0,0.0,0.0,0.0,0.0,0.0,0.0,0.0,0.0,0.0,0.0,0.0,0.0,0.0,0.0,0.0,0.0,0.0,0.0,0.0,0.0,0.0,0.0,0.0,0.0,0.0,0.0,-0.2036,-0.2011,-0.2074,-0.2205,-0.211,-0.2165,0.0,0.0,0.0,0.0,0.0,0.0,0.0,0.0,0.0,0.0,0.0,0.0,0.0,0.0,0.0,0.0,0.0,0.0,0.0,0.0,0.0,0.0,0.0,0.0,0.0,0.0,0.0,0.0,0.0,0.0,0.0,0.0,0.0,0.0,0.0,0.0,0.0,0.0,0.0,0.0,0.0,0.0,0.0,0.0,0.0,0.0,0.0,0.0,0.0,0.0,0.0,0.0,0.0,0.0,0.0,0.0,0.0,0.0,0.0,0.0,0.0,0.0,0.0,0.0,0.0,0.0,0.0,0.0,0.0,0.0,0.0,0.0,0.0,0.0,0.0,0.0,0.0,0.0,0.0,0.0,0.0,0.0,0.0,0.0,0.0,0.0,0.0,0.0,0.0,0.0,0.0,0.0,0.0,0.0,0.0,0.0,0.0,0.0,0.0,0.0,0.0,0.0,0.0,0.0,0.0,0.0,0.0,0.0,0.0,-0.1903,0.0,-0.2176,0.0,-0.2164,-0.2174,0.0,0.0,0.0,0.0,0.0,0.0,0.0,0.0,0.0,0.0,0.0,0.0,0.0,0.0,0.0,0.0,0.0,0.0,0.0,0.0,0.0,0.0,0.0,0.0,0.0,0.0,0.0,0.0,0.0,0.0,0.0,0.0,0.0,0.0,0.0,0.0,0.0,0.0,0.0,0.0,0.0,0.0,0.0,0.0,0.0,0.0,0.0,0.0,0.0,0.0,0.0,0.0,0.0,0.0,0.0,0.0,0.0,0.0,0.0,0.0,0.0,0.0,0.0,0.0,0.0,0.0,0.0,0.0,0.0,0.0,0.0,0.0,0.0,0.0,0.0,0.0,0.0,0.0,0.0,0.0,0.0,0.0,0.0,0.0,0.0,0.0,0.0,0.0,0.0,0.0,0.0,0.0,0.0,0.0,0.0,0.0,0.0,0.0,0.0,0.0,0.0,0.0,0.0,0.0,0.0,0.0,0.0,0.0,-0.1882,-0.205,-0.21,-0.2292,-0.2661,-0.2336,-0.2054,0.0,0.0,0.0,0.0,0.0,0.0,0.0,0.0,0.0,0.0,0.0,0.0,0.0,0.0,0.0,0.0,0.0,0.0,0.0,0.0,0.0,0.0,0.0,0.0,0.0,0.0,0.0,0.0,0.0,0.0,0.0,0.0,0.0,0.0,0.0,0.0,0.0,0.0,0.0,0.0,0.0,0.0,0.0,0.0,0.0,0.0,0.0,0.0,0.0,0.0,0.0,0.0,0.0,0.0,0.0,0.0,0.0,0.0,0.0,0.0,0.0,0.0,0.0,0.0,0.0,0.0,0.0,0.0,0.0,0.0,0.0,0.0,0.0,0.0,0.0,0.0,0.0,0.0,0.0,0.0,0.0,0.0,0.0,0.0,0.0,0.0,0.0,0.0,0.0,0.0,0.0,0.0,0.0,0.0,0.0,0.0,0.0,0.0,0.0,0.0,0.0,0.0,0.0,0.0,0.0,0.0,0.0,0.0,0.0,-0.1275,-0.1282,-0.1548,-0.2054,-0.1973,-0.15,0.0,0.0,0.0,0.0,0.0,0.0,0.0,0.0,0.0,0.0,0.0,0.0,0.0,0.0,0.0,0.0,0.0,0.0,0.0,0.0,0.0,0.0,0.0,0.0,0.0,0.0,0.0,0.0,0.0,0.0,0.0,0.0,0.0,0.0,0.0,0.0,0.0,0.0,0.0,0.0,0.0,0.0,0.0,0.0,0.0,0.0,0.0,0.0,0.0,0.0,0.0,0.0,0.0,0.0,0.0,0.0,0.0,0.0,0.0,0.0,0.0,0.0,0.0,0.0,0.0,0.0,0.0,0.0,0.0,0.0,0.0,0.0,0.0,0.0,0.0,0.0,0.0,0.0,0.0,0.0,0.0,0.0,0.0,0.0,0.0,0.0,0.0,0.0,0.0,0.0,0.0,0.0,0.0,0.0,0.0,0.0,0.0,0.0,0.0,0.0,0.0,0.0,0.0,0.0,0.0,0.0,0.0,0.0,0.0,-0.1249,-0.0789,-0.0757,-0.1139,-0.1128,-0.0653,0.0257,0.0,0.0,0.0,0.0,0.0,0.0,0.0,0.0,0.0,0.0,0.0,0.0,0.0,0.0,0.0,0.0,0.0,0.0,0.0,0.0,0.0,0.0,0.0,0.0,0.0,0.0,0.0,0.0,0.0,0.0,0.0,0.0,0.0,0.0,0.0,0.0,0.0,0.0,0.0,0.0,0.0,0.0,0.0,0.0,0.0,0.0,0.0,0.0,0.0,0.0,0.0,0.0,0.0,0.0,0.0,0.0,0.0,0.0,0.0,0.0,0.0,0.0,0.0,0.0,0.0,0.0,0.0,0.0,0.0,0.0,0.0,0.0,0.0,0.0,0.0,0.0,0.0,0.0,0.0,0.0,0.0,0.0,0.0,0.0,0.0,0.0,0.0,0.0,0.0,0.0,0.0,0.0,0.0,0.0,0.0,0.0,0.0,0.0,0.0,0.0,0.0,0.0,0.0,0.0,0.0,0.0,0.0,0.0,-0.1698,-0.0559,-0.0,-0.0,-0.0,0.0281,0.0,0.0,0.0,0.0,0.0,0.0,0.0,0.0,0.0,0.0,0.0,0.0,0.0,0.0,0.0,0.0,0.0,0.0,0.0,0.0,0.0,0.0,0.0,0.0,0.0,0.0,0.0,0.0,0.0,0.0,0.0,0.0,0.0,0.0,0.0,0.0,0.0,0.0,0.0,0.0,0.0,0.0,0.0,0.0,0.0,0.0,0.0,0.0,0.0,0.0,0.0,0.0,0.0,0.0,0.0,0.0,0.0,0.0,0.0,0.0,0.0,0.0,0.0,0.0,0.0,0.0,0.0,0.0,0.0,0.0,0.0,0.0,0.0,0.0,0.0,0.0,0.0,0.0,0.0,0.0,0.0,0.0,0.0,0.0,0.0,0.0,0.0,0.0,0.0,0.0,0.0,0.0,0.0,0.0,0.0,0.0,0.0,0.0,0.0,0.0,0.0,0.0,0.0,0.0,0.0,0.0,0.0,0.0,0.0,-0.0456,-0.0144,-0.0,-0.0,-0.0,0.007,0.0,0.0,0.0,0.0,0.0,0.0,0.0,0.0,0.0,0.0,0.0,0.0,0.0,0.0,0.0,0.0,0.0,0.0,0.0,0.0,0.0,0.0,0.0,0.0,0.0,0.0,0.0,0.0,0.0,0.0,0.0,0.0,0.0,0.0,0.0,0.0,0.0,0.0,0.0,0.0,0.0,0.0,0.0,0.0,0.0,0.0,0.0,0.0,0.0,0.0,0.0,0.0,0.0,0.0,0.0,0.0,0.0,0.0,0.0,0.0,0.0,0.0,0.0,0.0,0.0,0.0,0.0,0.0,0.0,0.0,0.0,0.0,0.0,0.0,0.0,0.0,0.0,0.0,0.0,0.0,0.0,0.0,0.0,0.0,0.0,0.0,0.0,0.0,0.0,0.0,0.0,0.0,0.0,0.0,0.0,0.0,0.0,0.0,0.0,0.0,0.0,0.0,0.0,0.0,0.0,0.0,0.0,0.0,-0.0,-0.0,-0.0,-0.0,-0.0,-0.0,-0.0,0.0,0.0,0.0,0.0,0.0,0.0,0.0,0.0,0.0,0.0,0.0,0.0,0.0,0.0,0.0,0.0,0.0,0.0,0.0,0.0,0.0,0.0,0.0,0.0,0.0,0.0,0.0,0.0,0.0,0.0,0.0,0.0,0.0,0.0,0.0,0.0,0.0,0.0,0.0,0.0,0.0,0.0,0.0,0.0,0.0,0.0,0.0,0.0,0.0,0.0,0.0,0.0,0.0,0.0,0.0,0.0,0.0,0.0,0.0,0.0,0.0,0.0,0.0,0.0,0.0,0.0,0.0,0.0,0.0,0.0,0.0,0.0,0.0,0.0,0.0,0.0,0.0,0.0,0.0,0.0,0.0,0.0,0.0,0.0,0.0,0.0,0.0,0.0,0.0,0.0,0.0,0.0,0.0,0.0,0.0,0.0,0.0,0.0,0.0,0.0,0.0,0.0,0.0,0.0,0.0,0.0,0.0,0.0,-0.0,-0.0,-0.0,-0.0,-0.0,-0.0,0.0046,0.0,0.0,0.0,0.0,0.0,0.0,0.0,0.0,0.0,0.0,0.0,0.0,0.0,0.0,0.0,0.0,0.0,0.0,0.0,0.0,0.0,0.0,0.0,0.0,0.0,0.0,0.0,0.0,0.0,0.0,0.0,0.0,0.0,0.0,0.0,0.0,0.0,0.0,0.0,0.0,0.0,0.0,0.0,0.0,0.0,0.0,0.0,0.0,0.0,0.0,0.0,0.0,0.0,0.0,0.0,0.0,0.0,0.0,0.0,0.0,0.0,0.0,0.0,0.0,0.0,0.0,0.0,0.0,0.0,0.0,0.0,0.0,0.0,0.0,0.0,0.0,0.0,0.0,0.0,0.0,0.0,0.0,0.0,0.0,0.0,0.0,0.0,0.0,0.0,0.0,0.0,0.0,0.0,0.0,0.0,0.0,0.0,0.0,0.0,0.0,0.0,0.0,0.0,0.0,0.0,0.0,0.0,0.0,-0.0,-0.0,-0.0,-0.0,-0.0,-0.0,0.0474,0.0,0.0,0.0,0.0,0.0,0.0,0.0,0.0,0.0,0.0,0.0,0.0,0.0,0.0,0.0,0.0,0.0,0.0,0.0,0.0,0.0,0.0,0.0,0.0,0.0,0.0,0.0,0.0,0.0,0.0,0.0,0.0,0.0,0.0,0.0,0.0,0.0,0.0,0.0,0.0,0.0,0.0,0.0,0.0,0.0,0.0,0.0,0.0,0.8636,0.0,0.0,0.0,0.0,0.0,0.0,0.0,0.0,0.0,0.0,0.0,0.0,0.0,0.0,0.0,0.0,0.0,0.0,0.0,0.0,0.0,0.0,0.0,0.0,0.0,0.0,0.0,0.0,0.0,0.0,0.0,0.0,0.0,0.0,0.0,0.0,0.0,0.0,0.0,0.0,0.0,0.0,0.0,0.0,0.0,0.0,0.0,0.0,0.0,0.0,0.0,0.0,0.0,0.0,0.0,0.0,0.0,0.0,0.0,0.1239,0.1254,0.1274,0.0867,0.0065,0.0699,0.1263,0.0,0.0,0.0,0.0,0.0,0.0,0.0,0.0,0.0,0.0,0.0,0.0,0.0,0.0,0.0,0.0,0.0,0.0,0.0,0.0,0.0,0.0,0.0,0.0,0.0,0.0,0.0,0.0,0.0,0.0,0.0,0.0,0.0,0.0,0.0,0.0,0.0,0.0,0.0,0.0,0.0,0.0,0.0,0.0,0.0,0.0,0.0,0.0,0.0,0.0,0.0,0.0,0.0,0.0,0.0,0.0,0.0,0.0,0.0,0.0,0.0,0.0,0.0,0.0,0.0,0.0,0.0,0.0,0.0,0.0,0.0,0.0,0.0,0.0,0.0,0.0,0.0,0.0,0.0,0.0,0.0,0.0,0.0,0.0,0.0,0.0,0.0,0.0,0.0,0.0,0.0,0.0,0.0,0.0,0.0,0.0,0.0,0.0,0.0,0.0,0.0,0.0,0.0,0.0,0.0,0.0,0.0,0.3088,0.3128,0.3083,0.3132,0.2409,0.0867,0.1966,0.2359,0.2027,0.0,0.0,0.0,0.0,0.0,0.0,0.0,0.0,0.0,0.0,0.0,0.0,0.0,0.0,0.0,0.0,0.0,0.0,0.0,0.0,0.0,0.0,0.0,0.0,0.0,0.0,0.0,0.0,0.0,0.0,0.0,0.0,0.0,0.0,0.0,0.0,0.0,0.0,0.509,0.5764,0.0,0.0,0.0,0.0,0.0,0.0,0.0,0.0,0.9249,0.0,0.0,0.0,0.0,0.0,0.0,0.0,0.0,0.0,0.0,0.0,0.0,0.0,0.0,0.0,0.0,0.0,0.0,0.0,0.0,0.0,0.0,0.0,0.0,0.0,0.0,0.0,0.0,0.0,0.0,0.0,0.0,0.0,0.0,0.0,0.0,0.0,0.0,0.0,0.0,0.0,0.0,0.0,0.0,0.0,0.0,0.0,0.0,0.0,0.0,0.0,0.0,0.0,0.0,0.0,0.0,0.4172,0.4699,0.4934,0.4978,0.4966,0.4849,0.4495,0.4259,0.3743,0.2915,0.0,0.0,0.0,0.0,0.0,0.0,0.0,0.0,0.0,0.0,0.0,0.0,0.0,0.0,0.0,0.0,0.0,0.0,0.0,0.0,0.0,0.0,0.0,0.0,0.0,0.0,0.0,0.0,0.0,0.0,0.0,0.0,0.0,0.0,0.0,0.0,0.0,0.0,0.0,0.7647,0.8027,0.0,0.0,0.0,0.0,0.0,0.0,0.0,0.0,0.934,0.0,0.0,0.0,0.0,0.0,0.0,0.0,0.0,0.0,0.0,0.0,0.0,0.0,0.0,0.0,0.0,0.0,0.0,0.0,0.0,0.0,0.0,0.0,0.0,0.0,0.0,0.0,0.0,0.0,0.0,0.0,0.0,0.0,0.0,0.0,0.0,0.0,0.0,0.0,0.0,0.0,0.0,0.0,0.0,0.0,0.0,0.0,0.0,0.0,0.0,0.0,0.0,0.0,0.0,0.0,0.3998,0.4708,0.5186,0.5373,0.5408,0.5379,0.5369,0.473,0.3871,0.0,0.0,0.0,0.0,0.0,0.0,0.0,0.0,0.0,0.0,0.0,0.0,0.0,0.0,0.0,0.0,0.0,0.0,0.0,0.0,0.0,0.0,0.0,0.0,0.0,0.0,0.0,0.0,0.0,0.0,0.0,0.0,0.0,0.0,0.0,0.0,0.0,0.0,0.0,0.0,0.8283,0.8734,0.957,0.0,0.0,0.0,0.0,0.0,0.0,1.0694,1.0172,0.0,0.0,0.0,0.0,0.0,0.0,0.0,0.0,0.0,0.0,0.0,0.0,0.0,0.0,0.0,0.0,0.0,0.0,0.0,0.0,0.0,0.0,0.0,0.0,0.0,0.0,0.0,0.0,0.0,0.0,0.0,0.0,0.0,0.0,0.0,0.0,0.0,0.0,0.0,0.0,0.0,0.0,0.0,0.0,0.0,0.0,0.0,0.0,0.0,0.0,0.0,0.0,0.0,0.0,0.0,0.3581,0.4253,0.485,0.5397,0.5428,0.5428,0.5415,0.4663,0.3708,0.0,0.0,0.0,0.0,0.0,0.0,0.0,0.0,0.0,0.0,0.0,0.0,0.0,0.0,0.0,0.0,0.0,0.0,0.0,0.0,0.0,0.0,0.0,0.0,0.0,0.0,0.0,0.0,0.0,0.0,0.0,0.0,0.0,0.0,0.0,0.0,0.0,0.0,0.0,0.0,0.0,0.9518,1.0713,0.991,0.0,0.0,0.0,0.0,1.2358,1.1992,0.0,0.0,0.0,0.0,0.0,0.0,0.0,0.0,0.0,0.0,0.0,0.0,0.0,0.0,0.0,0.0,0.0,0.0,0.0,0.0,0.0,0.0,0.0,0.0,0.0,0.0,0.0,0.0,0.0,0.0,0.0,0.0,0.0,0.0,0.0,0.0,0.0,0.0,0.0,0.0,0.0,0.0,0.0,0.0,0.0,0.0,0.0,0.0,0.0,0.0,0.0,0.0,0.0,0.0,0.0,0.0,0.3609,0.4053,0.4643,0.5384,0.5428,0.5428,0.5418,0.4821,0.364,0.0,0.0,0.0,0.0,0.0,0.0,0.0,0.0,0.0,0.0,0.0,0.0,0.0,0.0,0.0,0.0,0.0,0.0,0.0,0.0,0.0,0.0,0.0,0.0,0.0,0.0,0.0,0.0,0.0,0.0,0.0,0.0,0.0,0.0,0.0,0.0,0.0,0.0,0.0,0.0,0.0,1.1123,1.0937,1.0732,1.0785,0.0,0.0,1.2628,1.3586,1.4193,0.0,0.0,0.0,0.0,0.0,0.0,0.0,0.0,0.0,0.0,0.0,0.0,0.0,0.0,0.0,0.0,0.0,0.0,0.0,0.0,0.0,0.0,0.0,0.0,0.0,0.0,0.0,0.0,0.0,0.0,0.0,0.0,0.0,0.0,0.0,0.0,0.0,0.0,0.0,0.0,0.0,0.0,0.0,0.0,0.0,0.0,0.0,0.0,0.0,0.0,0.0,0.0,0.0,0.0,0.0,0.308,0.3585,0.4273,0.4867,0.5404,0.5428,0.5387,0.5431,0.4625,0.3618,0.0,0.0,0.0,0.0,0.0,0.0,0.0,0.0,0.0,0.0,0.0,0.0,0.0,0.0,0.0,0.0,0.0,0.0,0.0,0.0,0.0,0.0,0.0,0.0,0.0,0.0,0.0,0.0,0.0,0.0,0.0,0.0,0.0,0.0,0.0,0.0,0.0,0.0,0.0,0.0,0.0,0.0,1.1943,1.1816,0.0,0.0,0.0,1.3817,1.4707,0.0,0.0,0.0,0.0,0.0,0.0,0.0,0.0,0.0,0.0,0.0,0.0,0.0,0.0,0.0,0.0,0.0,0.0,0.0,0.0,0.0,0.0,0.0,0.0,0.0,0.0,0.0,0.0,0.0,0.0,0.0,0.0,0.0,0.0,0.0,0.0,0.0,0.0,0.0,0.0,0.0,0.0,0.0,0.0,0.0,0.0,0.0,0.0,0.0,0.0,0.0,0.0,0.0,0.0,0.0,0.0,0.0,0.3633,0.4463,0.5064,0.5348,0.5428,0.5418,0.5389,0.4577,0.0,0.0,0.0,0.0,0.0,0.0,0.0,0.0,0.0,0.0,0.0,0.0,0.0,0.0,0.0,0.0,0.0,0.0,0.0,0.0,0.0,0.0,0.0,0.0,0.0,0.0,0.0,0.2466,0.0,0.0,0.0,0.0,0.0,0.0,0.0,0.0,0.0,0.0,0.0,0.0,0.0,0.0,1.1779,1.291,1.2842,1.3163,0.0,0.0,1.5094,1.6223,1.6913,1.6471,0.0,0.0,0.0,0.0,0.0,0.0,0.0,0.0,0.0,0.0,0.0,0.0,0.0,0.0,0.0,0.0,0.0,0.0,0.0,0.0,0.0,0.0,0.0,0.0,0.0,0.0,0.0,0.0,0.0,0.0,0.0,0.0,0.0,0.0,0.0,0.0,0.0,0.0,0.0,0.0,0.0,0.0,0.0,0.0,0.0,0.0,0.0,0.0,0.0,0.0,0.0,0.0,0.0,0.0,0.3273,0.3598,0.4463,0.5064,0.5415,0.5428,0.5422,0.5396,0.4939,0.402,0.0,0.0,0.0,0.0,0.0,0.0,0.0,0.0,0.0,0.0,0.0,0.0,0.0,0.0,0.0,0.0,0.0,0.0,0.0,0.0,0.0,0.0,0.0,0.0,0.0,0.0,0.0,0.0,0.0,0.0,0.0,0.0,0.0,0.0,0.0,0.0,0.0,0.0,0.0,0.0,0.0,1.2782,1.3396,1.3779,1.475,0.0,1.6674,1.6862,1.8414,1.9596,1.9231,1.5828,0.0,0.0,0.0,0.0,0.0,0.0,0.0,0.0,0.0,0.0,0.0,0.0,0.0,0.0,0.0,0.0,0.0,0.0,0.0,0.0,0.0,0.0,0.0,0.0,0.0,0.0,0.0,0.0,0.0,0.0,0.0,0.0,0.0,0.0,0.0,0.0,0.0,0.0,0.0,0.0,0.0,0.0,0.0,0.0,0.0,0.0,0.0,0.0,0.0,0.0,0.0,0.0,0.0,0.3273,0.3585,0.4463,0.5064,0.5411,0.5428,0.5418,0.5396,0.4966,0.4257,0.0,0.0,0.0,0.0,0.0,0.0,0.0,0.0,0.0,0.0,0.0,0.0,0.0,0.0,0.0,0.0,0.0,0.0,0.0,0.0,0.0,0.0,0.0,0.0,0.0,0.0,0.0,0.0,0.5003,0.5119,0.4966,0.0,0.0,0.0,0.0,0.0,0.0,0.0,0.0,0.0,0.0,1.3676,1.4932,1.5225,0.0,0.0,1.7291,1.7456,1.7585,1.8324,1.7897,1.5004,1.4111,0.0,0.0,0.0,0.0,0.0,0.0,0.0,0.0,0.0,0.0,0.0,0.0,0.0,0.0,0.0,0.0,0.0,0.0,0.0,0.0,0.0,0.0,0.0,0.0,0.0,0.0,0.0,0.0,0.0,0.0,0.0,0.0,0.0,0.0,0.0,0.0,0.0,0.0,0.0,0.0,0.0,0.0,0.0,0.0,0.0,0.0,0.0,0.0,0.0,0.0,0.0,0.0,0.3293,0.3643,0.4487,0.5064,0.5422,0.5428,0.5422,0.5392,0.4951,0.4484,0.0,0.0,0.0,0.0,0.0,0.0,0.0,0.0,0.0,0.0,0.0,0.0,0.0,0.0,0.0,0.0,0.0,0.0,0.0,0.0,0.0,0.0,0.0,0.0,0.0,0.0,0.0,0.0,0.5048,0.499,0.4795,0.0,0.0,0.0,0.0,0.0,0.0,0.0,0.0,0.0,0.0,1.3415,1.484,1.5188,1.5644,1.6453,1.6936,1.7134,1.6922,1.7439,1.7071,1.4983,0.0,0.0,0.0,0.0,0.0,0.0,0.0,0.0,0.0,0.0,0.0,0.0,0.0,0.0,0.0,0.0,0.0,0.0,0.0,0.0,0.0,0.0,0.0,0.0,0.0,0.0,0.0,-0.0,0.0,0.0,-0.0,0.0,0.0,0.0,0.0,0.0,0.0,0.0,0.0,0.0,0.0,0.0,0.0,0.0,0.0,0.0,0.0,0.0,0.0,0.0,0.0,0.0,0.0,0.3344,0.3785,0.4538,0.5064,0.5418,0.5428,0.5425,0.5399,0.5058,0.4747,0.4431,0.0,0.0,0.0,0.0,0.0,0.0,0.0,0.0,0.0,0.0,0.0,0.0,0.0,0.0,0.0,0.0,0.0,0.0,0.0,0.0,0.0,0.0,0.0,0.0,0.0,0.0,0.3712,0.3579,0.3946,0.0,0.0,0.0,0.0,0.0,0.0,0.0,0.0,0.0,0.8799,1.044,1.1846,1.2622,1.3269,1.4229,1.5543,1.5577,1.5845,1.7006,1.7622,1.7604,0.0,0.0,0.0,0.0,0.0,0.0,0.0,0.0,0.0,0.0,0.0,0.0,0.0,0.0,0.0,0.0,0.0,0.0,0.0,0.0,0.0,0.0,0.0,0.0,0.0,0.0,0.0,-0.22,-0.0888,0.0,0.0,0.0,0.0,0.0,0.0,0.0,0.0,0.0,0.0,0.0,-0.0,0.031,0.0,0.0,0.0,0.0,0.0,0.0,0.0,0.0,0.0,0.0,0.0,0.0,0.3144,0.3812,0.4579,0.5162,0.5422,0.5428,0.5404,0.5418,0.5138,0.4735,0.4196,0.0,0.0,0.0,0.0,0.0,0.0,0.0,0.0,0.0,0.0,0.0,0.0,0.0,0.0,0.0,0.0,0.0,0.0,0.0,0.0,0.0,0.0,0.0,0.0,0.0,0.4688,0.0,0.0,0.0,0.0,0.0,0.0,0.0,0.0,0.0,0.0,0.0,0.8616,0.9941,1.113,1.2217,1.2999,1.372,1.4478,0.0,0.0,0.0,0.0,0.0,0.0,0.0,0.0,0.0,0.0,0.0,0.0,0.0,0.0,1.8154,1.4035,1.3695,1.4201,1.47,0.0,0.0,0.0,0.0,0.0,0.0,0.0,0.0,0.0,0.0,0.0,0.0,0.0,0.0,-0.3854,-0.234,-0.1978,0.0,0.0,0.0,0.0,0.0,0.0,0.0,0.0,-0.0,-0.0,-0.0,-0.0,0.0605,0.1695,0.1466,0.1348,0.0,0.0,0.0,0.0,0.0,0.0,0.0,0.0,0.2846,0.2974,0.429,0.5162,0.5365,0.5372,0.5435,0.5428,0.5281,0.4917,0.4273,0.3775,0.3363,0.0,0.0,0.0,0.0,0.0,0.0,0.0,0.0,0.0,0.0,0.0,0.0,0.0,0.0,0.0,0.0,0.0,0.0,0.0,0.0,0.0,0.0,0.0,0.4597,0.0,0.0,0.0,0.0,0.0,0.0,0.0,0.0,0.0,0.6666,0.7947,0.9242,1.0357,1.1009,1.155,1.2047,0.0,0.0,0.0,0.0,0.0,0.0,0.0,1.4666,1.4476,1.5178,1.5846,1.6063,1.8007,1.9653,2.0035,0.0,0.0,1.6755,1.6315,1.6832,1.7329,1.8263,1.9136,1.952,2.0621,2.1554,0.0,0.0,0.0,0.0,-0.2873,0.0,0.0,0.0,-0.5314,-0.495,0.0,-0.3787,0.0,0.0,0.0,0.0,-0.0,-0.0,0.0,0.0,-0.0,-0.0,-0.0,-0.0,-0.0,-0.0,0.0878,0.1083,0.09,0.1469,0.0,0.0,0.0,0.0,0.0,0.0,0.2408,0.1424,0.3633,0.4941,0.5259,0.5259,0.5316,0.5372,0.5417,0.5188,0.4766,0.4273,0.3961,0.3785,0.28,0.0,0.0,0.0,0.0,0.0,0.0,0.0,0.0,0.0,0.0,0.0,0.0,0.0,0.0,0.0,0.0,0.0,0.0,0.0,0.0,0.4106,0.0,0.0,0.0,0.0,0.0,0.0,0.0,0.0,0.0,0.7862,0.7668,0.8303,0.9152,0.9993,0.0,0.0,0.0,0.0,1.2241,1.176,1.3048,1.4219,1.4233,1.5063,1.6046,1.6967,0.0,0.0,1.9408,1.9757,1.9936,1.9514,2.1518,2.2789,2.1626,2.0833,2.0482,2.0576,2.105,2.1442,2.1564,2.2643,2.3602,-0.5837,0.0,0.0,0.0,0.0,-0.4834,-0.5521,-0.6149,-0.6096,-0.5627,-0.4792,-0.4515,0.0,0.0,0.0,0.0,0.0,0.0,-0.4106,-0.429,-0.144,-0.0,-0.0,-0.0,-0.0,-0.0,0.0293,0.0357,0.0272,0.0449,0.0973,0.1779,0.0,0.0,0.0,0.0,0.1851,0.1447,0.2644,0.336,0.3453,0.3451,0.4104,0.5382,0.5424,0.536,0.5199,0.4738,0.4328,0.3968,0.3565,0.0,0.0,0.0,0.0,0.0,0.0,0.0,0.0,0.0,0.0,0.0,0.0,0.0,0.0,0.0,0.0,0.0,0.0,0.0,0.4349,0.611,0.6586,0.0,0.0,0.0,0.0,0.0,0.0,0.0,0.0,0.0,0.9312,0.9392,0.9599,0.0,0.0,0.9773,0.9693,1.1325,1.2697,1.3109,1.4212,0.0,1.6318,1.6197,1.6178,1.6755,1.7755,1.8865,2.0186,2.0715,2.1406,2.2472,2.3377,2.3888,2.3847,2.3385,2.316,2.3616,2.3904,2.4313,2.5213,2.6162,2.6819,-0.7415,-0.6528,-0.5192,-0.5026,-0.5547,-0.5946,-0.6354,-0.6832,-0.6707,-0.6297,-0.5728,-0.5379,-0.5188,-0.5071,-0.4556,0.0,0.0,0.0,-0.3455,-0.374,-0.1163,-0.0,-0.0,-0.0,-0.0,-0.0,-0.0,-0.0,-0.0,-0.0,0.0385,0.1065,0.0,0.1621,0.1654,0.1992,0.1705,0.083,0.1325,0.1666,0.1651,0.162,0.2479,0.4231,0.5019,0.5406,0.5399,0.5027,0.4687,0.43,0.4029,0.3571,0.0,0.0,0.0,0.0,0.0,0.0,0.0,0.0,0.0,0.0,0.0,0.3192,0.3089,0.0,0.0,0.0,0.4316,0.434,0.494,0.684,0.0,0.0,0.0,0.0,0.0,0.0,0.0,0.6433,0.7707,0.8991,0.9849,0.9932,1.0136,1.0876,1.0735,1.0548,1.0548,0.0,1.3075,1.3475,1.4483,1.5459,1.6251,1.6438,1.6807,1.7823,1.8555,1.9377,2.047,2.124,2.2049,2.3077,2.3661,2.4003,2.4249,2.4287,2.4524,2.4884,2.5135,2.5582,2.6307,2.7058,2.7728,-0.866,-0.9625,-0.7572,-0.6885,-0.7114,-0.7114,-0.7092,-0.7123,-0.7116,-0.6933,-0.6685,-0.6271,-0.6081,-0.5992,-0.5359,0.0,-0.6148,-0.2306,-0.0477,-0.0,-0.0,-0.0,-0.0,-0.0,-0.0,-0.0,-0.0,-0.0,-0.0,-0.0,-0.0,-0.0,-0.0,-0.0,-0.0,0.1631,0.1641,0.0068,-0.0,-0.0,-0.0,-0.0,0.0828,0.2421,0.4095,0.5104,0.5357,0.5195,0.4986,0.4755,0.4284,0.3975,0.3775,0.0,0.0,0.0,0.0,0.0,0.0,0.0,0.0,0.0,0.0,0.0,0.0,0.0,0.0,0.0,0.5256,0.0,0.6105,0.6571,0.0,0.0,0.0,0.5597,0.5798,0.6357,0.6821,0.7062,0.0,0.0,0.9799,1.0194,1.0821,1.2256,1.2131,1.1904,1.1904,1.2827,1.3469,1.3308,1.4174,1.4888,1.5289,1.6335,1.7725,1.9295,2.0303,2.0546,2.0653,2.1257,2.18,2.2081,2.2765,2.3419,2.3514,2.4244,2.4847,2.4649,2.5244,2.5661,2.5674,2.6215,2.718,-1.0005,-0.9444,-0.9772,-0.8835,-0.7135,-0.7082,-0.7141,-0.7149,-0.7121,-0.7028,-0.6858,-0.6637,-0.6542,-0.6536,-0.6384,-0.6361,-0.6513,-0.5808,-0.3416,-0.0,-0.0,-0.0,-0.0,-0.0,-0.0,-0.0,-0.0,-0.0,-0.0,-0.0,-0.0,-0.0,-0.0,-0.0,-0.0,0.0449,0.0406,-0.0,-0.0,-0.0,-0.0,-0.0,0.0209,0.0622,0.1082,0.2578,0.5236,0.5237,0.5086,0.5009,0.4598,0.4182,0.3805,0.3236,0.0,0.0,0.0,0.0,0.0,0.0,0.0,0.0,0.0,0.3677,0.2792,0.0,0.4196,0.0,0.546,0.5796,0.578,0.5637,0.0,0.0,0.6182,0.6293,0.5851,0.6867,0.747,0.7027,0.868,1.0098,1.0645,1.1763,1.2765,1.3567,1.2812,1.2198,1.2204,1.3255,1.403,1.4067,1.4867,1.5845,1.6267,1.7561,1.8647,1.9109,2.0022,2.0566,2.0576,2.0789,2.1155,2.18,2.2178,2.2627,2.3305,2.3745,2.3822,2.3953,2.5151,2.6034,2.5317,2.6314,2.7537,-0.9971,-0.8833,-0.9407,-0.8847,-0.75,-0.75,-0.7456,-0.7468,-0.738,-0.7302,-0.7224,-0.7139,-0.7102,-0.7099,-0.6919,-0.6841,-0.6864,-0.7058,-0.5714,-0.3126,-0.0983,-0.0,-0.0,-0.0,-0.0,-0.0,-0.0,-0.0,-0.0,-0.0,-0.0,-0.0,-0.0,-0.0,-0.0,-0.0,-0.0,-0.0,-0.0,-0.0,-0.0,-0.0,-0.0,-0.0,-0.0,0.0968,0.2911,0.3653,0.4256,0.4804,0.4523,0.4209,0.39,0.3402,0.2888,0.0,0.0,0.0,0.0,0.0,0.0,0.0,0.0,0.0,0.0,0.0,0.4236,0.4471,0.525,0.5645,0.5384,0.5315,0.5446,0.5949,0.6555,0.6763,0.6266,0.6932,0.7247,0.6895,0.8074,0.9218,0.9898,1.1182,1.2355,1.3165,1.3176,1.31,1.3185,1.3715,1.4129,1.4216,1.4735,1.5602,1.6765,1.7683,1.863,1.952,2.0245,2.0576,2.0576,2.0576,2.0779,2.1231,2.1364,2.1517,2.2113,2.2563,2.2702,2.2553,2.3806,2.4992,2.5004,2.5755,2.665,-0.941,-0.8035,-0.7984,-0.8042,-0.7949,-0.7848,-0.7799,-0.7894,-0.7612,-0.7526,-0.7543,-0.7584,-0.7597,-0.7597,-0.7308,-0.7143,-0.7122,-0.7139,-0.707,-0.6844,-0.2781,-0.0628,-0.0,-0.0,-0.0,-0.0,-0.0,-0.0,-0.0,-0.0,-0.0,-0.0,-0.0,-0.0,-0.0,-0.0,-0.0,-0.0,-0.0,-0.0,-0.0,-0.0,-0.0,-0.0,-0.0,-0.0,-0.0,0.1516,0.2832,0.3838,0.41,0.4141,0.3963,0.35,0.3222,0.0,0.2742,0.0,0.0,0.0,0.0,0.0,0.0,0.0,0.0,0.463,0.4233,0.4351,0.5043,0.5416,0.5269,0.55,0.5822,0.6285,0.6791,0.7003,0.6774,0.6721,0.6776,0.6776,0.7027,0.7547,0.8645,0.9814,1.1037,1.2295,1.3234,1.3815,1.4168,1.4088,1.4099,1.4088,1.4088,1.4837,1.6324,1.6919,1.7738,1.9599,2.0167,2.0489,2.0566,2.0576,2.0644,2.0644,2.0634,2.0644,2.0566,2.1308,2.1517,2.0944,2.2048,2.3379,2.4264,2.485,2.5557,-1.019,-0.8038,-0.8024,-0.7997,-0.7957,-0.7045,-0.6841,-0.7236,-0.7236,-0.7214,-0.7244,-0.7492,-0.7597,-0.7597,-0.7503,-0.7486,-0.746,-0.7176,-0.7111,-0.7083,-0.6162,-0.3728,-0.0,-0.0,-0.0,-0.0,-0.0,-0.0,-0.0,-0.0,-0.0,-0.0,-0.0,-0.0,-0.0,0.0,0.0,0.0,-0.0,-0.0,-0.0,-0.0,-0.0,-0.0,-0.0,0.0,-0.0,0.0338,0.0608,0.0904,0.2976,0.0,0.0,0.0,0.0,0.0,0.0,0.0,0.0,0.0,0.0,0.0,0.4372,0.4497,0.4656,0.4824,0.5036,0.5315,0.5684,0.604,0.6369,0.6451,0.6573,0.6766,0.6891,0.6926,0.7014,0.7017,0.7048,0.7048,0.7899,0.8578,0.8831,0.9904,1.111,1.2418,1.2907,1.3542,1.4661,1.4389,1.4108,1.4088,1.4122,1.4264,1.4657,1.5553,1.6519,1.7658,1.8718,1.952,2.0323,2.0566,2.0566,2.0566,2.0576,2.0576,2.0576,2.0789,2.0867,2.0644,2.0934,2.1451,2.2403,2.3879,2.5075,-1.0774,-0.9023,-0.9644,-0.9155,0.0,-0.7424,-0.733,-0.7505,-0.7259,-0.7233,-0.7594,-0.775,-0.7818,-0.7807,-0.7567,-0.7653,-0.777,-0.7619,-0.7552,-0.7555,-0.7215,-0.5192,-0.1723,-0.0546,-0.0,-0.0,-0.0,-0.0,-0.0,-0.0,-0.0,-0.0,-0.0,-0.0,-0.0,-0.0,-0.0,-0.0,-0.0,-0.0,-0.0,-0.0,-0.0,-0.0,-0.0,0.0,0.0,0.0,0.0,0.0,0.0,0.0,0.0,0.0,0.0,0.4273,0.3984,0.4402,0.5694,0.6002,0.5837,0.5288,0.5379,0.5338,0.5106,0.5521,0.5888,0.6017,0.6234,0.6485,0.6773,0.6729,0.6786,0.7007,0.6966,0.6987,0.7112,0.7139,0.7139,0.7139,0.7665,0.8017,0.8013,0.9056,1.0353,1.1695,1.2451,1.3264,1.4596,1.4716,1.4522,1.4509,1.4376,1.4552,1.5021,1.5384,1.6026,1.709,1.7738,1.8301,1.8859,1.9432,1.9844,1.9844,2.0245,2.0576,2.0576,2.0576,2.0576,2.0576,2.0576,2.0722,2.1298,2.285,2.442,-1.1413,-1.0147,-1.0847,-0.9972,-0.7974,-0.797,-0.8016,-0.7989,-0.7472,0.0,0.0,-0.8018,-0.8038,-0.7922,-0.7684,-0.7607,-0.7855,-0.7789,-0.7727,-0.7818,-0.749,-0.5971,-0.3516,-0.1109,-0.0,-0.0,-0.0,-0.0,-0.0,-0.0,-0.0,-0.0,-0.0,-0.0,-0.0,-0.0,-0.0,-0.0,-0.0,-0.0,-0.0,-0.0,-0.0,-0.0,-0.0,-0.0,-0.0,-0.0,-0.0,-0.0,-0.0,0.1197,0.3779,0.4376,0.4621,0.4546,0.4816,0.5362,0.6215,0.6286,0.6255,0.6057,0.6266,0.6191,0.5766,0.6244,0.6475,0.6549,0.6668,0.6803,0.6949,0.688,0.6924,0.7129,0.7139,0.7136,0.7139,0.7139,0.7139,0.7139,0.7139,0.7139,0.7139,0.7925,0.9134,1.0534,1.1473,1.2727,1.4052,1.4655,1.491,1.489,1.4716,1.4939,1.5562,1.5595,1.5997,1.6913,1.704,1.7115,1.7498,1.8112,1.8638,1.8718,1.9599,2.0157,2.0323,2.0411,2.0566,2.0576,2.0576,2.0576,2.0722,2.1973,2.3452,-1.2516,-1.0213,-0.9031,-0.8368,-0.7977,-0.798,-0.7957,-0.8,-0.764,-0.7563,-0.7678,-0.7929,-0.8038,-0.8038,-0.7895,-0.7661,-0.7236,-0.6798,-0.6828,-0.7232,-0.7647,-0.6339,-0.3589,-0.1116,-0.0,-0.0,-0.0,-0.0,-0.0,-0.0,-0.0,-0.0,-0.0,-0.0,-0.0,-0.0,-0.0,-0.0,-0.0,-0.0,-0.0,-0.0,-0.0,-0.0,-0.0,-0.0,-0.0,-0.0,-0.0,-0.0,-0.0,0.0196,-0.0,0.356,0.5043,0.4613,0.5026,0.5603,0.6273,0.6311,0.6259,0.6224,0.6409,0.644,0.6349,0.6474,0.6562,0.6834,0.6881,0.6953,0.7001,0.7105,0.7021,0.7048,0.7139,0.7139,0.7139,0.7139,0.7139,0.7139,0.7139,0.7139,0.7139,0.7316,0.7989,0.92,1.0164,1.0495,1.2128,1.3761,1.4874,1.4963,1.493,1.4986,1.5212,1.4906,1.5217,1.6503,1.6239,1.636,1.7271,1.7507,1.7604,1.7529,1.8531,1.9143,1.9311,2.001,2.043,2.0596,2.0625,2.0615,2.0703,2.1568,2.2285,-1.2648,-1.1314,-0.8976,-0.8001,-0.7951,-0.7975,-0.8038,-0.8028,-0.7899,-0.7841,-0.7851,-0.798,-0.8038,-0.8024,-0.7872,-0.7704,-0.7594,-0.6951,-0.7026,-0.7597,-0.791,-0.7347,-0.5701,-0.1912,-0.0,-0.0,-0.0,-0.0,-0.0,-0.0,-0.0,-0.0,-0.0,-0.0,-0.0,-0.0,-0.0,-0.0,-0.0,-0.0,-0.0,-0.0,-0.0,-0.0,-0.0,-0.0,-0.0,-0.0,-0.0,-0.0,-0.0,-0.0,-0.0,0.1593,0.3395,0.5304,0.5755,0.6046,0.6268,0.6335,0.6373,0.6373,0.6546,0.6641,0.6709,0.6733,0.6803,0.6929,0.6997,0.7068,0.7132,0.7139,0.7139,0.7139,0.7139,0.7139,0.7139,0.7139,0.7139,0.7139,0.7139,0.7139,0.7139,0.7139,0.7638,0.9041,0.9863,1.0702,1.1339,1.237,1.3441,1.4025,1.3556,1.3705,1.4819,1.425,1.4298,1.5499,1.5507,1.5561,1.6285,1.648,1.6923,1.6977,1.7696,1.8559,1.9021,1.9412,1.9967,2.0829,2.0928,2.0928,2.1007,2.1302,2.1814,-1.2977,-1.2462,-1.0048,-0.8619,-0.7988,-0.7948,-0.7989,-0.7985,-0.7955,-0.8038,-0.8038,-0.8038,-0.8038,-0.8014,-0.7797,-0.7798,-0.7956,-0.7547,-0.7567,-0.7977,-0.8006,-0.7987,-0.7508,-0.3038,-0.0578,-0.0,-0.0,-0.0,-0.0,-0.0,-0.0,-0.0,-0.0,-0.0,-0.0,-0.0,-0.0,-0.0,-0.0,-0.0,-0.0,-0.0,-0.0,-0.0,-0.0,-0.0,-0.0,-0.0,-0.0,-0.0,-0.0,-0.0,-0.0,-0.0,0.1459,0.446,0.4865,0.5352,0.6254,0.6424,0.6498,0.6532,0.6672,0.6694,0.6728,0.6367,0.6395,0.6843,0.7085,0.7143,0.7143,0.7139,0.7139,0.7139,0.7139,0.7139,0.7139,0.7139,0.7139,0.7139,0.7139,0.7139,0.7139,0.7139,0.7535,0.8629,0.9849,1.0476,1.0481,1.0486,1.1126,1.2075,1.1839,1.2293,1.4425,1.3863,1.3727,1.4889,1.512,1.5163,1.5356,1.5878,1.6154,1.6265,1.6985,1.7801,1.8794,1.9245,1.9767,2.0861,2.1279,2.1377,2.1377,2.1377,2.161,-1.4052,-1.298,-1.2149,-1.0377,-0.8122,-0.7991,-0.8034,-0.8018,-0.7999,-0.8038,-0.8038,-0.8038,-0.8038,-0.8035,-0.8004,-0.7984,-0.7984,-0.7967,-0.7957,-0.7984,-0.8001,-0.8021,-0.7832,-0.5031,-0.2341,-0.0,-0.0,-0.0,-0.0,-0.0,-0.0,-0.0,-0.0,-0.0,-0.0,-0.0,-0.0,-0.0,-0.0,-0.0,-0.0,-0.0,-0.0,-0.0,-0.0,-0.0,-0.0,-0.0,-0.0,-0.0,-0.0,-0.0,-0.0,-0.0,-0.0,-0.0,-0.0,0.2211,0.5743,0.6344,0.6335,0.6625,0.6602,0.6666,0.6615,0.5068,0.4851,0.6444,0.6986,0.7084,0.7146,0.7149,0.7074,0.7091,0.7153,0.7139,0.7139,0.7139,0.7139,0.7139,0.7139,0.7139,0.7139,0.7139,0.7146,0.7439,0.783,0.8027,0.8023,0.8023,0.8418,0.9655,1.0467,1.1951,1.3373,1.3561,1.372,1.5139,1.5304,1.5177,1.5335,1.5255,1.5149,1.5736,1.6006,1.699,1.7948,1.8901,1.9951,2.063,2.1192,2.1744,2.1826,2.1826,2.1885,-1.3662,-1.3011,-1.1151,-0.9674,-0.8601,-0.8563,-0.8347,-0.8054,-0.8103,-0.8126,-0.8045,-0.8038,-0.8038,-0.8038,-0.8038,-0.8038,-0.8038,-0.8038,-0.8038,-0.8038,-0.8038,-0.7952,-0.7862,-0.6913,-0.4155,-0.0,-0.0,-0.0,-0.0,-0.0,-0.0,-0.0,-0.0,-0.0,-0.0,-0.0,-0.0,-0.0,-0.0,-0.0,-0.0,-0.0,-0.0,-0.0,-0.0,-0.0,-0.0,-0.0,-0.0,-0.0,-0.0,-0.0,-0.0,-0.0,-0.0,-0.0,-0.0,0.0727,0.2477,0.3684,0.4409,0.4536,0.4755,0.5431,0.6757,0.6114,0.5621,0.5199,0.6303,0.7131,0.7031,0.7118,0.7141,0.7282,0.7171,0.7143,0.7234,0.7143,0.7139,0.7139,0.7139,0.7143,0.7139,0.7139,0.7139,0.7139,0.7139,0.7139,0.7139,0.7139,0.734,0.7923,0.8531,0.9858,1.1773,1.227,1.2923,1.4198,1.5158,1.5551,1.5565,1.5578,1.5478,1.5458,1.5762,1.6332,1.7178,1.7534,1.8288,1.9443,2.0725,2.1363,2.2078,2.2256,2.2148,-1.3264,-1.2832,-1.0131,-0.8879,-0.8872,-0.8941,-0.8703,-0.8284,-0.8347,-0.8245,-0.8109,-0.8102,-0.8079,-0.8041,-0.8038,-0.8038,-0.8038,-0.8038,-0.8038,-0.8038,-0.8038,-0.7949,-0.7965,-0.7982,-0.5603,-0.1574,-0.0,-0.0,-0.0,-0.0,-0.0,-0.0,-0.0,-0.0,-0.0,-0.0,-0.0,-0.0,-0.0,-0.0,-0.0,-0.0,-0.0,-0.0,-0.0,-0.0,-0.0,-0.0,-0.0,-0.0,-0.0,-0.0,-0.0,-0.0,-0.0,-0.0,-0.0,-0.0,-0.0,0.1374,0.2259,0.2274,0.2484,0.3314,0.4956,0.6286,0.5694,0.3138,0.4202,0.5167,0.6065,0.6149,0.6467,0.7114,0.7217,0.7258,0.7252,0.7204,0.7072,0.7078,0.7101,0.7098,0.7153,0.7139,0.7139,0.7139,0.7139,0.7139,0.7139,0.7139,0.7143,0.7139,0.7143,0.822,1.0381,1.1425,1.2102,1.3461,1.4829,1.5772,1.5825,1.5818,1.5818,1.5638,1.5571,1.5913,1.6921,1.7033,1.7323,1.8621,1.9707,2.0763,2.1785,2.1872,2.1872,-1.3264,-1.2832,-1.0135,-0.8933,-0.8913,-0.8879,-0.8918,-0.8762,-0.8533,-0.8391,-0.8262,-0.8248,-0.8177,-0.8041,-0.8038,-0.8038,-0.8038,-0.8038,-0.8038,-0.8038,-0.8038,-0.8038,-0.8045,-0.7972,-0.6448,-0.3397,-0.0,-0.0,-0.0,-0.0,-0.0,-0.0,-0.0,-0.0,-0.0,-0.0,-0.0,-0.0,-0.0,-0.0,-0.0,-0.0,-0.0,-0.0,-0.0,-0.0,-0.0,-0.0,-0.0,-0.0,-0.0,-0.0,-0.0,-0.0,-0.0,-0.0,-0.0,-0.0,-0.0,-0.0,-0.0,-0.0,-0.0,-0.0,-0.0,0.433,0.457,0.0649,-0.0,-0.0,0.3433,0.3703,0.4563,0.6314,0.7158,0.7191,0.7025,0.6793,0.7073,0.7008,0.7028,0.7108,0.7074,0.7139,0.7139,0.7139,0.7139,0.7139,0.7139,0.7139,0.7139,0.7139,0.7238,0.7638,0.9144,1.0697,1.2102,1.324,1.4403,1.5825,1.5825,1.5825,1.5825,1.5825,1.5772,1.6033,1.6776,1.7424,1.7926,1.8684,1.9026,1.9932,2.0953,2.0245,2.0318,-1.1324,-1.046,-0.9375,-0.8937,-0.8933,-0.8882,-0.8913,-0.8932,-0.8655,-0.8492,-0.8299,-0.8272,-0.8184,-0.8038,-0.8038,-0.8038,-0.8038,-0.8038,-0.8038,-0.8038,-0.8038,-0.8038,-0.8045,-0.7972,-0.6553,-0.3907,-0.0,-0.0,-0.0,-0.0,-0.0,-0.0,-0.0,-0.0,-0.0,-0.0,-0.0,-0.0,-0.0,-0.0,-0.0,-0.0,-0.0,-0.0,-0.0,-0.0,-0.0,-0.0,-0.0,-0.0,-0.0,-0.0,-0.0,-0.0,-0.0,-0.0,-0.0,-0.0,-0.0,-0.0,-0.0,-0.0,-0.0,-0.0,-0.0,0.1566,0.1783,-0.0,-0.0,-0.0,-0.0,0.1269,-0.0,0.2552,0.4085,0.5115,0.5104,0.4923,0.4822,0.5102,0.6059,0.7144,0.7115,0.7143,0.7139,0.7139,0.7139,0.7139,0.7139,0.7139,0.7139,0.7139,0.7143,0.7245,0.7638,1.0062,1.1881,1.2772,1.3812,1.5227,1.573,1.5825,1.5825,1.5825,1.5825,1.5893,1.6457,1.6572,1.7304,1.7956,1.8311,1.8848,1.9943,1.9306,1.9497,-1.0241,-0.9047,-0.8937,-0.8937,-0.8937,-0.8937,-0.8882,-0.89,-0.8781,-0.8645,-0.8438,-0.8364,-0.8255,-0.8123,-0.8065,-0.8038,-0.8038,-0.8038,-0.8038,-0.8038,-0.7949,-0.7952,-0.7955,-0.7985,-0.7074,-0.492,-0.1582,-0.0,-0.0,-0.0,-0.0,-0.0,-0.0,-0.0,-0.0,-0.0,-0.0,-0.0,-0.0,-0.0,-0.0,-0.0,-0.0,-0.0,-0.0,-0.0,-0.0,-0.0,-0.0,-0.0,-0.0,-0.0,-0.0,-0.0,-0.0,-0.0,-0.0,-0.0,-0.0,-0.0,-0.0,-0.0,-0.0,-0.0,-0.0,-0.0,-0.0,-0.0,-0.0,-0.0,-0.0,-0.0,-0.0,-0.0,0.1489,0.2471,0.2706,0.2577,0.2473,0.2864,0.5277,0.6777,0.7082,0.7141,0.7111,0.7153,0.7139,0.7139,0.7139,0.7139,0.7139,0.7139,0.7139,0.7143,0.7556,0.9289,1.1049,1.1929,1.338,1.4772,1.5724,1.5825,1.5825,1.5825,1.5825,1.5825,1.5825,1.5825,1.6292,1.7037,1.7124,1.7483,1.8118,1.8395,1.8488,-1.0241,-0.8937,-0.8937,-0.8937,-0.8937,-0.8937,-0.8937,-0.892,-0.8923,-0.8818,-0.8645,-0.854,-0.8404,-0.8265,-0.813,-0.8052,-0.7959,-0.7949,-0.8038,-0.8041,-0.7959,-0.7969,-0.7972,-0.7691,-0.7299,-0.6578,-0.2379,-0.0,-0.0,-0.0,-0.0,-0.0,-0.0,-0.0,-0.0,-0.0,-0.0,-0.0,-0.0,-0.0,-0.0,-0.0,-0.0,-0.0,-0.0,-0.0,-0.0,-0.0,-0.0,-0.0,-0.0,-0.0,-0.0,-0.0,-0.0,-0.0,-0.0,-0.0,-0.0,-0.0,-0.0,-0.0,-0.0,-0.0,-0.0,-0.0,-0.0,-0.0,-0.0,-0.0,-0.0,-0.0,-0.0,-0.0,-0.0,-0.0,-0.0,-0.0,-0.0,-0.0,0.3751,0.6626,0.6983,0.7005,0.7044,0.7121,0.7153,0.7139,0.7139,0.7139,0.7139,0.7139,0.7139,0.7139,0.7685,0.8438,0.9844,1.1201,1.2856,1.4352,1.538,1.5825,1.5825,1.5825,1.5825,1.5825,1.5825,1.5825,1.5825,1.6292,1.6197,1.6386,1.6842,1.7304,1.7217,-1.0241,-0.8937,-0.8937,-0.8937,-0.8937,-0.8937,-0.8937,-0.8937,-0.8937,-0.8852,-0.872,-0.8659,-0.8554,-0.8411,-0.8265,-0.8093,-0.7981,-0.7992,-0.8038,-0.8041,-0.7949,-0.7962,-0.7666,-0.6145,-0.4232,-0.2521,-0.0904,-0.0,-0.0,-0.0,-0.0,-0.0,-0.0,-0.0,-0.0,-0.0,-0.0,-0.0,-0.0,-0.0,-0.0,-0.0,-0.0,-0.0,-0.0,-0.0,-0.0,-0.0,-0.0,-0.0,-0.0,-0.0,-0.0,-0.0,-0.0,-0.0,-0.0,-0.0,-0.0,-0.0,-0.0,-0.0,-0.0,-0.0,-0.0,-0.0,-0.0,-0.0,-0.0,-0.0,-0.0,-0.0,-0.0,-0.0,-0.0,-0.0,-0.0,-0.0,-0.0,-0.0,0.1363,0.2787,0.4532,0.5699,0.6746,0.7131,0.7128,0.7153,0.7143,0.7139,0.7139,0.7139,0.7139,0.7139,0.7471,0.7904,0.8812,1.0246,1.1868,1.3655,1.4785,1.5475,1.5582,1.5825,1.5825,1.5825,1.5825,1.5825,1.5825,1.5825,1.6015,1.6103,1.6292,1.6386,1.6386,-0.9699,-0.8937,-0.8937,-0.8937,-0.8937,-0.8937,-0.8937,-0.8937,-0.8937,-0.8882,-0.8798,-0.8733,-0.8659,-0.8537,-0.836,-0.817,-0.8041,-0.8009,-0.8038,-0.8041,-0.7955,-0.7969,-0.7366,-0.4124,-0.1812,-0.0,-0.0,-0.0,-0.0,-0.0,-0.0,-0.0,-0.0,-0.0,-0.0,-0.0,-0.0,-0.0,-0.0,-0.0,-0.0,-0.0,-0.0,-0.0,-0.0,-0.0,-0.0,-0.0,-0.0,-0.0,-0.0,-0.0,-0.0,-0.0,-0.0,-0.0,-0.0,-0.0,-0.0,-0.0,-0.0,-0.0,-0.0,-0.0,-0.0,-0.0,-0.0,-0.0,-0.0,-0.0,-0.0,-0.0,-0.0,-0.0,-0.0,-0.0,-0.0,-0.0,-0.0,-0.0,-0.0,-0.0,0.2215,0.3236,0.5339,0.6397,0.7125,0.7101,0.7081,0.7139,0.7139,0.7139,0.7139,0.7143,0.7146,0.7467,0.7897,0.9216,1.0687,1.2516,1.4066,1.4528,1.4754,1.5582,1.5825,1.5825,1.5825,1.5825,1.5825,1.5825,1.5825,1.592,1.6015,1.6015,1.6015,-0.8937,-0.8937,-0.8937,-0.8937,-0.8937,-0.8937,-0.8937,-0.8937,-0.8937,-0.8933,-0.8896,-0.8798,-0.8723,-0.8645,-0.8418,-0.819,-0.8034,-0.8006,-0.8038,-0.7949,-0.7969,-0.7882,-0.6759,-0.262,-0.0,-0.0,-0.0,-0.0,-0.0,-0.0,-0.0,-0.0,-0.0,-0.0,-0.0,-0.0,-0.0,-0.0,-0.0,-0.0,-0.0,-0.0,-0.0,-0.0,-0.0,-0.0,-0.0,-0.0,-0.0,-0.0,-0.0,-0.0,-0.0,-0.0,-0.0,-0.0,-0.0,-0.0,-0.0,-0.0,-0.0,-0.0,-0.0,-0.0,-0.0,-0.0,-0.0,-0.0,-0.0,-0.0,-0.0,-0.0,-0.0,-0.0,-0.0,-0.0,-0.0,-0.0,-0.0,-0.0,-0.0,-0.0,-0.0,-0.0,0.2585,0.5428,0.6749,0.7118,0.7098,0.7139,0.7139,0.7139,0.7139,0.7139,0.7143,0.717,0.7588,0.8166,0.9496,1.0963,1.3031,1.3707,1.4521,1.5334,1.5825,1.5825,1.5825,1.5825,1.5825,1.5825,1.5825,1.5825,1.5825,1.5825,1.5825,-0.8937,-0.8937,-0.8937,-0.8937,-0.8937,-0.8937,-0.8937,-0.8937,-0.8937,-0.8937,-0.8927,-0.8899,-0.8808,-0.8693,-0.8513,-0.8374,-0.8255,-0.8109,-0.8038,-0.7945,-0.7975,-0.6756,-0.4828,-0.0,-0.0,-0.0,-0.0,-0.0,-0.0,-0.0,-0.0,-0.0,-0.0,-0.0,-0.0,-0.0,-0.0,-0.0,-0.0,-0.0,-0.0,-0.0,-0.0,-0.0,-0.0,-0.0,-0.0,-0.0,-0.0,-0.0,-0.0,-0.0,-0.0,-0.0,-0.0,-0.0,-0.0,-0.0,-0.0,-0.0,-0.0,-0.0,-0.0,-0.0,-0.0,-0.0,-0.0,-0.0,-0.0,-0.0,-0.0,-0.0,-0.0,-0.0,-0.0,-0.0,-0.0,-0.0,-0.0,-0.0,-0.0,-0.0,-0.0,-0.0,-0.0,0.3884,0.5966,0.7083,0.7141,0.7139,0.7139,0.7139,0.7139,0.7139,0.7146,0.7166,0.7269,0.7351,0.8236,0.9246,1.1349,1.3118,1.4272,1.5455,1.571,1.5825,1.5825,1.5825,1.5825,1.5825,1.5825,1.5825,1.5825,1.5825,1.5825,-0.8937,-0.8937,-0.8937,-0.8937,-0.8937,-0.8937,-0.8937,-0.8937,-0.8937,-0.8937,-0.8937,-0.8937,-0.8855,-0.8699,-0.855,-0.8508,-0.8473,-0.8113,-0.8041,-0.7949,-0.7975,-0.5947,-0.2819,-0.0,-0.0,-0.0,-0.0,-0.0,-0.0,-0.0,-0.0,-0.0,-0.0,-0.0,-0.0,-0.0,-0.0,-0.0,-0.0,-0.0,-0.0,-0.0,-0.0,-0.0,-0.0,-0.0,-0.0,-0.0,-0.0,-0.0,-0.0,-0.0,-0.0,-0.0,-0.0,-0.0,-0.0,-0.0,-0.0,-0.0,-0.0,-0.0,-0.0,-0.0,-0.0,-0.0,-0.0,-0.0,-0.0,-0.0,-0.0,-0.0,-0.0,-0.0,-0.0,-0.0,-0.0,-0.0,-0.0,-0.0,-0.0,-0.0,-0.0,-0.0,-0.0,0.2314,0.5209,0.6325,0.7118,0.7121,0.7139,0.7139,0.7139,0.7139,0.7139,0.7156,0.7163,0.7153,0.7344,0.8228,1.0271,1.2439,1.3818,1.4986,1.5461,1.5717,1.5602,1.5602,1.5825,1.5825,1.5825,1.5825,1.5825,1.5825,1.5825,-0.8937,-0.8937,-0.8937,-0.8937,-0.8937,-0.8937,-0.8937,-0.8937,-0.8937,-0.8937,-0.8937,-0.8937,-0.8832,-0.8682,-0.8533,-0.8501,-0.8445,-0.8099,-0.8055,-0.7646,-0.6954,-0.4638,-0.2424,-0.0606,-0.0,-0.0,-0.0,-0.0,-0.0,-0.0,-0.0,-0.0,-0.0,-0.0,-0.0,-0.0,-0.0,-0.0,-0.0,-0.0,-0.0,-0.0,-0.0,-0.0,-0.0,-0.0,-0.0,-0.0,-0.0,-0.0,-0.0,-0.0,-0.0,-0.0,-0.0,-0.0,-0.0,-0.0,-0.0,-0.0,-0.0,-0.0,-0.0,-0.0,-0.0,-0.0,-0.0,-0.0,-0.0,-0.0,-0.0,-0.0,-0.0,-0.0,-0.0,-0.0,-0.0,-0.0,-0.0,-0.0,-0.0,-0.0,-0.0,-0.0,-0.0,-0.0,0.3728,0.572,0.6706,0.7138,0.7078,0.7139,0.7139,0.7139,0.7139,0.7143,0.7146,0.7143,0.7143,0.7927,0.9854,1.1778,1.3339,1.4284,1.4503,1.486,1.522,1.5341,1.5582,1.5825,1.5825,1.5825,1.5825,1.5825,1.5825,-0.8937,-0.8937,-0.8937,-0.8937,-0.8937,-0.8937,-0.8937,-0.8937,-0.8937,-0.8937,-0.8937,-0.8937,-0.8777,-0.8537,-0.8482,-0.8343,-0.8123,-0.8062,-0.7952,-0.7466,-0.3317,-0.4239,-0.4048,-0.0,-0.0,-0.0,-0.0,-0.0,-0.0,-0.0,-0.0,-0.0,-0.0,-0.0,-0.0,-0.0,-0.0,-0.0,-0.0,-0.0,-0.0,-0.0,-0.0,-0.0,-0.0,-0.0,-0.0,-0.0,-0.0,-0.0,-0.0,-0.0,-0.0,-0.0,-0.0,-0.0,-0.0,-0.0,-0.0,-0.0,-0.0,-0.0,-0.0,-0.0,-0.0,-0.0,-0.0,-0.0,-0.0,-0.0,-0.0,-0.0,-0.0,-0.0,-0.0,-0.0,-0.0,-0.0,-0.0,-0.0,-0.0,-0.0,-0.0,-0.0,-0.0,-0.0,0.2215,0.4817,0.6115,0.6998,0.7108,0.7071,0.7139,0.7139,0.7139,0.7139,0.7139,0.7139,0.7139,0.7241,0.9139,1.0271,1.1446,1.245,1.3345,1.3701,1.4147,1.4867,1.51,1.5455,1.5589,1.5481,1.5461,1.5582,1.5825,-0.8937,-0.8937,-0.8937,-0.8937,-0.8937,-0.8937,-0.8937,-0.8937,-0.8937,-0.8937,-0.892,-0.8869,-0.8696,-0.8482,-0.8408,-0.8248,-0.8089,-0.7952,-0.6534,-0.432,-0.1205,-0.1713,-0.3133,-0.0,-0.0,-0.0,-0.0,-0.0,-0.0,-0.0,-0.0,-0.0,-0.0,-0.0,-0.0,-0.0,-0.0,-0.0,-0.0,-0.0,-0.0,-0.0,-0.0,-0.0,-0.0,-0.0,-0.0,-0.0,-0.0,-0.0,-0.0,-0.0,-0.0,-0.0,-0.0,-0.0,-0.0,-0.0,-0.0,-0.0,-0.0,-0.0,-0.0,-0.0,-0.0,-0.0,-0.0,-0.0,-0.0,-0.0,-0.0,-0.0,-0.0,-0.0,-0.0,-0.0,-0.0,-0.0,-0.0,-0.0,-0.0,-0.0,-0.0,-0.0,-0.0,-0.0,0.088,0.3258,0.65,0.7211,0.7158,0.7098,0.7156,0.7139,0.7139,0.7139,0.7139,0.7139,0.7139,0.7238,0.8031,0.8633,0.9135,1.0491,1.1999,1.2335,1.2783,1.359,1.4036,1.3689,1.3794,1.4403,1.4986,1.5106,1.5468,-0.8937,-0.8937,-0.8937,-0.8937,-0.8937,-0.8937,-0.8937,-0.8937,-0.8937,-0.8937,-0.891,-0.8777,-0.8638,-0.8482,-0.834,-0.8187,-0.8079,-0.7656,-0.5832,-0.1102,-0.0,-0.0,-0.0,-0.0,-0.0,-0.0,-0.0,-0.0,-0.0,-0.0,-0.0,-0.0,-0.0,-0.0,-0.0,-0.0,-0.0,-0.0,-0.0,-0.0,-0.0,-0.0,-0.0,-0.0,-0.0,-0.0,-0.0,-0.0,-0.0,-0.0,-0.0,-0.0,-0.0,-0.0,-0.0,-0.0,-0.0,-0.0,-0.0,-0.0,-0.0,-0.0,-0.0,-0.0,-0.0,-0.0,-0.0,-0.0,-0.0,-0.0,-0.0,-0.0,-0.0,-0.0,-0.0,-0.0,-0.0,-0.0,-0.0,-0.0,-0.0,-0.0,-0.0,-0.0,-0.0,0.5041,0.2574,0.1943,0.5239,0.73,0.7232,0.7108,0.7153,0.7139,0.7139,0.7139,0.7139,0.7139,0.7139,0.7146,0.7337,0.7634,0.8329,0.9543,1.0687,1.1014,1.1446,1.2102,1.2113,1.1671,1.2221,1.324,1.3936,1.4521,1.486,-0.8937,-0.8937,-0.8937,-0.8937,-0.8937,-0.8937,-0.8937,-0.8937,-0.8937,-0.8937,-0.891,-0.8774,-0.8615,-0.8476,-0.833,-0.8184,-0.8069,-0.7762,-0.5127,-0.0,-0.0,-0.0,-0.0,-0.0,-0.0,-0.0,-0.0,-0.0,-0.0,-0.0,-0.0,-0.0,-0.0,-0.0,-0.0,-0.0,-0.0,-0.0,-0.0,-0.0,-0.0,-0.0,-0.0,-0.0,-0.0,-0.0,-0.0,-0.0,-0.0,-0.0,-0.0,-0.0,-0.0,-0.0,-0.0,-0.0,-0.0,-0.0,-0.0,-0.0,-0.0,-0.0,-0.0,-0.0,-0.0,-0.0,-0.0,-0.0,-0.0,-0.0,-0.0,-0.0,-0.0,-0.0,-0.0,-0.0,-0.0,-0.0,-0.0,-0.0,-0.0,-0.0,-0.0,-0.0,-0.0,-0.0,0.3087,0.2727,0.4953,0.6641,0.7245,0.7141,0.7146,0.7139,0.7139,0.7139,0.7139,0.7139,0.7139,0.7139,0.7146,0.7143,0.7823,0.8723,0.9238,0.9552,1.0062,1.0491,1.0697,1.0586,1.1344,1.2221,1.2668,1.3014,1.3345,-0.8937,-0.8937,-0.8937,-0.8937,-0.8937,-0.8937,-0.8937,-0.8937,-0.8937,-0.8889,-0.8791,-0.8659,-0.8557,-0.8438,-0.8238,-0.8106,-0.8069,-0.7975,-0.4924,-0.0,-0.0,-0.0,-0.0,-0.0,-0.0,-0.0,-0.0,-0.0,-0.0,-0.0,-0.0,-0.0,-0.0,-0.0,-0.0,-0.0,-0.0,-0.0,-0.0,-0.0,-0.0,-0.0,-0.0,-0.0,-0.0,-0.0,-0.0,-0.0,-0.0,-0.0,-0.0,-0.0,-0.0,-0.0,-0.0,-0.0,-0.0,-0.0,-0.0,-0.0,-0.0,-0.0,-0.0,-0.0,-0.0,-0.0,-0.0,-0.0,-0.0,-0.0,-0.0,-0.0,-0.0,-0.0,-0.0,-0.0,-0.0,-0.0,-0.0,-0.0,-0.0,-0.0,-0.0,-0.0,-0.0,-0.0,-0.0,0.3917,0.5063,0.6202,0.7217,0.7138,0.7139,0.7139,0.7139,0.7139,0.7139,0.7139,0.7139,0.7139,0.7139,0.7139,0.7139,0.7531,0.7927,0.8426,0.8325,0.8629,0.9033,0.9444,0.9967,1.05,1.1029,1.1461,1.1773,-0.8937,-0.8937,-0.8937,-0.8937,-0.8937,-0.8937,-0.8937,-0.8933,-0.8789,-0.8736,-0.874,-0.8577,-0.8509,-0.8448,-0.8153,-0.7979,-0.7952,-0.7972,-0.4922,-0.0,-0.0,-0.0,-0.0,-0.0,-0.0,-0.0,-0.0,-0.0,-0.0,-0.0,-0.0,-0.0,-0.0,-0.0,-0.0,-0.0,-0.0,-0.0,-0.0,-0.0,-0.0,-0.0,-0.0,-0.0,-0.0,-0.0,-0.0,-0.0,-0.0,-0.0,-0.0,-0.0,-0.0,-0.0,-0.0,-0.0,-0.0,-0.0,-0.0,-0.0,-0.0,-0.0,-0.0,-0.0,-0.0,-0.0,-0.0,-0.0,-0.0,-0.0,-0.0,-0.0,-0.0,-0.0,-0.0,-0.0,-0.0,-0.0,-0.0,-0.0,-0.0,-0.0,-0.0,-0.0,-0.0,-0.0,-0.0,-0.0,0.5331,0.6398,0.721,0.7165,0.7139,0.7139,0.7139,0.7139,0.7139,0.7139,0.7139,0.7139,0.7139,0.7139,0.7139,0.7139,0.7234,0.7539,0.7238,0.7139,0.7823,0.8325,0.8531,0.9045,0.9967,1.0071,1.0062,-0.8937,-0.8937,-0.8937,-0.8937,-0.8937,-0.8937,-0.8937,-0.8923,-0.8699,-0.8702,-0.8852,-0.8625,-0.856,-0.8547,-0.825,-0.8062,-0.7982,-0.7659,-0.5529,-0.0,-0.0,-0.0,-0.0,-0.0,-0.0,-0.0,-0.0,-0.0,-0.0,-0.0,-0.0,-0.0,-0.0,-0.0,-0.0,-0.0,-0.0,-0.0,-0.0,-0.0,-0.0,-0.0,-0.0,-0.0,-0.0,-0.0,-0.0,-0.0,-0.0,-0.0,-0.0,-0.0,-0.0,-0.0,-0.0,-0.0,-0.0,-0.0,-0.0,-0.0,-0.0,-0.0,-0.0,-0.0,-0.0,-0.0,-0.0,-0.0,-0.0,-0.0,-0.0,-0.0,-0.0,-0.0,-0.0,-0.0,-0.0,-0.0,-0.0,-0.0,-0.0,-0.0,-0.0,-0.0,-0.0,-0.0,-0.0,-0.0,0.5387,0.6435,0.7266,0.7215,0.7149,0.7139,0.7139,0.7139,0.7139,0.7139,0.7139,0.7139,0.7139,0.7139,0.7139,0.7139,0.7139,0.7139,0.7139,0.7139,0.7139,0.7337,0.7738,0.843,0.9238,0.9033,0.8629,-0.8937,-0.8937,-0.8937,-0.8937,-0.8937,-0.8937,-0.8937,-0.8923,-0.8759,-0.8712,-0.8794,-0.8686,-0.857,-0.8462,-0.8309,-0.8187,-0.8075,-0.7969,-0.6956,-0.3616,-0.0,-0.0,-0.0,-0.0,-0.0,-0.0,-0.0,-0.0,-0.0,-0.0,-0.0,-0.0,-0.0,-0.0,-0.0,-0.0,-0.0,-0.0,-0.0,-0.0,-0.0,-0.0,-0.0,-0.0,-0.0,-0.0,-0.0,-0.0,-0.0,-0.0,-0.0,-0.0,-0.0,-0.0,-0.0,-0.0,-0.0,-0.0,-0.0,-0.0,-0.0,-0.0,-0.0,-0.0,-0.0,-0.0,-0.0,-0.0,-0.0,-0.0,-0.0,-0.0,-0.0,-0.0,-0.0,-0.0,-0.0,-0.0,-0.0,-0.0,-0.0,-0.0,-0.0,-0.0,-0.0,-0.0,-0.0,-0.0,0.4294,0.6186,0.6827,0.7336,0.7217,0.7139,0.7139,0.7139,0.7139,0.7139,0.7139,0.7139,0.7139,0.7139,0.7139,0.7139,0.7139,0.7139,0.7139,0.7139,0.7139,0.7139,0.7143,0.7734,0.8329,0.8031,0.7823,-0.8937,-0.8937,-0.8937,-0.8937,-0.8937,-0.8937,-0.8913,-0.8769,-0.8876,-0.8791,-0.8686,-0.8632,-0.8499,-0.8323,-0.8371,-0.8292,-0.8048,-0.7972,-0.6956,-0.4933,-0.0,-0.0,-0.0,-0.0,-0.0,-0.0,-0.0,-0.0,-0.0,-0.0,-0.0,-0.0,-0.0,-0.0,-0.0,-0.0,-0.0,-0.0,-0.0,-0.0,-0.0,-0.0,-0.0,-0.0,-0.0,-0.0,-0.0,-0.0,-0.0,-0.0,-0.0,-0.0,-0.0,-0.0,-0.0,-0.0,-0.0,-0.0,-0.0,-0.0,-0.0,-0.0,-0.0,-0.0,-0.0,-0.0,-0.0,-0.0,-0.0,-0.0,-0.0,-0.0,-0.0,-0.0,-0.0,-0.0,-0.0,-0.0,-0.0,-0.0,-0.0,-0.0,-0.0,-0.0,-0.0,-0.0,-0.0,-0.0,0.2937,0.5244,0.6662,0.722,0.7218,0.7118,0.7139,0.7139,0.7139,0.7139,0.7139,0.7139,0.7139,0.7139,0.7139,0.7139,0.7139,0.7139,0.7139,0.7139,0.7139,0.7139,0.7139,0.7139,0.7241,0.7139,0.7143,-0.8937,-0.8937,-0.8937,-0.8937,-0.8937,-0.8937,-0.8742,-0.8527,-0.8733,-0.8752,-0.853,-0.8489,-0.8411,-0.8296,-0.8241,-0.817,-0.8041,-0.7965,-0.5322,-0.2307,-0.0,-0.0,-0.0,-0.0,-0.0,-0.0,-0.0,-0.0,-0.0,-0.0,-0.0,-0.0,-0.0,-0.0,-0.0,-0.0,-0.0,-0.0,-0.0,-0.0,-0.0,-0.0,-0.0,-0.0,-0.0,-0.0,-0.0,-0.0,-0.0,-0.0,-0.0,-0.0,-0.0,-0.0,-0.0,-0.0,-0.0,-0.0,-0.0,-0.0,-0.0,-0.0,-0.0,-0.0,-0.0,-0.0,-0.0,-0.0,-0.0,-0.0,-0.0,-0.0,-0.0,-0.0,-0.0,-0.0,-0.0,-0.0,-0.0,-0.0,-0.0,-0.0,-0.0,-0.0,-0.0,-0.0,-0.0,-0.0,-0.0,0.3976,0.6002,0.7044,0.7139,0.7118,0.7071,0.7139,0.7139,0.7139,0.7139,0.7139,0.7139,0.7139,0.7139,0.7139,0.7139,0.7139,0.7139,0.7139,0.7139,0.7139,0.7139,0.7139,0.7139,0.7139,0.7139,-0.8937,-0.8937,-0.8937,-0.8937,-0.8933,-0.8948,-0.8764,-0.8477,-0.8391,-0.8431,-0.8472,-0.8391,-0.8323,-0.8258,-0.816,-0.8102,-0.7945,-0.7972,-0.4516,-0.0,-0.0,-0.0,-0.0,-0.0,-0.0,-0.0,-0.0,-0.0,-0.0,-0.0,-0.0,-0.0,-0.0,-0.0,-0.0,-0.0,-0.0,-0.0,-0.0,-0.0,-0.0,-0.0,-0.0,-0.0,-0.0,-0.0,-0.0,-0.0,-0.0,-0.0,-0.0,-0.0,-0.0,-0.0,-0.0,-0.0,-0.0,-0.0,-0.0,-0.0,-0.0,-0.0,-0.0,-0.0,-0.0,-0.0,-0.0,-0.0,-0.0,-0.0,-0.0,-0.0,-0.0,-0.0,-0.0,-0.0,-0.0,-0.0,-0.0,-0.0,-0.0,-0.0,-0.0,-0.0,-0.0,-0.0,-0.0,-0.0,-0.0,0.2761,0.4842,0.6771,0.7063,0.709,0.7128,0.7084,0.7149,0.7139,0.7139,0.7139,0.7139,0.7139,0.7139,0.7139,0.7139,0.7139,0.7139,0.7139,0.7139,0.7139,0.7139,0.7139,0.7139,0.7139,0.7139,-0.8913,-0.8872,-0.8872,-0.8872,-0.8859,-0.8869,-0.8655,-0.8355,-0.8082,-0.8128,-0.8411,-0.8272,-0.8201,-0.8167,-0.8102,-0.8045,-0.7949,-0.7556,-0.4418,-0.0,-0.0,-0.0,-0.0,-0.0,-0.0,-0.0,-0.0,-0.0,-0.0,-0.0,-0.0,-0.0,-0.0,-0.0,-0.0,-0.0,-0.0,-0.0,-0.0,-0.0,-0.0,-0.0,-0.0,-0.0,-0.0,-0.0,-0.0,-0.0,-0.0,-0.0,-0.0,-0.0,-0.0,-0.0,-0.0,-0.0,-0.0,-0.0,-0.0,-0.0,-0.0,-0.0,-0.0,-0.0,-0.0,-0.0,-0.0,-0.0,-0.0,-0.0,-0.0,-0.0,-0.0,-0.0,-0.0,-0.0,-0.0,-0.0,-0.0,-0.0,-0.0,-0.0,-0.0,-0.0,-0.0,-0.0,-0.0,-0.0,-0.0,0.189,0.364,0.5523,0.6988,0.7092,0.7182,0.7085,0.7062,0.7139,0.7139,0.7139,0.7139,0.7139,0.7139,0.7139,0.7139,0.7139,0.7139,0.7139,0.7139,0.7139,0.7139,0.7139,0.7139,0.7139,0.7139,-0.8842,-0.8723,-0.8824,-0.8935,-0.8921,-0.8928,-0.8547,-0.814,-0.8082,-0.8163,-0.8262,-0.8123,-0.8065,-0.8062,-0.8045,-0.8038,-0.8045,-0.7862,-0.5529,-0.0,-0.0,-0.0,-0.0,-0.0,-0.0,-0.0,-0.0,-0.0,-0.0,-0.0,-0.0,-0.0,-0.0,-0.0,-0.0,-0.0,-0.0,-0.0,-0.0,-0.0,-0.0,-0.0,-0.0,-0.0,-0.0,-0.0,-0.0,-0.0,-0.0,-0.0,-0.0,-0.0,-0.0,-0.0,-0.0,-0.0,-0.0,-0.0,-0.0,-0.0,-0.0,-0.0,-0.0,-0.0,-0.0,-0.0,-0.0,-0.0,-0.0,-0.0,-0.0,-0.0,-0.0,-0.0,-0.0,-0.0,-0.0,-0.0,-0.0,-0.0,-0.0,-0.0,-0.0,-0.0,-0.0,-0.0,-0.0,-0.0,-0.0,-0.0,-0.0,0.372,0.5502,0.633,0.6374,0.6917,0.7057,0.7125,0.7139,0.7139,0.7139,0.7139,0.7139,0.7139,0.7139,0.7139,0.7139,0.7139,0.7139,0.7139,0.7139,0.7139,0.7139,0.7139,0.7139,-0.8604,-0.8557,-0.8666,-0.8615,-0.864,-0.8418,-0.8143,-0.8061,-0.8008,-0.8059,-0.8119,-0.8052,-0.8038,-0.8038,-0.8038,-0.8038,-0.8045,-0.7972,-0.5942,-0.4929,-0.1711,-0.0,-0.0,-0.0,-0.0,-0.0,-0.0,-0.0,-0.0,-0.0,-0.0,-0.0,-0.0,-0.0,-0.0,-0.0,-0.0,-0.0,-0.0,-0.0,-0.0,-0.0,-0.0,-0.0,-0.0,-0.0,-0.0,-0.0,-0.0,-0.0,-0.0,-0.0,-0.0,-0.0,-0.0,-0.0,-0.0,-0.0,-0.0,-0.0,-0.0,-0.0,-0.0,-0.0,-0.0,-0.0,-0.0,-0.0,-0.0,-0.0,-0.0,-0.0,-0.0,-0.0,-0.0,-0.0,-0.0,-0.0,-0.0,-0.0,-0.0,-0.0,-0.0,-0.0,-0.0,-0.0,-0.0,-0.0,-0.0,-0.0,-0.0,-0.0,0.3202,0.4571,0.5541,0.6194,0.6929,0.7141,0.7074,0.7139,0.7139,0.7139,0.7139,0.7139,0.7139,0.7139,0.7139,0.7139,0.7139,0.7139,0.7139,0.7139,0.7139,0.7139,0.7139,-0.8452,-0.8408,-0.8515,-0.8429,-0.8316,-0.8037,-0.8031,-0.7975,-0.7982,-0.8038,-0.8041,-0.8041,-0.8038,-0.8038,-0.8038,-0.7945,-0.7952,-0.7972,-0.5844,-0.5238,-0.1913,-0.0,-0.0,-0.0,-0.0,-0.0,-0.0,-0.0,-0.0,-0.0,-0.0,-0.0,-0.0,-0.0,-0.0,-0.0,-0.0,-0.0,-0.0,-0.0,-0.0,-0.0,-0.0,-0.0,-0.0,-0.0,-0.0,-0.0,-0.0,-0.0,-0.0,-0.0,-0.0,-0.0,-0.0,-0.0,-0.0,-0.0,-0.0,-0.0,-0.0,-0.0,-0.0,-0.0,-0.0,-0.0,-0.0,-0.0,-0.0,-0.0,-0.0,-0.0,-0.0,-0.0,-0.0,-0.0,-0.0,-0.0,-0.0,-0.0,-0.0,-0.0,-0.0,-0.0,-0.0,-0.0,-0.0,-0.0,-0.0,-0.0,-0.0,-0.0,-0.0,-0.0,-0.0,0.5731,0.6368,0.6995,0.7125,0.7111,0.7139,0.7139,0.7139,0.7139,0.7139,0.7139,0.7139,0.7139,0.7139,0.7139,0.7139,0.7139,0.7139,0.7139,0.7139,-0.8387,-0.8374,-0.8473,-0.8285,-0.8082,-0.7985,-0.7965,-0.7949,-0.8041,-0.8038,-0.8038,-0.8038,-0.8038,-0.8038,-0.8038,-0.7952,-0.7659,-0.7666,-0.4726,-0.0,-0.0,-0.0,-0.0,-0.0,-0.0,-0.0,-0.0,-0.0,-0.0,-0.0,-0.0,-0.0,-0.0,-0.0,-0.0,-0.0,-0.0,-0.0,-0.0,-0.0,-0.0,-0.0,-0.0,-0.0,-0.0,-0.0,-0.0,-0.0,-0.0,-0.0,-0.0,-0.0,-0.0,-0.0,-0.0,-0.0,-0.0,-0.0,-0.0,-0.0,-0.0,-0.0,-0.0,-0.0,-0.0,-0.0,-0.0,-0.0,-0.0,-0.0,-0.0,-0.0,-0.0,-0.0,-0.0,-0.0,-0.0,-0.0,-0.0,-0.0,-0.0,-0.0,-0.0,-0.0,-0.0,-0.0,-0.0,-0.0,-0.0,-0.0,-0.0,-0.0,-0.0,-0.0,-0.0,-0.0,0.5397,0.5874,0.6872,0.7125,0.7141,0.7139,0.7139,0.7139,0.7139,0.7139,0.7139,0.7139,0.7139,0.7139,0.7139,0.7139,0.7139,0.7139,0.7139,-0.814,-0.8106,-0.8109,-0.8079,-0.8048,-0.7985,-0.7975,-0.8041,-0.8038,-0.8038,-0.8038,-0.8038,-0.8038,-0.8038,-0.8038,-0.7955,-0.7253,-0.5834,-0.3214,-0.0,-0.0,-0.0,-0.0,-0.0,-0.0,-0.0,-0.0,-0.0,-0.0,-0.0,-0.0,-0.0,-0.0,-0.0,-0.0,-0.0,-0.0,-0.0,-0.0,-0.0,-0.0,-0.0,-0.0,-0.0,-0.0,-0.0,-0.0,-0.0,-0.0,-0.0,-0.0,-0.0,-0.0,-0.0,-0.0,-0.0,-0.0,-0.0,-0.0,-0.0,-0.0,-0.0,-0.0,-0.0,-0.0,-0.0,-0.0,-0.0,-0.0,-0.0,-0.0,-0.0,-0.0,-0.0,-0.0,-0.0,-0.0,-0.0,-0.0,-0.0,-0.0,-0.0,-0.0,-0.0,-0.0,-0.0,-0.0,-0.0,-0.0,-0.0,-0.0,-0.0,-0.0,-0.0,-0.0,-0.0,-0.0,0.4752,0.6043,0.709,0.7125,0.7139,0.7139,0.7139,0.7139,0.7139,0.7139,0.7139,0.7139,0.7139,0.7139,0.7139,0.7139,0.7139,0.7139,-0.8038,-0.8038,-0.8038,-0.8038,-0.8038,-0.8038,-0.8038,-0.8038,-0.8038,-0.8038,-0.8038,-0.8038,-0.8038,-0.8041,-0.7952,-0.7965,-0.7879,-0.6665,-0.0,-0.0,-0.0,-0.0,-0.0,-0.0,-0.0,-0.0,-0.0,-0.0,-0.0,-0.0,-0.0,-0.0,-0.0,-0.0,-0.0,-0.0,-0.0,-0.0,-0.0,-0.0,-0.0,-0.0,-0.0,-0.0,-0.0,-0.0,-0.0,-0.0,-0.0,-0.0,-0.0,-0.0,-0.0,-0.0,-0.0,-0.0,-0.0,-0.0,-0.0,-0.0,-0.0,-0.0,-0.0,-0.0,-0.0,-0.0,-0.0,-0.0,-0.0,-0.0,-0.0,-0.0,-0.0,-0.0,-0.0,-0.0,-0.0,-0.0,-0.0,-0.0,-0.0,-0.0,-0.0,-0.0,-0.0,-0.0,-0.0,-0.0,-0.0,-0.0,-0.0,-0.0,-0.0,-0.0,-0.0,-0.0,-0.0,0.3892,0.6029,0.6783,0.6966,0.7139,0.7139,0.7139,0.7139,0.7139,0.7139,0.7139,0.7139,0.7139,0.7139,0.7139,0.7139,0.7139,0.7139,-0.8038,-0.8038,-0.8038,-0.8038,-0.8038,-0.8038,-0.8038,-0.8038,-0.8038,-0.8038,-0.8038,-0.8038,-0.8038,-0.8041,-0.7959,-0.7563,-0.7478,-0.6879,-0.0,-0.0,-0.0,-0.0,-0.0,-0.0,-0.0,-0.0,-0.0,-0.0,-0.0,-0.0,-0.0,-0.0,-0.0,-0.0,-0.0,-0.0,-0.0,-0.0,-0.0,-0.0,-0.0,-0.0,-0.0,-0.0,-0.0,-0.0,-0.0,-0.0,-0.0,-0.0,-0.0,-0.0,-0.0,-0.0,-0.0,-0.0,-0.0,-0.0,-0.0,-0.0,-0.0,-0.0,-0.0,-0.0,-0.0,-0.0,-0.0,-0.0,-0.0,-0.0,-0.0,-0.0,-0.0,-0.0,-0.0,-0.0,-0.0,-0.0,-0.0,-0.0,-0.0,-0.0,-0.0,-0.0,-0.0,-0.0,-0.0,-0.0,-0.0,-0.0,-0.0,-0.0,-0.0,-0.0,-0.0,-0.0,-0.0,0.2909,0.5358,0.6749,0.7024,0.7115,0.7139,0.7139,0.7139,0.7139,0.7139,0.7139,0.7139,0.7139,0.7139,0.7139,0.7139,0.7139,0.7139,-0.8038,-0.8038,-0.8038,-0.8038,-0.8038,-0.8038,-0.8038,-0.8038,-0.8038,-0.8038,-0.8038,-0.8038,-0.8038,-0.8041,-0.7962,-0.726,-0.5739,-0.6065,-0.4345,-0.0,-0.0,-0.0,-0.0,-0.0,-0.0,-0.0,-0.0,-0.0,-0.0,-0.0,-0.0,-0.0,-0.0,-0.0,-0.0,-0.0,-0.0,-0.0,-0.0,-0.0,-0.0,-0.0,-0.0,-0.0,-0.0,-0.0,-0.0,-0.0,-0.0,-0.0,-0.0,-0.0,-0.0,-0.0,-0.0,-0.0,-0.0,-0.0,-0.0,-0.0,-0.0,-0.0,-0.0,-0.0,-0.0,-0.0,-0.0,-0.0,-0.0,-0.0,-0.0,-0.0,-0.0,-0.0,-0.0,-0.0,-0.0,-0.0,-0.0,-0.0,-0.0,-0.0,-0.0,-0.0,-0.0,-0.0,-0.0,-0.0,-0.0,-0.0,-0.0,-0.0,-0.0,-0.0,-0.0,-0.0,-0.0,-0.0,0.4626,0.5938,0.6998,0.7095,0.7111,0.7068,0.7139,0.7139,0.7139,0.7139,0.7139,0.7139,0.7139,0.7139,0.7139,0.7139,0.7139,-0.8038,-0.8038,-0.8038,-0.8038,-0.8038,-0.8038,-0.8038,-0.8038,-0.8038,-0.8038,-0.8038,-0.8038,-0.8038,-0.8045,-0.7965,-0.6648,-0.4425,-0.4034,-0.2523,-0.0,-0.0,-0.0,-0.0,-0.0,-0.0,-0.0,-0.0,-0.0,-0.0,-0.0,-0.0,-0.0,-0.0,-0.0,-0.0,-0.0,-0.0,-0.0,-0.0,-0.0,-0.0,-0.0,-0.0,-0.0,-0.0,-0.0,-0.0,-0.0,-0.0,-0.0,-0.0,-0.0,-0.0,-0.0,-0.0,-0.0,-0.0,-0.0,-0.0,-0.0,-0.0,-0.0,-0.0,-0.0,-0.0,-0.0,-0.0,-0.0,-0.0,-0.0,-0.0,-0.0,-0.0,-0.0,-0.0,-0.0,-0.0,-0.0,-0.0,-0.0,-0.0,-0.0,-0.0,-0.0,-0.0,-0.0,-0.0,-0.0,-0.0,-0.0,-0.0,-0.0,-0.0,-0.0,-0.0,-0.0,-0.0,-0.0,-0.0,0.5548,0.6861,0.7002,0.7082,0.7148,0.7108,0.7139,0.7139,0.7139,0.7139,0.7139,0.7139,0.7139,0.7139,0.7139,0.7139,-0.8038,-0.8038,-0.8038,-0.8038,-0.8038,-0.8038,-0.8038,-0.8038,-0.8038,-0.8038,-0.8038,-0.8038,-0.8038,-0.7952,-0.7869,-0.6245,-0.4531,-0.2521,-0.0606,-0.0,-0.0,-0.0,-0.0,-0.0,-0.0,-0.0,-0.0,-0.0,-0.0,-0.0,-0.0,-0.0,-0.0,-0.0,-0.0,-0.0,-0.0,-0.0,-0.0,-0.0,-0.0,-0.0,-0.0,-0.0,-0.0,-0.0,-0.0,-0.0,-0.0,-0.0,-0.0,-0.0,-0.0,-0.0,-0.0,-0.0,-0.0,-0.0,-0.0,-0.0,-0.0,-0.0,-0.0,-0.0,-0.0,-0.0,-0.0,-0.0,-0.0,-0.0,-0.0,-0.0,-0.0,-0.0,-0.0,-0.0,-0.0,-0.0,-0.0,-0.0,-0.0,-0.0,-0.0,-0.0,-0.0,-0.0,-0.0,-0.0,-0.0,-0.0,-0.0,-0.0,-0.0,-0.0,-0.0,-0.0,-0.0,-0.0,0.2551,0.4852,0.6421,0.6002,0.6187,0.7073,0.7118,0.7128,0.7068,0.7139,0.7139,0.7139,0.7139,0.7139,0.7139,0.7139,0.7139,-0.8038,-0.8038,-0.8038,-0.8038,-0.8038,-0.8038,-0.8038,-0.8038,-0.8038,-0.8038,-0.8038,-0.8041,-0.7949,-0.7965,-0.7982,-0.7175,-0.6065,-0.0,-0.0,-0.0,-0.0,-0.0,-0.0,-0.0,-0.0,-0.0,-0.0,-0.0,-0.0,-0.0,-0.0,-0.0,-0.0,-0.0,-0.0,-0.0,-0.0,-0.0,-0.0,-0.0,-0.0,-0.0,-0.0,-0.0,-0.0,-0.0,-0.0,-0.0,-0.0,-0.0,-0.0,-0.0,-0.0,-0.0,-0.0,-0.0,-0.0,-0.0,-0.0,-0.0,-0.0,-0.0,-0.0,-0.0,-0.0,-0.0,-0.0,-0.0,-0.0,-0.0,-0.0,-0.0,-0.0,-0.0,-0.0,-0.0,-0.0,-0.0,-0.0,-0.0,-0.0,-0.0,-0.0,-0.0,-0.0,-0.0,-0.0,-0.0,-0.0,-0.0,-0.0,-0.0,-0.0,-0.0,-0.0,-0.0,-0.0,-0.0,0.0893,0.2746,0.3873,0.4191,0.4703,0.5869,0.6825,0.7115,0.7148,0.7139,0.7139,0.7139,0.7139,0.7139,0.7139,0.7139,0.7139]},{"header":{"parameterUnit":"m.s-1","parameterCategory":1,"la1":31.0,"la2":29.5877,"lo1":-88.7671,"lo2":-86.6584,"dy":0.0162,"dx":0.0185,"nx":115,"ny":88,"refTime":"2024-09-12T06:00:00:Z","depth":0,"parameterNumber":3,"parameterNumberName":"V-component_of_WINDS"},"data":[0.0,0.0,0.0,0.0,0.0,0.0,0.0,0.0,0.0,0.0,0.0,0.0,0.0,0.0,0.0,0.0,0.0,0.0,0.0,0.0,0.0,0.0,0.0,0.0,0.0,0.0,0.0,0.0,0.0,0.0,0.0,0.0,0.0,0.0,0.0,0.0,0.0,0.0,0.0,0.0,0.0,0.0,0.0,0.0,0.0,0.0,0.0,0.0,0.0,0.0,0.0,0.0,0.0,0.0,0.0,0.0,0.0,0.0,0.0,0.0,0.0,0.0,0.0,0.0,0.0,0.0,0.0,0.0,0.0,0.0,0.0,0.0,0.0,0.0,0.0,0.0,0.0,0.0,0.0,0.0,0.0,0.0,0.0,0.0,0.0,0.0,0.0,0.0,0.0,0.0,0.0,0.0,0.0,0.0,0.0,0.0,0.0,0.0,0.0,0.0,0.0,0.0,0.0,0.0,0.0,0.0,0.0,0.0,0.0,0.0,0.0,0.0,0.0,0.0,0.0,0.0,0.0,0.0,0.0,0.0,0.0,0.0,0.0,0.0,0.0,0.0,0.0,0.0,0.0,0.0,0.0,0.0,0.0,0.0,0.0,0.0,0.0,0.0,0.0,0.0,0.0,0.0,0.0,0.0,0.0,0.0,0.0,0.0,0.0,0.0,0.0,0.0,0.0,0.0,0.0,0.0,0.0,0.0,0.0,0.0,0.0,0.0,0.0,0.0,0.0,0.0,0.0,0.0,0.0,0.0,0.0,0.0,0.0,0.0,0.0,0.0,0.0,0.0,0.0,0.0,0.0,0.0,0.0,0.0,0.0,0.0,0.0,0.0,0.0,0.0,0.0,0.0,0.0,0.0,0.0,0.0,0.0,0.0,0.0,0.0,0.0,0.0,0.0,0.0,0.0,0.0,0.0,0.0,0.0,0.0,0.0,0.0,0.0,0.0,0.0,0.0,0.0,0.0,0.0,0.0,0.0,0.0,0.0,0.0,0.0,0.0,0.0,0.0,0.0,0.0,0.0,0.0,0.0,0.0,0.0,0.0,0.0,0.0,0.0,0.0,0.0,0.0,0.0,0.0,0.0,0.0,0.0,0.0,0.0,0.0,0.0,0.0,0.0,0.0,0.0,0.0,0.0,0.0,0.0,0.0,0.0,0.0,0.0,0.0,0.0,0.0,0.0,0.0,0.0,0.0,0.0,0.0,0.0,0.0,0.0,0.0,0.0,0.0,0.0,0.0,0.0,0.0,0.0,0.0,0.0,0.0,0.0,0.0,0.0,0.0,0.0,0.0,0.0,0.0,0.0,0.0,0.0,0.0,0.0,0.0,0.0,0.0,0.0,0.0,0.0,0.0,0.0,0.0,0.0,0.0,0.0,0.0,0.0,0.0,0.0,0.0,0.0,0.0,0.0,0.0,0.0,0.0,0.0,0.0,0.0,0.0,0.0,0.0,0.0,0.0,0.0,0.0,0.0,0.0,0.0,0.0,0.0,0.0,0.0,0.0,0.0,0.0,0.0,0.0,0.0,0.0,0.0,0.0,0.0,0.0,0.0,0.0,0.0,0.0,0.0,0.0,0.0,0.0,0.0,0.0,0.0,0.0,0.0,0.0,0.0,0.0,0.0,0.0,0.0,0.0,0.0,0.0,0.0,0.0,0.0,0.0,0.0,0.0,0.0,0.0,0.0,0.0,0.0,0.0,0.0,0.0,0.0,0.0,0.0,0.0,0.0,0.0,0.0,0.0,0.0,0.0,0.0,0.0,0.0,0.0,0.0,0.0,0.0,0.0,0.0,0.0,0.0,0.0,0.0,0.0,0.0,0.0,0.0,0.0,0.0,0.0,0.0,0.0,0.0,0.0,0.0,0.0,0.0,0.0,0.0,0.0,0.0,0.0,0.0,0.0,0.0,0.0,0.0,0.0,0.0,0.0,0.0,0.0,0.0,0.0,0.0,0.0,0.0,0.0,0.0,0.0,0.0,0.0,0.0,0.0,0.0,0.0,0.0,0.0,0.0,0.0,0.0,0.0,0.0,0.0,0.0,0.0,0.0,0.0,0.0,0.0,0.0,0.0,0.0,0.0,0.0,0.0,0.0,0.0,0.0,0.0,0.0,0.0,0.0,0.0,0.0,0.0,0.0,0.0,0.0,0.0,0.0,0.0,0.0,0.0,0.0,0.0,0.0,0.0,0.0,0.0,0.0,0.0,0.0,0.0,0.0,0.0,0.0,0.0,0.0,0.0,0.0,0.0,0.0,0.0,0.0,0.0,0.0,0.0,0.0,0.0,0.0,0.0,0.0,0.0,0.0,0.0,0.0,0.0,0.0,0.0,0.0,0.0,0.0,0.0,0.0,0.0,0.0,0.0,0.0,0.0,0.0,0.0,0.0,0.0,0.0,0.0,0.0,0.0,0.0,0.0,0.0,0.0,0.0,0.0,0.0,0.0,0.0,0.0,0.0,0.0,0.0,0.0,0.0,0.0,0.0,0.0,0.0,0.0,0.0,0.0,0.0,0.0,0.0,0.0,0.0,0.0,0.0,0.0,0.0,0.0,0.0,0.0,0.0,0.0,0.0,0.0,0.0,0.0,0.0,0.0,0.0,0.0,0.0,0.0,0.0,0.0,0.0,0.0,0.0,0.0,0.0,0.0,0.0,0.0,0.0,0.0,0.0,0.0,0.0,0.0,0.0,0.0,0.0,0.0,0.0,0.0,0.0,0.0,0.0,0.0,0.0,0.0,0.0,0.0,0.0,0.0,0.0,0.0,0.0,0.0,0.0,0.0,0.0,0.0,0.0,0.0,0.0,0.0,0.0,0.0,0.0,0.0,0.0,0.0,0.0,0.0,0.0,0.0,0.0,0.0,0.0,0.0,0.0,0.0,0.0,0.0,0.0,0.0,0.0,0.0,0.0,0.0,0.0,0.0,0.0,0.0,0.0,0.0,0.0,0.0,0.0,0.0,0.0,0.0,0.0,0.0,0.0,0.0,0.0,0.0,0.0,0.0,0.0,0.0,0.0,0.0,0.0,0.0,0.0,0.0,0.0,0.0,0.0,0.0,0.0,0.0,0.0,0.0,0.0,0.0,0.0,0.0,0.0,0.0,0.0,0.0,0.0,0.0,0.0,0.0,0.0,0.0,0.0,0.0,0.0,0.0,0.0,0.0,0.0,0.0,0.0,0.0,0.0,0.0,0.0,0.0,0.0,0.0,0.0,0.0,0.0,0.0,0.0,0.0,0.0,0.0,0.0,0.0,0.0,0.0,0.0,0.0,0.0,0.0,0.0,0.0,0.0,0.0,0.0,0.0,0.0,0.0,0.0,0.0,0.0,0.0,0.0,0.0,0.0,0.0,0.0,0.0,0.0,0.0,0.0,0.0,0.0,0.0,0.0,0.0,0.0,0.0,0.0,0.0,0.0,0.0,0.0,0.0,0.0,0.0,0.0,0.0,0.0,0.0,0.0,0.0,0.0,0.0,0.0,0.0,0.0,0.0,0.0,0.0,0.0,0.0,0.0,0.0,0.0,0.0,0.0,0.0,0.0,0.0,0.0,0.0,0.0,0.0,0.0,0.0,0.0,0.0,0.0,0.0,0.0,0.0,0.0,0.0,0.0,0.0,0.0,0.0,0.0,0.0,0.0,0.0,0.0,0.0,0.0,0.0,0.0,0.0,0.0,0.0,0.0,0.0,0.0,0.0,0.0,0.0,0.0,0.0,0.0,0.0,0.0,0.0,0.0,0.0,0.0,0.0,0.0,0.0,0.0,0.0,0.0,0.0,0.0,0.0,0.0,0.0,0.0,0.0,0.0,0.0,0.0,0.0,0.0,0.0,0.0,0.0,0.0,0.0,0.0,0.0,0.0,0.0,0.0,0.0,0.0,0.0,0.0,0.0,0.0,0.0,0.0,0.0,0.0,0.0,0.0,0.0,0.0,0.0,0.0,0.0,0.0,0.0,0.0,0.0,0.0,0.0,0.0,0.0,0.0,0.0,0.0,0.0,0.0,0.0,0.0,0.0,0.0,0.0,0.0,0.0,0.0,0.0,0.0,0.0,0.0,0.0,0.0,0.0,0.0,0.0,0.0,0.0,0.0,0.0,0.0,0.0,0.0,0.0,0.0,0.0,0.0,0.0,0.0,0.0,0.0,0.0,0.0,0.0,0.0,0.0,0.0,0.0,0.0,0.0,0.0,0.0,0.0,0.0,0.0,0.0,0.0,0.0,0.0,0.0,0.0,0.0,0.0,0.0,0.0,0.0,0.0,0.0,0.0,0.0,0.0,0.0,-0.9463,0.0,0.0,0.0,0.0,0.0,0.0,0.0,0.0,0.0,0.0,0.0,0.0,0.0,0.0,0.0,0.0,0.0,0.0,0.0,0.0,0.0,0.0,0.0,0.0,0.0,0.0,0.0,0.0,0.0,0.0,0.0,0.0,0.0,0.0,0.0,0.0,0.0,0.0,0.0,0.0,0.0,0.0,0.0,0.0,0.0,0.0,0.0,0.0,0.0,0.0,0.0,0.0,0.0,0.0,0.0,0.0,0.0,0.0,0.0,0.0,0.0,0.0,0.0,0.0,0.0,0.0,0.0,0.0,0.0,0.0,0.0,0.0,0.0,0.0,0.0,0.0,0.0,0.0,0.0,0.0,0.0,0.0,0.0,0.0,0.0,0.0,0.0,0.0,0.0,0.0,0.0,0.0,0.0,0.0,0.0,0.0,0.0,0.0,0.0,0.0,0.0,0.0,0.0,0.0,0.0,0.0,0.0,0.0,0.0,0.0,-0.9576,-0.9481,-0.9586,-0.9621,-0.9592,0.0,0.0,0.0,0.0,0.0,0.0,0.0,0.0,0.0,0.0,0.0,0.0,0.0,0.0,0.0,0.0,0.0,0.0,0.0,0.0,0.0,0.0,0.0,0.0,0.0,0.0,0.0,0.0,0.0,0.0,0.0,0.0,0.0,0.0,0.0,0.0,0.0,0.0,0.0,0.0,0.0,0.0,0.0,0.0,0.0,0.0,0.0,0.0,0.0,0.0,0.0,0.0,0.0,0.0,0.0,0.0,0.0,0.0,0.0,0.0,0.0,0.0,0.0,0.0,0.0,0.0,0.0,0.0,0.0,0.0,0.0,0.0,0.0,0.0,0.0,0.0,0.0,0.0,0.0,0.0,0.0,0.0,0.0,0.0,0.0,0.0,0.0,0.0,0.0,0.0,0.0,0.0,0.0,0.0,0.0,0.0,0.0,0.0,0.0,0.0,0.0,0.0,0.0,0.0,0.0,0.0,0.0,0.0,0.0,0.0,0.0,0.0,-1.0195,-1.015,-1.0042,0.0,0.0,0.0,0.0,0.0,0.0,0.0,0.0,0.0,0.0,0.0,0.0,0.0,0.0,0.0,0.0,0.0,0.0,0.0,0.0,0.0,0.0,0.0,0.0,0.0,0.0,0.0,0.0,0.0,0.0,0.0,0.0,0.0,0.0,0.0,0.0,0.0,0.0,0.0,0.0,0.0,0.0,0.0,0.0,0.0,0.0,0.0,0.0,0.0,0.0,0.0,0.0,0.0,0.0,0.0,0.0,0.0,0.0,0.0,0.0,0.0,0.0,0.0,0.0,0.0,0.0,0.0,0.0,0.0,0.0,0.0,0.0,0.0,0.0,0.0,0.0,0.0,0.0,0.0,0.0,0.0,0.0,0.0,0.0,0.0,0.0,0.0,0.0,0.0,0.0,0.0,0.0,0.0,0.0,0.0,0.0,0.0,0.0,0.0,0.0,0.0,0.0,0.0,0.0,0.0,0.0,0.0,0.0,0.0,0.0,-1.0613,-1.2066,-1.1433,0.0,-1.1068,0.0,0.0,0.0,0.0,0.0,0.0,0.0,0.0,0.0,0.0,0.0,0.0,0.0,0.0,0.0,0.0,0.0,0.0,0.0,0.0,0.0,0.0,0.0,0.0,0.0,0.0,0.0,0.0,0.0,0.0,0.0,0.0,0.0,0.0,0.0,0.0,0.0,0.0,0.0,0.0,0.0,0.0,0.0,0.0,0.0,0.0,0.0,0.0,0.0,0.0,0.0,0.0,0.0,0.0,0.0,0.0,0.0,0.0,0.0,0.0,0.0,0.0,0.0,0.0,0.0,0.0,0.0,0.0,0.0,0.0,0.0,0.0,0.0,0.0,0.0,0.0,0.0,0.0,0.0,0.0,0.0,0.0,0.0,0.0,0.0,0.0,0.0,0.0,0.0,0.0,0.0,0.0,0.0,0.0,0.0,0.0,0.0,0.0,0.0,0.0,0.0,0.0,0.0,0.0,0.0,0.0,0.0,0.0,0.0,0.0,-1.1094,-1.1733,-1.1457,-1.132,0.0,0.0,0.0,0.0,0.0,0.0,0.0,0.0,0.0,0.0,0.0,0.0,0.0,0.0,0.0,0.0,0.0,0.0,0.0,0.0,0.0,0.0,0.0,0.0,0.0,0.0,0.0,0.0,0.0,0.0,0.0,0.0,0.0,0.0,0.0,0.0,0.0,0.0,0.0,0.0,0.0,0.0,0.0,0.0,0.0,0.0,0.0,0.0,0.0,0.0,0.0,0.0,0.0,0.0,0.0,0.0,0.0,0.0,0.0,0.0,0.0,0.0,0.0,0.0,0.0,0.0,0.0,0.0,0.0,0.0,0.0,0.0,0.0,0.0,0.0,0.0,0.0,0.0,0.0,0.0,0.0,0.0,0.0,0.0,0.0,0.0,0.0,0.0,0.0,0.0,0.0,0.0,0.0,0.0,0.0,0.0,0.0,0.0,0.0,0.0,0.0,0.0,0.0,0.0,0.0,0.0,0.0,0.0,0.0,0.0,-1.1269,-1.1475,-1.1662,-1.1733,-1.1628,-1.1325,0.0,0.0,0.0,0.0,0.0,0.0,0.0,0.0,0.0,0.0,0.0,0.0,0.0,0.0,0.0,0.0,0.0,0.0,0.0,0.0,0.0,0.0,0.0,0.0,0.0,0.0,0.0,0.0,0.0,0.0,0.0,0.0,0.0,0.0,0.0,0.0,0.0,0.0,0.0,0.0,0.0,0.0,0.0,0.0,0.0,0.0,0.0,0.0,0.0,0.0,0.0,0.0,0.0,0.0,0.0,0.0,0.0,0.0,0.0,0.0,0.0,0.0,0.0,0.0,0.0,0.0,0.0,0.0,0.0,0.0,0.0,0.0,0.0,0.0,0.0,0.0,0.0,0.0,0.0,0.0,0.0,0.0,0.0,0.0,0.0,0.0,0.0,0.0,0.0,0.0,0.0,0.0,0.0,0.0,0.0,0.0,0.0,0.0,0.0,0.0,0.0,0.0,0.0,0.0,0.0,0.0,0.0,0.0,-1.3487,-1.2171,-1.181,-1.2618,-1.2642,-1.2247,0.0,0.0,0.0,0.0,0.0,0.0,0.0,0.0,0.0,0.0,0.0,0.0,0.0,0.0,0.0,0.0,0.0,0.0,0.0,0.0,0.0,0.0,0.0,0.0,0.0,0.0,0.0,0.0,0.0,0.0,0.0,0.0,0.0,0.0,0.0,0.0,0.0,0.0,0.0,0.0,0.0,0.0,0.0,0.0,0.0,0.0,0.0,0.0,0.0,0.0,0.0,0.0,0.0,0.0,0.0,0.0,0.0,0.0,0.0,0.0,0.0,0.0,0.0,0.0,0.0,0.0,0.0,0.0,0.0,0.0,0.0,0.0,0.0,0.0,0.0,0.0,0.0,0.0,0.0,0.0,0.0,0.0,0.0,0.0,0.0,0.0,0.0,0.0,0.0,0.0,0.0,0.0,0.0,0.0,0.0,0.0,0.0,0.0,0.0,0.0,0.0,0.0,0.0,0.0,0.0,0.0,0.0,0.0,0.0,-1.1402,-1.1406,-1.2069,-1.3354,-1.244,-1.1974,0.0,0.0,0.0,0.0,0.0,0.0,0.0,0.0,0.0,0.0,0.0,0.0,0.0,0.0,0.0,0.0,0.0,0.0,0.0,0.0,0.0,0.0,0.0,0.0,0.0,0.0,0.0,0.0,0.0,0.0,0.0,0.0,0.0,0.0,0.0,0.0,0.0,0.0,0.0,0.0,0.0,0.0,0.0,0.0,0.0,0.0,0.0,0.0,0.0,0.0,0.0,0.0,0.0,0.0,0.0,0.0,0.0,0.0,0.0,0.0,0.0,0.0,0.0,0.0,0.0,0.0,0.0,0.0,0.0,0.0,0.0,0.0,0.0,0.0,0.0,0.0,0.0,0.0,0.0,0.0,0.0,0.0,0.0,0.0,0.0,0.0,0.0,0.0,0.0,0.0,0.0,0.0,0.0,0.0,0.0,0.0,0.0,0.0,0.0,0.0,0.0,0.0,0.0,0.0,0.0,0.0,0.0,0.0,0.0,-1.0929,0.0,-1.2666,0.0,-1.243,-1.1873,0.0,0.0,0.0,0.0,0.0,0.0,0.0,0.0,0.0,0.0,0.0,0.0,0.0,0.0,0.0,0.0,0.0,0.0,0.0,0.0,0.0,0.0,0.0,0.0,0.0,0.0,0.0,0.0,0.0,0.0,0.0,0.0,0.0,0.0,0.0,0.0,0.0,0.0,0.0,0.0,0.0,0.0,0.0,0.0,0.0,0.0,0.0,0.0,0.0,0.0,0.0,0.0,0.0,0.0,0.0,0.0,0.0,0.0,0.0,0.0,0.0,0.0,0.0,0.0,0.0,0.0,0.0,0.0,0.0,0.0,0.0,0.0,0.0,0.0,0.0,0.0,0.0,0.0,0.0,0.0,0.0,0.0,0.0,0.0,0.0,0.0,0.0,0.0,0.0,0.0,0.0,0.0,0.0,0.0,0.0,0.0,0.0,0.0,0.0,0.0,0.0,0.0,0.0,0.0,0.0,0.0,0.0,0.0,-1.0953,-1.2588,-1.345,-1.3518,-1.2793,-1.2757,-1.1954,0.0,0.0,0.0,0.0,0.0,0.0,0.0,0.0,0.0,0.0,0.0,0.0,0.0,0.0,0.0,0.0,0.0,0.0,0.0,0.0,0.0,0.0,0.0,0.0,0.0,0.0,0.0,0.0,0.0,0.0,0.0,0.0,0.0,0.0,0.0,0.0,0.0,0.0,0.0,0.0,0.0,0.0,0.0,0.0,0.0,0.0,0.0,0.0,0.0,0.0,0.0,0.0,0.0,0.0,0.0,0.0,0.0,0.0,0.0,0.0,0.0,0.0,0.0,0.0,0.0,0.0,0.0,0.0,0.0,0.0,0.0,0.0,0.0,0.0,0.0,0.0,0.0,0.0,0.0,0.0,0.0,0.0,0.0,0.0,0.0,0.0,0.0,0.0,0.0,0.0,0.0,0.0,0.0,0.0,0.0,0.0,0.0,0.0,0.0,0.0,0.0,0.0,0.0,0.0,0.0,0.0,0.0,0.0,0.0,-1.1885,-1.2729,-1.3584,-1.4385,-1.2818,-1.2213,0.0,0.0,0.0,0.0,0.0,0.0,0.0,0.0,0.0,0.0,0.0,0.0,0.0,0.0,0.0,0.0,0.0,0.0,0.0,0.0,0.0,0.0,0.0,0.0,0.0,0.0,0.0,0.0,0.0,0.0,0.0,0.0,0.0,0.0,0.0,0.0,0.0,0.0,0.0,0.0,0.0,0.0,0.0,0.0,0.0,0.0,0.0,0.0,0.0,0.0,0.0,0.0,0.0,0.0,0.0,0.0,0.0,0.0,0.0,0.0,0.0,0.0,0.0,0.0,0.0,0.0,0.0,0.0,0.0,0.0,0.0,0.0,0.0,0.0,0.0,0.0,0.0,0.0,0.0,0.0,0.0,0.0,0.0,0.0,0.0,0.0,0.0,0.0,0.0,0.0,0.0,0.0,0.0,0.0,0.0,0.0,0.0,0.0,0.0,0.0,0.0,0.0,0.0,0.0,0.0,0.0,0.0,0.0,0.0,-1.3928,-1.4451,-1.5079,-1.5799,-1.3939,-1.3011,-1.3083,0.0,0.0,0.0,0.0,0.0,0.0,0.0,0.0,0.0,0.0,0.0,0.0,0.0,0.0,0.0,0.0,0.0,0.0,0.0,0.0,0.0,0.0,0.0,0.0,0.0,0.0,0.0,0.0,0.0,0.0,0.0,0.0,0.0,0.0,0.0,0.0,0.0,0.0,0.0,0.0,0.0,0.0,0.0,0.0,0.0,0.0,0.0,0.0,0.0,0.0,0.0,0.0,0.0,0.0,0.0,0.0,0.0,0.0,0.0,0.0,0.0,0.0,0.0,0.0,0.0,0.0,0.0,0.0,0.0,0.0,0.0,0.0,0.0,0.0,0.0,0.0,0.0,0.0,0.0,0.0,0.0,0.0,0.0,0.0,0.0,0.0,0.0,0.0,0.0,0.0,0.0,0.0,0.0,0.0,0.0,0.0,0.0,0.0,0.0,0.0,0.0,0.0,0.0,0.0,0.0,0.0,0.0,0.0,-1.8045,-1.8312,-1.8027,-1.7129,-1.6055,-1.4314,0.0,0.0,0.0,0.0,0.0,0.0,0.0,0.0,0.0,0.0,0.0,0.0,0.0,0.0,0.0,0.0,0.0,0.0,0.0,0.0,0.0,0.0,0.0,0.0,0.0,0.0,0.0,0.0,0.0,0.0,0.0,0.0,0.0,0.0,0.0,0.0,0.0,0.0,0.0,0.0,0.0,0.0,0.0,0.0,0.0,0.0,0.0,0.0,0.0,0.0,0.0,0.0,0.0,0.0,0.0,0.0,0.0,0.0,0.0,0.0,0.0,0.0,0.0,0.0,0.0,0.0,0.0,0.0,0.0,0.0,0.0,0.0,0.0,0.0,0.0,0.0,0.0,0.0,0.0,0.0,0.0,0.0,0.0,0.0,0.0,0.0,0.0,0.0,0.0,0.0,0.0,0.0,0.0,0.0,0.0,0.0,0.0,0.0,0.0,0.0,0.0,0.0,0.0,0.0,0.0,0.0,0.0,0.0,0.0,-1.8979,-2.205,-2.2988,-2.1484,-1.8164,-1.6054,0.0,0.0,0.0,0.0,0.0,0.0,0.0,0.0,0.0,0.0,0.0,0.0,0.0,0.0,0.0,0.0,0.0,0.0,0.0,0.0,0.0,0.0,0.0,0.0,0.0,0.0,0.0,0.0,0.0,0.0,0.0,0.0,0.0,0.0,0.0,0.0,0.0,0.0,0.0,0.0,0.0,0.0,0.0,0.0,0.0,0.0,0.0,0.0,0.0,0.0,0.0,0.0,0.0,0.0,0.0,0.0,0.0,0.0,0.0,0.0,0.0,0.0,0.0,0.0,0.0,0.0,0.0,0.0,0.0,0.0,0.0,0.0,0.0,0.0,0.0,0.0,0.0,0.0,0.0,0.0,0.0,0.0,0.0,0.0,0.0,0.0,0.0,0.0,0.0,0.0,0.0,0.0,0.0,0.0,0.0,0.0,0.0,0.0,0.0,0.0,0.0,0.0,0.0,0.0,0.0,0.0,0.0,0.0,-1.8984,-2.1426,-2.5312,-2.6894,-2.5918,-2.1699,-1.8379,0.0,0.0,0.0,0.0,0.0,0.0,0.0,0.0,0.0,0.0,0.0,0.0,0.0,0.0,0.0,0.0,0.0,0.0,0.0,0.0,0.0,0.0,0.0,0.0,0.0,0.0,0.0,0.0,0.0,0.0,0.0,0.0,0.0,0.0,0.0,0.0,0.0,0.0,0.0,0.0,0.0,0.0,0.0,0.0,0.0,0.0,0.0,0.0,0.0,0.0,0.0,0.0,0.0,0.0,0.0,0.0,0.0,0.0,0.0,0.0,0.0,0.0,0.0,0.0,0.0,0.0,0.0,0.0,0.0,0.0,0.0,0.0,0.0,0.0,0.0,0.0,0.0,0.0,0.0,0.0,0.0,0.0,0.0,0.0,0.0,0.0,0.0,0.0,0.0,0.0,0.0,0.0,0.0,0.0,0.0,0.0,0.0,0.0,0.0,0.0,0.0,0.0,0.0,0.0,0.0,0.0,0.0,0.0,-2.1133,-2.4336,-2.791,-2.9687,-2.9473,-2.5449,-2.0879,0.0,0.0,0.0,0.0,0.0,0.0,0.0,0.0,0.0,0.0,0.0,0.0,0.0,0.0,0.0,0.0,0.0,0.0,0.0,0.0,0.0,0.0,0.0,0.0,0.0,0.0,0.0,0.0,0.0,0.0,0.0,0.0,0.0,0.0,0.0,0.0,0.0,0.0,0.0,0.0,0.0,0.0,0.0,0.0,0.0,0.0,0.0,0.0,0.0,0.0,0.0,0.0,0.0,0.0,0.0,0.0,0.0,0.0,0.0,0.0,0.0,0.0,0.0,0.0,0.0,0.0,0.0,0.0,0.0,0.0,0.0,0.0,0.0,0.0,0.0,0.0,0.0,0.0,0.0,0.0,0.0,0.0,0.0,0.0,0.0,0.0,0.0,0.0,0.0,0.0,0.0,0.0,0.0,0.0,0.0,0.0,0.0,0.0,0.0,0.0,0.0,0.0,0.0,0.0,0.0,0.0,0.0,0.0,-2.2344,-2.4394,-2.8476,-3.0293,-2.959,-2.5449,-2.1714,0.0,0.0,0.0,0.0,0.0,0.0,0.0,0.0,0.0,0.0,0.0,0.0,0.0,0.0,0.0,0.0,0.0,0.0,0.0,0.0,0.0,0.0,0.0,0.0,0.0,0.0,0.0,0.0,0.0,0.0,0.0,0.0,0.0,0.0,0.0,0.0,0.0,0.0,0.0,0.0,0.0,0.0,0.0,0.0,0.0,0.0,0.0,0.0,-0.9675,0.0,0.0,0.0,0.0,0.0,0.0,0.0,0.0,0.0,0.0,0.0,0.0,0.0,0.0,0.0,0.0,0.0,0.0,0.0,0.0,0.0,0.0,0.0,0.0,0.0,0.0,0.0,0.0,0.0,0.0,0.0,0.0,0.0,0.0,0.0,0.0,0.0,0.0,0.0,0.0,0.0,0.0,0.0,0.0,0.0,0.0,0.0,0.0,0.0,0.0,0.0,0.0,0.0,0.0,0.0,0.0,0.0,0.0,0.0,-2.3639,-2.6103,-2.9171,-3.0554,-2.998,-2.671,-2.313,0.0,0.0,0.0,0.0,0.0,0.0,0.0,0.0,0.0,0.0,0.0,0.0,0.0,0.0,0.0,0.0,0.0,0.0,0.0,0.0,0.0,0.0,0.0,0.0,0.0,0.0,0.0,0.0,0.0,0.0,0.0,0.0,0.0,0.0,0.0,0.0,0.0,0.0,0.0,0.0,0.0,0.0,0.0,0.0,0.0,0.0,0.0,0.0,0.0,0.0,0.0,0.0,0.0,0.0,0.0,0.0,0.0,0.0,0.0,0.0,0.0,0.0,0.0,0.0,0.0,0.0,0.0,0.0,0.0,0.0,0.0,0.0,0.0,0.0,0.0,0.0,0.0,0.0,0.0,0.0,0.0,0.0,0.0,0.0,0.0,0.0,0.0,0.0,0.0,0.0,0.0,0.0,0.0,0.0,0.0,0.0,0.0,0.0,0.0,0.0,0.0,0.0,0.0,0.0,0.0,0.0,0.0,-2.1301,-2.4587,-2.8152,-2.9797,-3.0608,-3.0574,-2.8115,-2.4496,-1.9701,0.0,0.0,0.0,0.0,0.0,0.0,0.0,0.0,0.0,0.0,0.0,0.0,0.0,0.0,0.0,0.0,0.0,0.0,0.0,0.0,0.0,0.0,0.0,0.0,0.0,0.0,0.0,0.0,0.0,0.0,0.0,0.0,0.0,0.0,0.0,0.0,0.0,0.0,-0.9725,-1.0293,0.0,0.0,0.0,0.0,0.0,0.0,0.0,0.0,-1.0227,0.0,0.0,0.0,0.0,0.0,0.0,0.0,0.0,0.0,0.0,0.0,0.0,0.0,0.0,0.0,0.0,0.0,0.0,0.0,0.0,0.0,0.0,0.0,0.0,0.0,0.0,0.0,0.0,0.0,0.0,0.0,0.0,0.0,0.0,0.0,0.0,0.0,0.0,0.0,0.0,0.0,0.0,0.0,0.0,0.0,0.0,0.0,0.0,0.0,0.0,0.0,0.0,0.0,0.0,0.0,0.0,-2.0976,-2.1644,-2.4249,-2.897,-3.0081,-3.0614,-3.053,-2.8077,-2.4679,-2.0418,0.0,0.0,0.0,0.0,0.0,0.0,0.0,0.0,0.0,0.0,0.0,0.0,0.0,0.0,0.0,0.0,0.0,0.0,0.0,0.0,0.0,0.0,0.0,0.0,0.0,0.0,0.0,0.0,0.0,0.0,0.0,0.0,0.0,0.0,0.0,0.0,0.0,0.0,0.0,-1.3312,-1.3904,0.0,0.0,0.0,0.0,0.0,0.0,0.0,0.0,-1.1132,0.0,0.0,0.0,0.0,0.0,0.0,0.0,0.0,0.0,0.0,0.0,0.0,0.0,0.0,0.0,0.0,0.0,0.0,0.0,0.0,0.0,0.0,0.0,0.0,0.0,0.0,0.0,0.0,0.0,0.0,0.0,0.0,0.0,0.0,0.0,0.0,0.0,0.0,0.0,0.0,0.0,0.0,0.0,0.0,0.0,0.0,0.0,0.0,0.0,0.0,0.0,0.0,0.0,0.0,0.0,-2.0811,-2.3139,-2.6071,-2.9713,-3.0283,-3.0506,-3.0448,-2.7169,-2.3769,0.0,0.0,0.0,0.0,0.0,0.0,0.0,0.0,0.0,0.0,0.0,0.0,0.0,0.0,0.0,0.0,0.0,0.0,0.0,0.0,0.0,0.0,0.0,0.0,0.0,0.0,0.0,0.0,0.0,0.0,0.0,0.0,0.0,0.0,0.0,0.0,0.0,0.0,0.0,0.0,-1.4275,-1.5052,-1.6576,0.0,0.0,0.0,0.0,0.0,0.0,-1.3205,-1.1963,0.0,0.0,0.0,0.0,0.0,0.0,0.0,0.0,0.0,0.0,0.0,0.0,0.0,0.0,0.0,0.0,0.0,0.0,0.0,0.0,0.0,0.0,0.0,0.0,0.0,0.0,0.0,0.0,0.0,0.0,0.0,0.0,0.0,0.0,0.0,0.0,0.0,0.0,0.0,0.0,0.0,0.0,0.0,0.0,0.0,0.0,0.0,0.0,0.0,0.0,0.0,0.0,0.0,0.0,0.0,-2.0312,-2.412,-2.7505,-3.0225,-3.0398,-3.0398,-3.0321,-2.6447,-2.3083,0.0,0.0,0.0,0.0,0.0,0.0,0.0,0.0,0.0,0.0,0.0,0.0,0.0,0.0,0.0,0.0,0.0,0.0,0.0,0.0,0.0,0.0,0.0,0.0,0.0,0.0,0.0,0.0,0.0,0.0,0.0,0.0,0.0,0.0,0.0,0.0,0.0,0.0,0.0,0.0,0.0,-1.6403,-1.8555,-1.674,0.0,0.0,0.0,0.0,-1.5676,-1.4743,0.0,0.0,0.0,0.0,0.0,0.0,0.0,0.0,0.0,0.0,0.0,0.0,0.0,0.0,0.0,0.0,0.0,0.0,0.0,0.0,0.0,0.0,0.0,0.0,0.0,0.0,0.0,0.0,0.0,0.0,0.0,0.0,0.0,0.0,0.0,0.0,0.0,0.0,0.0,0.0,0.0,0.0,0.0,0.0,0.0,0.0,0.0,0.0,0.0,0.0,0.0,0.0,0.0,0.0,0.0,0.0,-2.0208,-2.2985,-2.6332,-3.0148,-3.0398,-3.0398,-3.034,-2.6995,-2.3647,0.0,0.0,0.0,0.0,0.0,0.0,0.0,0.0,0.0,0.0,0.0,0.0,0.0,0.0,0.0,0.0,0.0,0.0,0.0,0.0,0.0,0.0,0.0,0.0,0.0,0.0,0.0,0.0,0.0,0.0,0.0,0.0,0.0,0.0,0.0,0.0,0.0,0.0,0.0,0.0,0.0,-1.9266,-1.8944,-1.8589,-1.831,0.0,0.0,-1.881,-1.9313,-1.8749,0.0,0.0,0.0,0.0,0.0,0.0,0.0,0.0,0.0,0.0,0.0,0.0,0.0,0.0,0.0,0.0,0.0,0.0,0.0,0.0,0.0,0.0,0.0,0.0,0.0,0.0,0.0,0.0,0.0,0.0,0.0,0.0,0.0,0.0,0.0,0.0,0.0,0.0,0.0,0.0,0.0,0.0,0.0,0.0,0.0,0.0,0.0,0.0,0.0,0.0,0.0,0.0,0.0,0.0,0.0,-1.7465,-2.0331,-2.4235,-2.7601,-3.0263,-3.0398,-3.0167,-2.9663,-2.5899,-2.2524,0.0,0.0,0.0,0.0,0.0,0.0,0.0,0.0,0.0,0.0,0.0,0.0,0.0,0.0,0.0,0.0,0.0,0.0,0.0,0.0,0.0,0.0,0.0,0.0,0.0,0.0,0.0,0.0,0.0,0.0,0.0,0.0,0.0,0.0,0.0,0.0,0.0,0.0,0.0,0.0,0.0,0.0,-2.0686,-2.0467,0.0,0.0,0.0,-2.0199,-1.934,0.0,0.0,0.0,0.0,0.0,0.0,0.0,0.0,0.0,0.0,0.0,0.0,0.0,0.0,0.0,0.0,0.0,0.0,0.0,0.0,0.0,0.0,0.0,0.0,0.0,0.0,0.0,0.0,0.0,0.0,0.0,0.0,0.0,0.0,0.0,0.0,0.0,0.0,0.0,0.0,0.0,0.0,0.0,0.0,0.0,0.0,0.0,0.0,0.0,0.0,0.0,0.0,0.0,0.0,0.0,0.0,0.0,-2.0342,-2.5313,-2.8717,-3.0333,-3.0398,-2.9963,-2.9075,-2.563,0.0,0.0,0.0,0.0,0.0,0.0,0.0,0.0,0.0,0.0,0.0,0.0,0.0,0.0,0.0,0.0,0.0,0.0,0.0,0.0,0.0,0.0,0.0,0.0,0.0,0.0,0.0,-0.673,0.0,0.0,0.0,0.0,0.0,0.0,0.0,0.0,0.0,0.0,0.0,0.0,0.0,0.0,-2.0713,-2.2361,-2.2243,-2.2236,0.0,0.0,-2.1357,-2.0213,-2.0609,-1.963,0.0,0.0,0.0,0.0,0.0,0.0,0.0,0.0,0.0,0.0,0.0,0.0,0.0,0.0,0.0,0.0,0.0,0.0,0.0,0.0,0.0,0.0,0.0,0.0,0.0,0.0,0.0,0.0,0.0,0.0,0.0,0.0,0.0,0.0,0.0,0.0,0.0,0.0,0.0,0.0,0.0,0.0,0.0,0.0,0.0,0.0,0.0,0.0,0.0,0.0,0.0,0.0,0.0,0.0,-1.8561,-2.0408,-2.5313,-2.8717,-3.0321,-3.0398,-2.9982,-2.9113,-2.7311,-2.4021,0.0,0.0,0.0,0.0,0.0,0.0,0.0,0.0,0.0,0.0,0.0,0.0,0.0,0.0,0.0,0.0,0.0,0.0,0.0,0.0,0.0,0.0,0.0,0.0,0.0,0.0,0.0,0.0,0.0,0.0,0.0,0.0,0.0,0.0,0.0,0.0,0.0,0.0,0.0,0.0,0.0,-2.3419,-2.3321,-2.3866,-2.4792,0.0,-2.4374,-2.2996,-2.3782,-2.4091,-2.2617,-1.7812,0.0,0.0,0.0,0.0,0.0,0.0,0.0,0.0,0.0,0.0,0.0,0.0,0.0,0.0,0.0,0.0,0.0,0.0,0.0,0.0,0.0,0.0,0.0,0.0,0.0,0.0,0.0,0.0,0.0,0.0,0.0,0.0,0.0,0.0,0.0,0.0,0.0,0.0,0.0,0.0,0.0,0.0,0.0,0.0,0.0,0.0,0.0,0.0,0.0,0.0,0.0,0.0,0.0,-1.8561,-2.0331,-2.5313,-2.8717,-3.0302,-3.0398,-2.9963,-2.9113,-2.7465,-2.4456,0.0,0.0,0.0,0.0,0.0,0.0,0.0,0.0,0.0,0.0,0.0,0.0,0.0,0.0,0.0,0.0,0.0,0.0,0.0,0.0,0.0,0.0,0.0,0.0,0.0,0.0,0.0,0.0,-1.3747,-1.4659,-1.5514,0.0,0.0,0.0,0.0,0.0,0.0,0.0,0.0,0.0,0.0,-2.4173,-2.5862,-2.637,0.0,0.0,-2.6498,-2.5637,-2.4426,-2.4098,-2.26,-1.8611,-1.6817,0.0,0.0,0.0,0.0,0.0,0.0,0.0,0.0,0.0,0.0,0.0,0.0,0.0,0.0,0.0,0.0,0.0,0.0,0.0,0.0,0.0,0.0,0.0,0.0,0.0,0.0,0.0,0.0,0.0,0.0,0.0,0.0,0.0,0.0,0.0,0.0,0.0,0.0,0.0,0.0,0.0,0.0,0.0,0.0,0.0,0.0,0.0,0.0,0.0,0.0,0.0,0.0,-1.8677,-2.0658,-2.5447,-2.8717,-3.0359,-3.0398,-2.9982,-2.9094,-2.7725,-2.5111,0.0,0.0,0.0,0.0,0.0,0.0,0.0,0.0,0.0,0.0,0.0,0.0,0.0,0.0,0.0,0.0,0.0,0.0,0.0,0.0,0.0,0.0,0.0,0.0,0.0,0.0,0.0,0.0,-1.4766,-1.4807,-1.3448,0.0,0.0,0.0,0.0,0.0,0.0,0.0,0.0,0.0,0.0,-2.5229,-2.719,-2.74,-2.7233,-2.6981,-2.6842,-2.6134,-2.4393,-2.3784,-2.245,-1.935,0.0,0.0,0.0,0.0,0.0,0.0,0.0,0.0,0.0,0.0,0.0,0.0,0.0,0.0,0.0,0.0,0.0,0.0,0.0,0.0,0.0,0.0,0.0,0.0,0.0,0.0,0.0,-1.0234,0.0,0.0,-1.0332,0.0,0.0,0.0,0.0,0.0,0.0,0.0,0.0,0.0,0.0,0.0,0.0,0.0,0.0,0.0,0.0,0.0,0.0,0.0,0.0,0.0,0.0,-1.8965,-2.1466,-2.5736,-2.8717,-3.034,-3.0398,-3.0002,-2.9133,-2.8321,-2.6254,-2.2796,0.0,0.0,0.0,0.0,0.0,0.0,0.0,0.0,0.0,0.0,0.0,0.0,0.0,0.0,0.0,0.0,0.0,0.0,0.0,0.0,0.0,0.0,0.0,0.0,0.0,0.0,-1.0268,-1.2689,-1.4229,0.0,0.0,0.0,0.0,0.0,0.0,0.0,0.0,0.0,-2.0984,-2.4595,-2.6923,-2.6763,-2.6469,-2.6344,-2.6387,-2.4928,-2.3826,-2.3952,-2.3599,-2.2532,0.0,0.0,0.0,0.0,0.0,0.0,0.0,0.0,0.0,0.0,0.0,0.0,0.0,0.0,0.0,0.0,0.0,0.0,0.0,0.0,0.0,0.0,0.0,0.0,0.0,0.0,0.0,-1.4087,-1.3545,0.0,0.0,0.0,0.0,0.0,0.0,0.0,0.0,0.0,0.0,0.0,-2.2305,-2.3689,0.0,0.0,0.0,0.0,0.0,0.0,0.0,0.0,0.0,0.0,0.0,0.0,-1.9573,-2.162,-2.6304,-2.9275,-3.0359,-3.0398,-3.0263,-2.9963,-2.914,-2.6851,-2.292,0.0,0.0,0.0,0.0,0.0,0.0,0.0,0.0,0.0,0.0,0.0,0.0,0.0,0.0,0.0,0.0,0.0,0.0,0.0,0.0,0.0,0.0,0.0,0.0,0.0,-1.2968,0.0,0.0,0.0,0.0,0.0,0.0,0.0,0.0,0.0,0.0,0.0,-2.106,-2.3279,-2.4998,-2.6349,-2.7254,-2.7073,-2.723,0.0,0.0,0.0,0.0,0.0,0.0,0.0,0.0,0.0,0.0,0.0,0.0,0.0,0.0,-1.7918,-1.3973,-1.3815,-1.4139,-1.3648,0.0,0.0,0.0,0.0,0.0,0.0,0.0,0.0,0.0,0.0,0.0,0.0,0.0,0.0,-1.813,-1.7776,-1.6405,0.0,0.0,0.0,0.0,0.0,0.0,0.0,0.0,-2.4102,-2.6152,-2.6699,-2.8086,-2.7728,-2.5862,-2.5818,-2.2851,0.0,0.0,0.0,0.0,0.0,0.0,0.0,0.0,-2.025,-2.1849,-2.6708,-2.9652,-3.0429,-3.0467,-3.0436,-3.0398,-2.9571,-2.7533,-2.4235,-2.1686,-1.8367,0.0,0.0,0.0,0.0,0.0,0.0,0.0,0.0,0.0,0.0,0.0,0.0,0.0,0.0,0.0,0.0,0.0,0.0,0.0,0.0,0.0,0.0,0.0,-1.3641,0.0,0.0,0.0,0.0,0.0,0.0,0.0,0.0,0.0,-1.8192,-2.0569,-2.3166,-2.5475,-2.6093,-2.6562,-2.7219,0.0,0.0,0.0,0.0,0.0,0.0,0.0,-2.347,-2.2944,-2.2932,-2.3165,-2.3703,-2.4335,-2.4597,-2.3983,0.0,0.0,-1.7811,-1.742,-1.7738,-1.7253,-1.7947,-1.8479,-1.8044,-1.8895,-1.9407,0.0,0.0,0.0,0.0,-1.9516,0.0,0.0,0.0,-2.1924,-2.2329,0.0,-2.0433,0.0,0.0,0.0,0.0,-1.8496,-2.3223,0.0,0.0,-3.0488,-3.2519,-3.1152,-3.1934,-3.1875,-3.1055,-3.0945,-2.9199,-2.5765,-2.1689,0.0,0.0,0.0,0.0,0.0,0.0,-2.1133,-2.2474,-2.7141,-2.9927,-3.0606,-3.0606,-3.0537,-3.0467,-2.9586,-2.8338,-2.6687,-2.4235,-2.2466,-2.1466,-1.6086,0.0,0.0,0.0,0.0,0.0,0.0,0.0,0.0,0.0,0.0,0.0,0.0,0.0,0.0,0.0,0.0,0.0,0.0,0.0,0.0,-1.3429,0.0,0.0,0.0,0.0,0.0,0.0,0.0,0.0,0.0,-2.1602,-2.0924,-2.2813,-2.5144,-2.7457,0.0,0.0,0.0,0.0,-2.6251,-2.4794,-2.454,-2.4628,-2.4777,-2.4946,-2.5556,-2.6891,0.0,0.0,-2.8773,-2.7699,-2.6698,-2.6014,-2.6932,-2.6564,-2.2989,-2.1857,-2.149,-2.14,-2.1893,-2.2301,-2.2428,-2.3041,-2.3602,-3.0382,0.0,0.0,0.0,0.0,-2.6734,-2.7757,-2.9563,-2.8376,-2.7656,-2.7178,-2.5284,0.0,0.0,0.0,0.0,0.0,0.0,-2.8317,-3.0047,-3.2976,-3.4375,-3.457,-3.543,-3.5059,-3.3633,-3.3612,-3.2771,-3.1171,-2.9372,-2.4766,-1.7665,0.0,0.0,0.0,0.0,-2.4912,-2.6503,-3.0217,-3.1972,-3.153,-3.1511,-3.1176,-3.0525,-2.9625,-2.8921,-2.8395,-2.6533,-2.4543,-2.2504,-2.0215,0.0,0.0,0.0,0.0,0.0,0.0,0.0,0.0,0.0,0.0,0.0,0.0,0.0,0.0,0.0,0.0,0.0,0.0,0.0,-1.4335,-1.5918,-1.6508,0.0,0.0,0.0,0.0,0.0,0.0,0.0,0.0,0.0,-2.5585,-2.5805,-2.6374,0.0,0.0,-2.6851,-2.6631,-2.668,-2.6922,-2.7483,-2.673,0.0,-2.8264,-2.7634,-2.7328,-2.8303,-2.9549,-3.0634,-3.1232,-3.1446,-3.1146,-3.0094,-3.0191,-2.9763,-2.7921,-2.6901,-2.6293,-2.5885,-2.5859,-2.5959,-2.5882,-2.5709,-2.545,-3.7277,-3.4386,-3.1449,-3.0863,-3.1864,-3.1693,-3.2689,-3.4347,-3.3336,-3.2779,-3.2487,-3.0506,-2.9052,-2.8041,-2.6862,0.0,0.0,0.0,-3.2198,-3.4151,-3.5528,-3.6465,-3.7051,-3.7559,-3.7285,-3.6269,-3.5879,-3.5469,-3.4922,-3.3398,-2.9431,-2.3237,0.0,-2.1815,-2.1616,-2.5312,-2.7878,-2.9266,-3.1945,-3.3181,-3.2869,-3.2264,-3.1504,-3.0588,-2.9993,-2.9529,-2.9133,-2.8148,-2.6582,-2.4389,-2.2851,-2.0254,0.0,0.0,0.0,0.0,0.0,0.0,0.0,0.0,0.0,0.0,0.0,-1.0359,-0.9367,0.0,0.0,0.0,-1.597,-1.6933,-1.7662,-1.8794,0.0,0.0,0.0,0.0,0.0,0.0,0.0,-2.7319,-2.7556,-2.8088,-2.9225,-2.9259,-2.9437,-3.0087,-2.9494,-2.898,-2.898,0.0,-2.954,-3.0089,-2.953,-2.9539,-3.0888,-3.0434,-3.0165,-3.1026,-3.2138,-3.306,-3.3567,-3.3826,-3.3631,-3.2958,-3.2566,-3.2144,-3.1319,-3.0669,-2.975,-2.8626,-2.8536,-2.8662,-2.8584,-2.8389,-2.8093,-4.3044,-4.2538,-3.6807,-3.4615,-3.4967,-3.5764,-3.6485,-3.7076,-3.7037,-3.741,-3.7911,-3.5565,-3.4487,-3.4424,-3.2906,0.0,-3.3582,-3.5178,-3.6403,-3.7363,-3.8223,-3.8633,-3.8691,-3.8711,-3.8652,-3.8555,-3.7773,-3.7402,-3.7266,-3.498,-3.293,-3.1211,-2.9531,-2.8144,-2.7148,-2.8723,-3.0053,-3.0996,-3.2598,-3.3691,-3.4277,-3.2812,-3.161,-3.0764,-3.0586,-3.0098,-2.926,-2.9091,-2.8275,-2.6629,-2.4293,-2.2543,-2.1408,0.0,0.0,0.0,0.0,0.0,0.0,0.0,0.0,0.0,0.0,0.0,0.0,0.0,0.0,0.0,-1.9964,0.0,-2.2588,-2.2009,0.0,0.0,0.0,-1.7485,-1.5931,-2.4804,-3.1416,-3.2523,0.0,0.0,-3.2051,-3.2829,-3.3552,-3.4136,-3.333,-3.2706,-3.2706,-3.2984,-3.3128,-3.2329,-3.2599,-3.2859,-3.2976,-3.3125,-3.3511,-3.4278,-3.5165,-3.5408,-3.5414,-3.5031,-3.4719,-3.4495,-3.4071,-3.3601,-3.3582,-3.2914,-3.2091,-3.0303,-3.0218,-3.0582,-3.0597,-3.083,-3.0586,-4.249,-4.2598,-4.11,-4.0692,-4.0985,-4.1212,-4.1024,-4.0546,-3.9877,-3.9358,-3.8892,-3.7642,-3.7103,-3.7065,-3.6675,-3.7016,-3.7901,-3.8292,-3.905,-4.0039,-4.0273,-4.0098,-3.9609,-3.959,-3.9238,-3.8613,-3.8379,-3.8301,-3.8262,-3.7676,-3.6152,-3.3887,-3.3359,-3.1094,-2.7246,-2.9372,-3.0993,-3.1894,-3.2891,-3.3789,-3.4531,-3.3008,-3.1991,-3.1674,-3.0997,-3.0222,-2.9321,-2.8606,-2.778,-2.6702,-2.5427,-2.3716,-2.1581,-1.835,0.0,0.0,0.0,0.0,0.0,0.0,0.0,0.0,0.0,-1.4885,-1.1743,0.0,-1.7311,0.0,-2.3415,-2.6143,-2.6346,-2.6237,0.0,0.0,-2.5029,-2.4114,-2.639,-3.2306,-3.631,-3.6577,-3.4813,-3.3818,-3.4549,-3.5155,-3.6049,-3.7276,-3.5202,-3.3513,-3.3532,-3.3866,-3.4081,-3.396,-3.4193,-3.4569,-3.5084,-3.5416,-3.563,-3.5939,-3.5752,-3.5622,-3.5639,-3.547,-3.5207,-3.4719,-3.4479,-3.4186,-3.3751,-3.3443,-3.3244,-3.2667,-3.1903,-3.1441,-3.1971,-3.136,-3.045,-4.3621,-4.3905,-4.3786,-4.3484,-4.3082,-4.3082,-4.2832,-4.2354,-4.1854,-4.1412,-4.0969,-4.0489,-4.0277,-4.0258,-4.0269,-4.0342,-4.0477,-4.0543,-4.0655,-4.0857,-4.0945,-4.0781,-4.0391,-4.0449,-4.0215,-3.9766,-3.9375,-3.918,-3.9141,-3.8789,-3.7871,-3.6465,-3.6445,-3.4609,-3.1152,-3.0957,-3.1152,-3.1621,-3.2793,-3.3828,-3.4629,-3.3418,-3.2363,-3.1523,-3.0644,-2.9554,-2.8288,-2.7749,-2.6872,-2.5608,-2.4706,-2.3572,-2.212,-1.9292,-1.726,0.0,0.0,0.0,0.0,0.0,0.0,0.0,0.0,0.0,0.0,0.0,-2.0365,-2.1732,-2.6098,-2.8708,-2.8361,-2.9029,-3.0117,-3.1712,-2.9875,-2.9889,-3.3402,-3.6953,-3.91,-3.9104,-3.758,-3.6631,-3.6939,-3.7448,-3.8024,-3.8783,-3.7208,-3.5991,-3.5981,-3.62,-3.6334,-3.6321,-3.6472,-3.6534,-3.6575,-3.6661,-3.6563,-3.6139,-3.5783,-3.5639,-3.5639,-3.5639,-3.5453,-3.5161,-3.5035,-3.4941,-3.4544,-3.4252,-3.4137,-3.4235,-3.3375,-3.2571,-3.2586,-3.1946,-3.1203,-4.5243,-4.5566,-4.5278,-4.4474,-4.3419,-4.3398,-4.3129,-4.2595,-4.2626,-4.2681,-4.2777,-4.3008,-4.3085,-4.3085,-4.3096,-4.2688,-4.1998,-4.2094,-4.169,-4.0896,-4.1058,-4.1089,-4.1016,-4.1133,-4.1191,-4.1172,-4.043,-4.0078,-4.0039,-3.9316,-3.8769,-3.8457,-3.8437,-3.75,-3.5625,-3.2695,-3.1113,-3.0937,-3.2559,-3.3769,-3.4492,-3.3476,-3.2207,-3.0781,-2.9726,-2.8418,-2.6836,-2.6695,-2.5861,-2.4229,-2.3552,-2.3188,-2.306,-2.0108,-1.8749,0.0,-1.8074,0.0,0.0,0.0,0.0,0.0,0.0,0.0,0.0,-2.3274,-2.4005,-2.4995,-2.8602,-3.0717,-3.0267,-3.1595,-3.3442,-3.5641,-3.4534,-3.481,-3.7935,-3.9629,-4.0492,-4.0492,-3.9854,-3.9282,-3.8995,-3.9361,-3.9462,-3.9293,-3.8987,-3.8743,-3.8927,-3.8707,-3.8475,-3.8707,-3.8707,-3.8154,-3.7542,-3.7342,-3.6981,-3.6097,-3.5827,-3.5667,-3.5622,-3.5639,-3.5577,-3.5577,-3.556,-3.5577,-3.5622,-3.5115,-3.4941,-3.5379,-3.4609,-3.37,-3.3093,-3.268,-3.213,-4.5033,-4.5586,-4.5509,-4.5355,-4.5124,-4.5117,-4.3192,-4.0015,-4.0015,-4.0396,-4.1085,-4.2489,-4.3085,-4.3085,-4.3102,-4.3006,-4.2852,-4.288,-4.2495,-4.1767,-4.1853,-4.1571,-4.1035,-4.1152,-4.1191,-4.1191,-4.1035,-4.0957,-4.0937,-4.0801,-3.9629,-3.7578,-3.7539,-3.6328,-3.3984,0.0,0.0,0.0,-3.2539,-3.3476,-3.3555,-3.1465,-3.0176,-2.9824,-2.8301,0.0,-2.5977,-2.5857,-2.5344,-2.4358,-2.4684,0.0,0.0,0.0,0.0,0.0,0.0,0.0,0.0,0.0,0.0,0.0,-2.4793,-2.487,-2.4821,-2.6677,-2.8563,-3.014,-3.2237,-3.4257,-3.6122,-3.6584,-3.7276,-3.8373,-3.7636,-3.7828,-3.9777,-4.0312,-4.0485,-4.0485,-4.0168,-3.9929,-3.9834,-3.9721,-3.9726,-3.9991,-4.0021,-4.0182,-4.0556,-3.9533,-3.8762,-3.8707,-3.8799,-3.8664,-3.8433,-3.8016,-3.7542,-3.702,-3.6539,-3.6139,-3.5739,-3.5622,-3.5622,-3.5622,-3.5639,-3.5639,-3.5639,-3.547,-3.5424,-3.5577,-3.5362,-3.5005,-3.4333,-3.3323,-3.2532,-4.4877,-4.5361,-4.5373,-4.4996,0.0,-4.4363,-4.2656,-4.0005,-4.1697,-4.2653,-4.3066,-4.3951,-4.4335,-4.4278,-4.3467,-4.2857,-4.2439,-4.1613,-4.1248,-4.1267,-4.1447,-4.1532,-4.1546,-4.1715,-4.1582,-4.1191,-4.1191,-4.1191,-4.1191,-4.1191,-4.0508,-3.9238,-3.9219,-3.8555,-3.7285,-3.6836,-3.5332,-3.2793,-3.3184,-3.3809,-3.457,-3.3008,-3.1914,-3.1445,-2.9824,0.0,0.0,0.0,0.0,0.0,0.0,0.0,0.0,0.0,0.0,-2.588,-2.5511,-2.5621,-2.6505,-2.7357,-2.8371,-2.961,-3.0506,-3.0275,-2.8591,-3.1314,-3.3391,-3.4122,-3.5353,-3.6776,-3.8411,-3.8657,-3.8984,-3.9738,-3.9508,-3.9623,-4.0335,-4.0489,-4.0489,-4.0489,-4.0372,-4.0304,-4.0285,-4.0023,-4.0031,-4.0453,-4.041,-4.0521,-4.0933,-4.0432,-3.99,-3.9863,-3.9496,-3.9182,-3.8879,-3.8316,-3.7755,-3.7285,-3.6981,-3.6706,-3.6422,-3.6165,-3.5985,-3.5985,-3.5783,-3.5639,-3.5639,-3.5639,-3.5639,-3.5639,-3.5639,-3.5532,-3.5098,-3.4037,-3.3002,-4.494,-4.5303,-4.5181,-4.4522,-4.3553,-4.3534,-4.2731,-4.1583,-4.4058,0.0,0.0,-4.547,-4.5586,-4.5507,-4.4141,-4.3143,-4.2384,-4.1025,-4.0699,-4.1178,-4.1418,-4.1822,-4.2315,-4.2368,-4.2051,-4.1426,-4.1269,-4.1191,-4.1191,-4.1191,-4.1191,-4.1191,-4.1191,-4.1191,-4.1152,-4.0332,-3.8496,-3.5703,-3.4316,-3.4258,-3.5469,-3.4551,-3.3691,-3.2969,-3.1484,-3.0,-2.8594,-2.7851,-2.7109,-2.6348,-2.5801,-2.6105,-2.7318,-2.6872,-2.7248,-2.8705,-2.9571,-3.041,-3.1243,-3.1966,-3.2947,-3.4353,-3.5089,-3.4666,-3.2699,-3.5411,-3.7194,-3.7142,-3.7815,-3.8584,-3.9411,-3.9523,-3.9773,-4.0431,-4.0489,-4.0469,-4.0489,-4.0489,-4.0489,-4.0489,-4.0489,-4.0489,-4.0489,-4.0302,-4.0366,-4.073,-4.0679,-4.0673,-4.1102,-4.1098,-4.0965,-4.091,-4.0432,-3.9955,-3.9506,-3.8842,-3.8149,-3.7987,-3.7609,-3.7339,-3.7312,-3.693,-3.658,-3.6539,-3.6097,-3.581,-3.5739,-3.5711,-3.5622,-3.5639,-3.5639,-3.5639,-3.5532,-3.4657,-3.3649,-4.5517,-4.6069,-4.54,-4.5149,-4.524,-4.5259,-4.5124,-4.4799,-4.3891,-4.3448,-4.3547,-4.497,-4.5586,-4.5586,-4.5353,-4.5175,-4.5047,-4.4819,-4.436,-4.3801,-4.3929,-4.3722,-4.3191,-4.2602,-4.2285,-4.2187,-4.1523,-4.1191,-4.1191,-4.1191,-4.1191,-4.1191,-4.1191,-4.1191,-4.1133,-4.0332,-3.9648,-3.9121,-3.6094,-3.4277,-3.3769,-3.2226,-3.1387,-3.123,-3.0371,-2.9687,-2.9434,-2.9316,-2.918,-2.9062,-2.959,-3.0019,-3.0215,-3.0653,-3.1394,-3.2309,-3.3137,-3.3935,-3.4691,-3.4903,-3.5051,-3.5295,-3.5441,-3.5614,-3.6007,-3.6719,-3.7695,-3.8757,-3.9027,-3.9431,-4.0215,-4.0296,-4.0331,-4.0485,-4.0489,-4.0489,-4.0489,-4.0489,-4.0489,-4.0489,-4.0489,-4.0489,-4.0489,-4.0457,-4.0628,-4.1072,-4.1146,-4.1325,-4.1608,-4.1427,-4.1144,-4.1111,-4.102,-4.0895,-4.0687,-4.0134,-3.9641,-3.9842,-3.8725,-3.808,-3.834,-3.776,-3.7326,-3.7167,-3.6766,-3.6385,-3.6318,-3.5915,-3.5745,-3.5673,-3.5723,-3.5707,-3.5678,-3.5024,-3.448,-4.6393,-4.6676,-4.6724,-4.6564,-4.6275,-4.5815,-4.5586,-4.5528,-4.4797,-4.447,-4.4528,-4.5259,-4.5586,-4.5509,-4.4643,-4.4256,-4.4196,-4.3273,-4.3142,-4.364,-4.3744,-4.3901,-4.4047,-4.3786,-4.3203,-4.2422,-4.2051,-4.1641,-4.123,-4.1191,-4.1191,-4.1191,-4.1191,-4.1191,-4.1172,-4.0801,-4.0351,-3.9863,-3.7402,-3.5918,-3.5508,-3.4297,-3.3672,-3.3652,-3.2812,-3.2363,-3.2363,-3.1914,-3.166,-3.166,-3.2012,-3.2402,-3.2851,-3.3165,-3.3716,-3.4457,-3.486,-3.5187,-3.5545,-3.593,-3.6142,-3.6142,-3.5753,-3.6272,-3.8046,-3.8676,-3.908,-3.9296,-3.9681,-4.0085,-4.045,-4.0489,-4.0489,-4.0489,-4.0489,-4.0489,-4.0489,-4.0489,-4.0489,-4.0489,-4.0489,-4.0489,-4.0489,-4.0489,-4.0715,-4.1207,-4.148,-4.1756,-4.1952,-4.1761,-4.1675,-4.1915,-4.1412,-4.126,-4.1558,-4.0806,-4.0375,-4.0641,-4.0136,-3.9758,-3.9805,-3.9302,-3.8921,-3.8813,-3.8167,-3.7428,-3.713,-3.6508,-3.6207,-3.626,-3.6248,-3.6248,-3.6202,-3.5984,-3.5424,-4.7194,-4.7332,-4.7783,-4.7664,-4.7101,-4.6256,-4.5892,-4.5873,-4.5699,-4.5586,-4.5586,-4.5586,-4.5586,-4.5451,-4.422,-4.3665,-4.3457,-4.2261,-4.2376,-4.3573,-4.3726,-4.4166,-4.4864,-4.4858,-4.4117,-4.2988,-4.2578,-4.207,-4.1504,-4.1308,-4.1191,-4.1191,-4.1191,-4.1191,-4.1191,-4.1191,-4.0859,-4.0137,-3.8672,-3.7773,-3.7559,-3.6738,-3.6289,-3.625,-3.543,-3.498,-3.4961,-3.4336,-3.3984,-3.3984,-3.3984,-3.4258,-3.4863,-3.4902,-3.5185,-3.5679,-3.5745,-3.5813,-3.5925,-3.643,-3.6853,-3.7046,-3.6445,-3.7017,-3.9153,-4.0202,-4.0376,-3.9826,-4.0181,-4.0508,-4.0508,-4.0489,-4.0489,-4.0489,-4.0489,-4.0489,-4.0489,-4.0489,-4.0489,-4.0489,-4.0489,-4.0489,-4.0489,-4.0489,-4.0655,-4.1036,-4.1423,-4.1632,-4.1651,-4.167,-4.1887,-4.2111,-4.163,-4.1499,-4.2192,-4.1433,-4.1026,-4.147,-4.1262,-4.1101,-4.1071,-4.083,-4.049,-4.0256,-3.9533,-3.8614,-3.7901,-3.7366,-3.6982,-3.6871,-3.6857,-3.7026,-3.7026,-3.7026,-3.6505,-4.7822,-4.8023,-4.7837,-4.7793,-4.789,-4.712,-4.6756,-4.666,-4.595,-4.5586,-4.5586,-4.5586,-4.5586,-4.5566,-4.5393,-4.5278,-4.5278,-4.5182,-4.5124,-4.5278,-4.5374,-4.549,-4.5582,-4.5032,-4.4665,-4.4355,-4.3125,-4.2402,-4.2187,-4.1543,-4.1191,-4.1191,-4.1191,-4.1191,-4.1191,-4.1191,-4.1152,-4.1055,-4.0156,-3.9277,-3.8476,-3.7637,-3.7187,-3.7168,-3.6328,-3.5879,-3.584,-3.5801,-3.5762,-3.5762,-3.5723,-3.5781,-3.584,-3.5879,-3.5859,-3.5859,-3.5898,-3.6143,-3.6781,-3.692,-3.7357,-3.806,-3.7926,-3.8291,-3.9528,-4.0544,-4.0983,-4.0684,-4.0654,-4.0696,-4.0527,-4.0546,-4.0639,-4.0735,-4.0566,-4.0489,-4.0489,-4.0489,-4.0489,-4.0489,-4.0489,-4.0489,-4.0489,-4.0489,-4.0527,-4.0633,-4.0758,-4.082,-4.0801,-4.0801,-4.092,-4.1409,-4.1594,-4.2025,-4.2414,-4.2047,-4.1913,-4.275,-4.2047,-4.1699,-4.1849,-4.1629,-4.1064,-4.1261,-4.0633,-3.9786,-3.8933,-3.8327,-3.8122,-3.7603,-3.7648,-3.7851,-3.7804,-3.7804,-3.734,-4.8848,-4.8985,-4.9281,-4.9194,-4.8779,-4.7952,-4.7336,-4.6872,-4.6546,-4.6086,-4.5624,-4.5586,-4.5586,-4.5586,-4.5586,-4.5586,-4.5586,-4.5586,-4.5586,-4.5586,-4.5586,-4.568,-4.5755,-4.5572,-4.522,-4.4746,-4.3672,-4.291,-4.2324,-4.1582,-4.1191,-4.1191,-4.1191,-4.1191,-4.1191,-4.1191,-4.1191,-4.1191,-4.0859,-4.0488,-4.0019,-3.8769,-3.7812,-3.7324,-3.6953,-3.6504,-3.6074,-3.6016,-3.6016,-3.6016,-3.6016,-3.6016,-3.6016,-3.6016,-3.5996,-3.5996,-3.6426,-3.7005,-3.779,-3.826,-3.8695,-3.9054,-3.9441,-3.9905,-4.0376,-4.0913,-4.1299,-4.159,-4.1556,-4.1501,-4.1459,-4.1424,-4.1559,-4.1832,-4.1197,-4.0508,-4.0511,-4.0508,-4.0489,-4.0489,-4.0489,-4.0508,-4.0489,-4.0489,-4.0489,-4.0489,-4.0489,-4.0489,-4.0489,-4.0489,-4.0592,-4.076,-4.1017,-4.1461,-4.2096,-4.2096,-4.2268,-4.2743,-4.2805,-4.2727,-4.2763,-4.28,-4.2525,-4.247,-4.1878,-4.1197,-4.047,-3.9848,-3.9443,-3.8996,-3.8773,-3.8939,-3.8628,-3.8548,-3.8362,-4.9504,-4.9617,-5.0358,-5.0356,-4.9683,-4.8837,-4.8126,-4.7585,-4.7336,-4.6759,-4.599,-4.5951,-4.5817,-4.5605,-4.5586,-4.5586,-4.5586,-4.5586,-4.5586,-4.5586,-4.5586,-4.5661,-4.5757,-4.5853,-4.5634,-4.507,-4.4394,-4.3476,-4.2441,-4.1582,-4.1191,-4.1191,-4.1191,-4.1191,-4.1191,-4.1191,-4.1191,-4.1191,-4.1191,-4.1191,-4.1016,-3.9961,-3.8887,-3.8086,-3.7793,-3.7344,-3.6738,-3.6484,-3.6348,-3.6367,-3.6133,-3.6113,-3.6328,-3.6348,-3.6465,-3.6719,-3.7246,-3.7949,-3.875,-3.9351,-3.978,-4.0053,-4.0608,-4.096,-4.1108,-4.144,-4.1841,-4.2227,-4.2665,-4.2854,-4.2479,-4.2408,-4.2637,-4.3088,-4.2002,-4.1162,-4.0608,-4.0854,-4.1155,-4.0658,-4.0793,-4.0773,-4.0566,-4.0489,-4.0489,-4.0489,-4.0489,-4.0489,-4.0489,-4.0489,-4.0508,-4.0489,-4.0508,-4.0861,-4.1635,-4.1908,-4.2205,-4.2694,-4.3065,-4.3332,-4.3479,-4.3461,-4.3461,-4.2965,-4.2782,-4.228,-4.136,-4.087,-4.0811,-4.0859,-4.0629,-4.0099,-3.9709,-3.9662,-3.9662,-4.9504,-4.9617,-5.0377,-5.0664,-5.0548,-4.9721,-4.9317,-4.9067,-4.8394,-4.7586,-4.6855,-4.6778,-4.6374,-4.5605,-4.5586,-4.5586,-4.5586,-4.5586,-4.5586,-4.5586,-4.5586,-4.5586,-4.5624,-4.5796,-4.5877,-4.5714,-4.5098,-4.4043,-4.248,-4.1641,-4.1191,-4.123,-4.123,-4.1191,-4.1191,-4.1191,-4.1191,-4.1191,-4.1191,-4.1191,-4.1191,-4.1094,-4.0547,-3.9726,-3.8965,-3.8496,-3.834,-3.7676,-3.7246,-3.7246,-3.6543,-3.6426,-3.7129,-3.7246,-3.7598,-3.834,-3.8516,-3.8906,-3.9668,-3.9922,-4.0234,-4.0937,-4.1074,-4.1172,-4.123,-4.2082,-4.2587,-4.2475,-4.3808,-4.4297,-4.3615,-4.3416,-4.3413,-4.3548,-4.3358,-4.2402,-4.0885,-4.229,-4.2264,-4.1324,-4.1439,-4.1366,-4.0639,-4.0489,-4.0489,-4.0489,-4.0489,-4.0489,-4.0489,-4.0489,-4.0489,-4.0489,-4.0531,-4.0715,-4.1245,-4.1737,-4.2205,-4.264,-4.3045,-4.3479,-4.3479,-4.3479,-4.3479,-4.3479,-4.3332,-4.2882,-4.205,-4.1807,-4.1977,-4.1966,-4.1748,-4.1323,-4.0683,-4.1279,-4.12,-5.0043,-5.0291,-5.0584,-5.0683,-5.0664,-5.0375,-4.9913,-4.9394,-4.9086,-4.8163,-4.7067,-4.6913,-4.6413,-4.5586,-4.5586,-4.5586,-4.5586,-4.5586,-4.5586,-4.5586,-4.5586,-4.5586,-4.5624,-4.5796,-4.5902,-4.581,-4.5273,-4.4414,-4.3281,-4.2383,-4.1973,-4.1875,-4.1445,-4.1191,-4.1191,-4.1191,-4.1191,-4.1191,-4.1191,-4.1191,-4.1191,-4.1191,-4.1016,-4.0723,-3.9883,-3.916,-3.8613,-3.8281,-3.8125,-3.8144,-3.7832,-3.7793,-3.8086,-3.8125,-3.8516,-3.9316,-3.9414,-3.9824,-4.0586,-4.0723,-4.084,-4.1133,-4.1191,-4.1191,-4.1387,-4.2217,-4.299,-4.3379,-4.4258,-4.4902,-4.5156,-4.4748,-4.457,-4.4947,-4.4461,-4.404,-4.3943,-4.4062,-4.4033,-4.3923,-4.3111,-4.1578,-4.087,-4.0508,-4.0489,-4.0489,-4.0489,-4.0489,-4.0489,-4.0489,-4.0489,-4.0489,-4.0508,-4.0569,-4.0715,-4.1513,-4.2126,-4.2436,-4.2828,-4.3299,-4.3513,-4.3479,-4.3479,-4.3479,-4.3479,-4.3371,-4.2595,-4.2614,-4.2828,-4.2559,-4.2364,-4.2085,-4.1578,-4.1877,-4.181,-5.0336,-5.0663,-5.0683,-5.0683,-5.0683,-5.0683,-5.0375,-4.9836,-4.9798,-4.9029,-4.7855,-4.7432,-4.6817,-4.6067,-4.574,-4.5586,-4.5586,-4.5586,-4.5586,-4.5586,-4.5661,-4.568,-4.5699,-4.5873,-4.5963,-4.585,-4.5304,-4.4687,-4.4082,-4.3242,-4.2832,-4.2773,-4.2012,-4.1582,-4.1562,-4.1328,-4.1191,-4.1191,-4.1191,-4.1191,-4.1191,-4.1191,-4.1191,-4.1113,-4.0605,-4.0059,-3.9453,-3.918,-3.9023,-3.8984,-3.8769,-3.873,-3.8984,-3.9277,-3.9687,-4.0234,-4.0312,-4.0566,-4.1074,-4.1191,-4.1191,-4.1191,-4.1191,-4.1191,-4.1269,-4.2246,-4.3086,-4.375,-4.4805,-4.5723,-4.6016,-4.5723,-4.5605,-4.5996,-4.5483,-4.5265,-4.5877,-4.5376,-4.5304,-4.5202,-4.3765,-4.2193,-4.1212,-4.1024,-4.085,-4.0566,-4.0489,-4.0489,-4.0489,-4.0489,-4.0489,-4.0489,-4.0489,-4.0508,-4.077,-4.1472,-4.1968,-4.2295,-4.276,-4.3208,-4.3495,-4.3479,-4.3479,-4.3479,-4.3479,-4.3479,-4.3479,-4.3479,-4.3286,-4.2976,-4.2921,-4.2734,-4.2426,-4.2306,-4.2266,-5.0336,-5.0683,-5.0683,-5.0683,-5.0683,-5.0683,-5.0683,-5.0587,-5.0606,-5.001,-4.9029,-4.8432,-4.7663,-4.6874,-4.6105,-4.5663,-4.5719,-4.5661,-4.5586,-4.5605,-4.5719,-4.5776,-4.5796,-4.5962,-4.6086,-4.6076,-4.5387,-4.5058,-4.4961,-4.416,-4.3711,-4.3555,-4.2832,-4.2344,-4.2363,-4.166,-4.1269,-4.1211,-4.1191,-4.1191,-4.1191,-4.1191,-4.1191,-4.1191,-4.1113,-4.1055,-4.1035,-4.0312,-3.9902,-3.9824,-3.918,-3.9082,-3.9883,-4.0547,-4.1113,-4.1055,-4.1133,-4.1172,-4.1191,-4.1191,-4.1191,-4.1191,-4.1191,-4.125,-4.1504,-4.2344,-4.3223,-4.3965,-4.5215,-4.6269,-4.6269,-4.6211,-4.6191,-4.6289,-4.6113,-4.6133,-4.623,-4.6289,-4.5937,-4.5098,-4.3981,-4.3048,-4.2298,-4.1859,-4.1536,-4.0908,-4.0566,-4.0489,-4.0489,-4.0489,-4.0489,-4.0489,-4.0489,-4.0489,-4.0965,-4.1474,-4.1806,-4.217,-4.2717,-4.3206,-4.3431,-4.3479,-4.3479,-4.3479,-4.3479,-4.3479,-4.3479,-4.3479,-4.3479,-4.3286,-4.3321,-4.325,-4.3032,-4.2828,-4.2884,-5.0336,-5.0683,-5.0683,-5.0683,-5.0683,-5.0683,-5.0683,-5.0683,-5.0683,-5.0202,-4.9452,-4.9106,-4.8509,-4.7702,-4.6874,-4.6488,-4.6448,-4.5911,-4.5586,-4.5605,-4.5661,-4.5738,-4.5808,-4.5899,-4.6056,-4.6181,-4.6026,-4.5879,-4.5723,-4.5019,-4.4609,-4.4433,-4.373,-4.2988,-4.25,-4.2148,-4.1797,-4.125,-4.1191,-4.1191,-4.1191,-4.1191,-4.1191,-4.1191,-4.1191,-4.1191,-4.1191,-4.0937,-4.0801,-4.0762,-4.0547,-4.0508,-4.0781,-4.1035,-4.1191,-4.1191,-4.1191,-4.1191,-4.1191,-4.1191,-4.1191,-4.1191,-4.1191,-4.1504,-4.2031,-4.293,-4.3808,-4.4531,-4.5625,-4.6289,-4.6289,-4.6289,-4.6289,-4.6289,-4.6289,-4.6289,-4.6289,-4.6289,-4.5859,-4.5098,-4.4608,-4.3994,-4.3122,-4.2569,-4.2001,-4.1501,-4.0947,-4.0566,-4.0508,-4.0489,-4.0489,-4.0489,-4.0489,-4.0489,-4.0806,-4.1142,-4.1457,-4.187,-4.2434,-4.2981,-4.3245,-4.3398,-4.3401,-4.3479,-4.3479,-4.3479,-4.3479,-4.3479,-4.3479,-4.3479,-4.341,-4.3356,-4.3286,-4.325,-4.325,-5.0483,-5.0683,-5.0683,-5.0683,-5.0683,-5.0683,-5.0683,-5.0683,-5.0683,-5.0375,-4.9894,-4.9529,-4.9106,-4.8413,-4.7413,-4.6931,-4.6795,-4.6007,-4.5586,-4.5605,-4.5699,-4.5776,-4.5857,-4.5987,-4.6117,-4.625,-4.6289,-4.6289,-4.6269,-4.5781,-4.5488,-4.5332,-4.4609,-4.3945,-4.3301,-4.2695,-4.2109,-4.166,-4.1367,-4.1191,-4.1191,-4.1191,-4.1191,-4.1191,-4.1191,-4.1191,-4.1191,-4.1191,-4.1191,-4.1191,-4.1191,-4.1191,-4.1191,-4.1191,-4.1191,-4.1191,-4.1191,-4.1191,-4.1191,-4.1191,-4.1191,-4.1191,-4.1191,-4.1543,-4.2461,-4.3613,-4.4863,-4.5039,-4.5781,-4.6289,-4.6289,-4.6289,-4.6289,-4.6289,-4.6289,-4.6289,-4.6289,-4.6289,-4.6113,-4.5586,-4.541,-4.4922,-4.4104,-4.3552,-4.2714,-4.2174,-4.1463,-4.0793,-4.0677,-4.0489,-4.0489,-4.0489,-4.0489,-4.0508,-4.0527,-4.0787,-4.1104,-4.1569,-4.2082,-4.2594,-4.2971,-4.3106,-4.3153,-4.3401,-4.3479,-4.3479,-4.3479,-4.3479,-4.3479,-4.3479,-4.3479,-4.3444,-4.341,-4.341,-4.341,-5.0683,-5.0683,-5.0683,-5.0683,-5.0683,-5.0683,-5.0683,-5.0683,-5.0683,-5.0664,-5.0452,-4.9894,-4.9471,-4.9029,-4.774,-4.7046,-4.6756,-4.5988,-4.5586,-4.5661,-4.5776,-4.5871,-4.5911,-4.6137,-4.6269,-4.6289,-4.6289,-4.6289,-4.6289,-4.6211,-4.6289,-4.6094,-4.543,-4.5,-4.4551,-4.332,-4.2617,-4.2226,-4.166,-4.1348,-4.123,-4.1191,-4.1191,-4.1191,-4.1191,-4.1191,-4.1191,-4.1191,-4.1191,-4.1191,-4.1191,-4.1191,-4.1191,-4.1191,-4.1191,-4.1191,-4.1191,-4.1191,-4.1191,-4.1191,-4.1191,-4.1191,-4.123,-4.1601,-4.2656,-4.4394,-4.5547,-4.5293,-4.5879,-4.6289,-4.6289,-4.6289,-4.6289,-4.6289,-4.6289,-4.6289,-4.6289,-4.6289,-4.6211,-4.623,-4.623,-4.5976,-4.5039,-4.4805,-4.383,-4.2664,-4.202,-4.1424,-4.0773,-4.0489,-4.0489,-4.0489,-4.0489,-4.0489,-4.0508,-4.0662,-4.0943,-4.1051,-4.1546,-4.2011,-4.2623,-4.2821,-4.3087,-4.3302,-4.3479,-4.3479,-4.3479,-4.3479,-4.3479,-4.3479,-4.3479,-4.3479,-4.3479,-4.3479,-4.3479,-5.0683,-5.0683,-5.0683,-5.0683,-5.0683,-5.0683,-5.0683,-5.0683,-5.0683,-5.0683,-5.0625,-5.0471,-4.9952,-4.9298,-4.8279,-4.749,-4.6817,-4.599,-4.5586,-4.5642,-4.5815,-4.5892,-4.5938,-4.6172,-4.6289,-4.6289,-4.6289,-4.6289,-4.6289,-4.6289,-4.6289,-4.6289,-4.6035,-4.5605,-4.4961,-4.4492,-4.3613,-4.2558,-4.2226,-4.1738,-4.1269,-4.1191,-4.1191,-4.1191,-4.1191,-4.1191,-4.1191,-4.1191,-4.1191,-4.1191,-4.1191,-4.1191,-4.1191,-4.1191,-4.1191,-4.1191,-4.1191,-4.1191,-4.1191,-4.1191,-4.1191,-4.1191,-4.1191,-4.1836,-4.3262,-4.4375,-4.5293,-4.5703,-4.623,-4.6289,-4.6289,-4.6289,-4.6289,-4.6289,-4.6289,-4.6289,-4.6289,-4.6289,-4.6289,-4.6289,-4.6289,-4.6113,-4.584,-4.5293,-4.4492,-4.3303,-4.2454,-4.1767,-4.1024,-4.0489,-4.0489,-4.0489,-4.0489,-4.0489,-4.0527,-4.0642,-4.0704,-4.0649,-4.0937,-4.1282,-4.1989,-4.2576,-4.2965,-4.3343,-4.3458,-4.3479,-4.3479,-4.3479,-4.3479,-4.3479,-4.3479,-4.3479,-4.3479,-4.3479,-4.3479,-5.0683,-5.0683,-5.0683,-5.0683,-5.0683,-5.0683,-5.0683,-5.0683,-5.0683,-5.0683,-5.0683,-5.0683,-5.0221,-4.9336,-4.849,-4.7645,-4.6857,-4.6009,-4.5605,-4.5661,-4.5815,-4.5945,-4.6086,-4.625,-4.6289,-4.6289,-4.6289,-4.6289,-4.6289,-4.6289,-4.6289,-4.6289,-4.6289,-4.6016,-4.5586,-4.5098,-4.4355,-4.3125,-4.2598,-4.2012,-4.1269,-4.1191,-4.1191,-4.1191,-4.1191,-4.1191,-4.1191,-4.1191,-4.1191,-4.1191,-4.1191,-4.1191,-4.1191,-4.1191,-4.1191,-4.1191,-4.1191,-4.1191,-4.1191,-4.1191,-4.1191,-4.1191,-4.1191,-4.207,-4.3476,-4.4629,-4.5723,-4.6152,-4.6289,-4.6289,-4.6289,-4.6289,-4.6289,-4.6289,-4.6289,-4.6289,-4.6289,-4.6289,-4.6289,-4.6289,-4.6289,-4.6289,-4.6289,-4.5781,-4.5078,-4.4158,-4.3203,-4.2323,-4.1424,-4.0908,-4.0489,-4.0489,-4.0489,-4.0489,-4.0489,-4.0585,-4.0623,-4.0566,-4.0611,-4.0899,-4.1582,-4.2331,-4.2846,-4.3217,-4.3361,-4.3477,-4.3456,-4.3456,-4.3479,-4.3479,-4.3479,-4.3479,-4.3479,-4.3479,-4.3479,-5.0683,-5.0683,-5.0683,-5.0683,-5.0683,-5.0683,-5.0683,-5.0683,-5.0683,-5.0683,-5.0683,-5.0683,-5.0087,-4.924,-4.8394,-4.7606,-4.6703,-4.5932,-4.5682,-4.5693,-4.5843,-4.6056,-4.6245,-4.6265,-4.6289,-4.6289,-4.6289,-4.6289,-4.6289,-4.6289,-4.6289,-4.6289,-4.6289,-4.6289,-4.6035,-4.5527,-4.4726,-4.3906,-4.3262,-4.2598,-4.1875,-4.1601,-4.1484,-4.1465,-4.123,-4.1211,-4.1191,-4.1191,-4.1191,-4.1191,-4.1191,-4.1191,-4.1191,-4.1191,-4.1191,-4.1191,-4.1191,-4.1191,-4.1191,-4.1191,-4.1289,-4.1367,-4.1308,-4.2012,-4.3711,-4.5273,-4.6172,-4.6269,-4.6289,-4.6289,-4.6289,-4.6289,-4.6289,-4.6289,-4.6289,-4.6289,-4.6289,-4.6289,-4.6289,-4.6289,-4.6289,-4.6289,-4.6289,-4.623,-4.5918,-4.4629,-4.3708,-4.2724,-4.175,-4.1004,-4.0658,-4.0489,-4.0489,-4.0489,-4.0489,-4.0508,-4.0527,-4.0508,-4.0508,-4.078,-4.1442,-4.2114,-4.263,-4.3002,-4.3032,-4.3158,-4.3281,-4.3321,-4.3401,-4.3479,-4.3479,-4.3479,-4.3479,-4.3479,-4.3479,-5.0683,-5.0683,-5.0683,-5.0683,-5.0683,-5.0683,-5.0683,-5.0683,-5.0683,-5.0683,-5.0683,-5.0683,-4.9779,-4.8413,-4.8105,-4.7317,-4.6067,-4.572,-4.568,-4.5841,-4.5994,-4.6134,-4.6268,-4.6289,-4.6289,-4.6289,-4.6289,-4.6289,-4.6289,-4.6289,-4.6289,-4.6289,-4.6289,-4.6289,-4.623,-4.6055,-4.5586,-4.4824,-4.4453,-4.3906,-4.3066,-4.2422,-4.2109,-4.2031,-4.1504,-4.1211,-4.1191,-4.1191,-4.1191,-4.1191,-4.1191,-4.1191,-4.1191,-4.1191,-4.1191,-4.1191,-4.1191,-4.1191,-4.1211,-4.1269,-4.1504,-4.1953,-4.1758,-4.2187,-4.4492,-4.5625,-4.625,-4.6289,-4.6289,-4.6289,-4.6289,-4.6289,-4.6289,-4.6289,-4.6289,-4.6289,-4.6289,-4.6289,-4.6289,-4.6289,-4.6289,-4.6289,-4.6289,-4.6289,-4.584,-4.498,-4.4104,-4.3111,-4.2176,-4.1266,-4.0831,-4.062,-4.0489,-4.0489,-4.0489,-4.0489,-4.0489,-4.0489,-4.0489,-4.055,-4.1226,-4.1582,-4.1983,-4.2369,-4.2648,-4.2802,-4.2903,-4.3176,-4.324,-4.3343,-4.3419,-4.3416,-4.3361,-4.3401,-4.3479,-5.0683,-5.0683,-5.0683,-5.0683,-5.0683,-5.0683,-5.0683,-5.0683,-5.0683,-5.0683,-5.0587,-5.0298,-4.9317,-4.8105,-4.7682,-4.6778,-4.5874,-4.568,-4.5766,-4.591,-4.6019,-4.6179,-4.6261,-4.6289,-4.6289,-4.6289,-4.6289,-4.6289,-4.6289,-4.6289,-4.6289,-4.6289,-4.6289,-4.6289,-4.6289,-4.6289,-4.5703,-4.498,-4.4941,-4.4707,-4.4101,-4.3418,-4.2715,-4.2344,-4.166,-4.1191,-4.1191,-4.1191,-4.1191,-4.1191,-4.1211,-4.1211,-4.1211,-4.1211,-4.1211,-4.1191,-4.1191,-4.1191,-4.123,-4.1562,-4.1953,-4.2402,-4.2324,-4.3379,-4.4707,-4.5801,-4.623,-4.6289,-4.6289,-4.6289,-4.6289,-4.6289,-4.6289,-4.6289,-4.6289,-4.6289,-4.6289,-4.6289,-4.6289,-4.6289,-4.6289,-4.6289,-4.6289,-4.6289,-4.6172,-4.5527,-4.4815,-4.3844,-4.285,-4.1963,-4.112,-4.0773,-4.0585,-4.0489,-4.0489,-4.0489,-4.0489,-4.0489,-4.0489,-4.0531,-4.0839,-4.1055,-4.1206,-4.1688,-4.2194,-4.2321,-4.2473,-4.2776,-4.2878,-4.2765,-4.2772,-4.3045,-4.3217,-4.3258,-4.3379,-5.0683,-5.0683,-5.0683,-5.0683,-5.0683,-5.0683,-5.0683,-5.0683,-5.0683,-5.0683,-5.0529,-4.9779,-4.899,-4.8105,-4.7298,-4.6432,-4.5817,-4.575,-4.5841,-4.5905,-4.6074,-4.6191,-4.6289,-4.6289,-4.6289,-4.6289,-4.6289,-4.6289,-4.6289,-4.6289,-4.6289,-4.6289,-4.6289,-4.6289,-4.6289,-4.6269,-4.5937,-4.5195,-4.5254,-4.5234,-4.4863,-4.4258,-4.3476,-4.2422,-4.1894,-4.1367,-4.1269,-4.1191,-4.1191,-4.1191,-4.1308,-4.1367,-4.1387,-4.1387,-4.1269,-4.1289,-4.1523,-4.1738,-4.1719,-4.2148,-4.2676,-4.2754,-4.3203,-4.4141,-4.5117,-4.584,-4.6191,-4.6289,-4.6289,-4.6289,-4.6289,-4.6289,-4.6289,-4.6289,-4.6289,-4.6289,-4.6289,-4.6289,-4.6289,-4.6289,-4.6289,-4.6289,-4.6289,-4.6289,-4.623,-4.6033,-4.5337,-4.4508,-4.3455,-4.2483,-4.1543,-4.0831,-4.0566,-4.0489,-4.0489,-4.0489,-4.0489,-4.0489,-4.0489,-4.0527,-4.0572,-4.0696,-4.0939,-4.1335,-4.1699,-4.1836,-4.1983,-4.2205,-4.2243,-4.2083,-4.2273,-4.264,-4.289,-4.3087,-4.3158,-5.0683,-5.0683,-5.0683,-5.0683,-5.0683,-5.0683,-5.0683,-5.0683,-5.0683,-5.0683,-5.0529,-4.976,-4.8856,-4.8067,-4.724,-4.6413,-4.5759,-4.5772,-4.5886,-4.5937,-4.6133,-4.6269,-4.6289,-4.6289,-4.6289,-4.6289,-4.6289,-4.6289,-4.6289,-4.6289,-4.6289,-4.6289,-4.6289,-4.6289,-4.6289,-4.6289,-4.6211,-4.5859,-4.5898,-4.5879,-4.5683,-4.5019,-4.4043,-4.2793,-4.2383,-4.1953,-4.1445,-4.1269,-4.1191,-4.125,-4.1836,-4.2129,-4.2246,-4.2246,-4.1992,-4.1777,-4.2441,-4.2754,-4.2441,-4.3008,-4.3808,-4.4219,-4.418,-4.459,-4.5625,-4.6152,-4.6269,-4.6289,-4.6289,-4.6289,-4.6289,-4.6289,-4.6289,-4.6289,-4.6289,-4.6289,-4.6289,-4.6289,-4.6289,-4.6289,-4.6289,-4.6289,-4.6289,-4.6289,-4.623,-4.6074,-4.5579,-4.4585,-4.3469,-4.2531,-4.162,-4.1024,-4.0527,-4.0489,-4.0489,-4.0489,-4.0489,-4.0489,-4.0489,-4.0489,-4.0527,-4.0508,-4.072,-4.1036,-4.1244,-4.1373,-4.1513,-4.1688,-4.1737,-4.1684,-4.197,-4.2273,-4.2426,-4.2567,-4.2648,-5.0683,-5.0683,-5.0683,-5.0683,-5.0683,-5.0683,-5.0683,-5.0683,-5.0683,-5.0414,-4.9856,-4.9106,-4.8529,-4.7855,-4.6721,-4.597,-4.5759,-4.5815,-4.5889,-4.5957,-4.6152,-4.6289,-4.6289,-4.6289,-4.6289,-4.6289,-4.6289,-4.6289,-4.6289,-4.6289,-4.6289,-4.6289,-4.6289,-4.6289,-4.6289,-4.6289,-4.6289,-4.6289,-4.6289,-4.6289,-4.623,-4.5449,-4.4473,-4.3945,-4.3281,-4.2871,-4.2617,-4.248,-4.25,-4.2598,-4.2851,-4.3027,-4.3183,-4.3398,-4.3359,-4.2851,-4.3281,-4.3574,-4.3301,-4.3867,-4.4551,-4.4883,-4.4922,-4.5391,-4.6016,-4.6289,-4.6289,-4.6289,-4.6289,-4.6289,-4.6289,-4.6289,-4.6289,-4.6289,-4.6289,-4.6289,-4.6289,-4.6289,-4.6289,-4.6289,-4.6289,-4.6289,-4.6289,-4.6269,-4.625,-4.6035,-4.5742,-4.477,-4.3594,-4.2775,-4.2002,-4.1004,-4.0489,-4.0489,-4.0489,-4.0489,-4.0489,-4.0489,-4.0489,-4.0489,-4.0489,-4.0489,-4.0489,-4.0636,-4.078,-4.0959,-4.0919,-4.1036,-4.1169,-4.1317,-4.1516,-4.1726,-4.1893,-4.204,-4.2096,-5.0683,-5.0683,-5.0683,-5.0683,-5.0683,-5.0683,-5.0683,-5.0664,-5.0491,-5.0183,-4.9567,-4.8644,-4.8259,-4.7913,-4.6835,-4.5834,-4.568,-4.5796,-4.5869,-4.5957,-4.6133,-4.625,-4.6289,-4.6289,-4.6289,-4.6289,-4.6289,-4.6289,-4.6289,-4.6289,-4.6289,-4.6289,-4.6289,-4.6289,-4.6289,-4.6289,-4.6289,-4.6289,-4.6289,-4.6289,-4.6094,-4.5644,-4.5137,-4.5,-4.4316,-4.3867,-4.3516,-4.3476,-4.3496,-4.3594,-4.3789,-4.3945,-4.4101,-4.4785,-4.4902,-4.4375,-4.4219,-4.4141,-4.418,-4.4766,-4.5293,-4.543,-4.5918,-4.6191,-4.6289,-4.6289,-4.6289,-4.6289,-4.6289,-4.6289,-4.6289,-4.6289,-4.6289,-4.6289,-4.6289,-4.6289,-4.6289,-4.6289,-4.6289,-4.6289,-4.6289,-4.6289,-4.6289,-4.6289,-4.6269,-4.623,-4.5937,-4.5332,-4.4211,-4.3457,-4.2518,-4.1158,-4.0489,-4.0489,-4.0489,-4.0489,-4.0489,-4.0489,-4.0489,-4.0489,-4.0489,-4.0489,-4.0489,-4.0489,-4.0511,-4.0674,-4.0531,-4.0489,-4.072,-4.0919,-4.1017,-4.1226,-4.1516,-4.1551,-4.1513,-5.0683,-5.0683,-5.0683,-5.0683,-5.0683,-5.0683,-5.0683,-5.0606,-4.9971,-4.999,-5.0202,-4.8913,-4.8548,-4.8471,-4.7393,-4.6315,-4.5853,-4.577,-4.5859,-4.5937,-4.6074,-4.623,-4.6289,-4.6289,-4.6289,-4.6289,-4.6289,-4.6289,-4.6289,-4.6289,-4.6289,-4.6289,-4.6289,-4.6289,-4.6289,-4.6289,-4.6289,-4.6289,-4.6289,-4.6289,-4.6269,-4.6133,-4.5703,-4.5234,-4.4902,-4.457,-4.4121,-4.4043,-4.3965,-4.3984,-4.4531,-4.4824,-4.498,-4.5683,-4.6055,-4.6016,-4.5918,-4.5664,-4.5137,-4.5527,-4.5976,-4.5957,-4.623,-4.6289,-4.6289,-4.6289,-4.6289,-4.6289,-4.6289,-4.6289,-4.6289,-4.6289,-4.6289,-4.6289,-4.6289,-4.6289,-4.6289,-4.6289,-4.6289,-4.6289,-4.6289,-4.6289,-4.6289,-4.6289,-4.6289,-4.625,-4.6055,-4.5469,-4.4676,-4.3708,-4.2845,-4.1447,-4.0546,-4.0489,-4.0489,-4.0489,-4.0489,-4.0489,-4.0489,-4.0489,-4.0489,-4.0489,-4.0489,-4.0489,-4.0489,-4.0489,-4.0489,-4.0489,-4.0489,-4.0572,-4.0756,-4.0978,-4.1244,-4.1169,-4.1036,-5.0683,-5.0683,-5.0683,-5.0683,-5.0683,-5.0683,-5.0683,-5.0606,-5.0317,-5.0048,-4.9875,-4.926,-4.8606,-4.799,-4.7124,-4.6432,-4.5797,-4.5776,-4.5862,-4.5952,-4.6094,-4.623,-4.6289,-4.6289,-4.6289,-4.6289,-4.6289,-4.6289,-4.6289,-4.6289,-4.6289,-4.6289,-4.6289,-4.6289,-4.6289,-4.6289,-4.6289,-4.6289,-4.6289,-4.6289,-4.6289,-4.6269,-4.6113,-4.5742,-4.5723,-4.5449,-4.5215,-4.5176,-4.5176,-4.5234,-4.5625,-4.5703,-4.5781,-4.6074,-4.6289,-4.6269,-4.6269,-4.6074,-4.584,-4.6113,-4.623,-4.6289,-4.6289,-4.6289,-4.6289,-4.6289,-4.6289,-4.6289,-4.6289,-4.6289,-4.6289,-4.6289,-4.6289,-4.6289,-4.6289,-4.6289,-4.6289,-4.6289,-4.6289,-4.6289,-4.6289,-4.6289,-4.6289,-4.6289,-4.6289,-4.6269,-4.6113,-4.5683,-4.4598,-4.333,-4.2502,-4.1604,-4.0931,-4.0489,-4.0489,-4.0489,-4.0489,-4.0489,-4.0489,-4.0489,-4.0489,-4.0489,-4.0489,-4.0489,-4.0489,-4.0489,-4.0489,-4.0489,-4.0489,-4.0489,-4.0508,-4.0737,-4.0939,-4.0839,-4.072,-5.0683,-5.0683,-5.0683,-5.0683,-5.0683,-5.0683,-5.0548,-5.0375,-5.0337,-4.9856,-4.926,-4.8952,-4.8202,-4.7201,-4.6876,-4.6433,-4.5643,-4.5796,-4.5862,-4.5966,-4.6113,-4.625,-4.6289,-4.6289,-4.6289,-4.6289,-4.6289,-4.6289,-4.6289,-4.6289,-4.6289,-4.6289,-4.6289,-4.6289,-4.6289,-4.6289,-4.6289,-4.6289,-4.6289,-4.6289,-4.6289,-4.6289,-4.6289,-4.6269,-4.6289,-4.6289,-4.6289,-4.623,-4.6211,-4.6191,-4.6172,-4.6172,-4.6211,-4.623,-4.6289,-4.6289,-4.6289,-4.6289,-4.6191,-4.6269,-4.6289,-4.6289,-4.6289,-4.6289,-4.6289,-4.6289,-4.6289,-4.6289,-4.6289,-4.6289,-4.6289,-4.6289,-4.6289,-4.6289,-4.6289,-4.6289,-4.6289,-4.6289,-4.6289,-4.6289,-4.6289,-4.6289,-4.6289,-4.6289,-4.6289,-4.6289,-4.6094,-4.582,-4.4806,-4.3493,-4.2666,-4.2021,-4.1466,-4.0889,-4.0489,-4.0489,-4.0489,-4.0489,-4.0489,-4.0489,-4.0489,-4.0489,-4.0489,-4.0489,-4.0489,-4.0489,-4.0489,-4.0489,-4.0489,-4.0489,-4.0489,-4.0489,-4.055,-4.0489,-4.0508,-5.0683,-5.0683,-5.0683,-5.0683,-5.0683,-5.0683,-5.0221,-4.9624,-4.9529,-4.901,-4.8375,-4.8144,-4.7702,-4.7048,-4.674,-4.6336,-4.5605,-4.5757,-4.5825,-4.5938,-4.6055,-4.6191,-4.6269,-4.6289,-4.6289,-4.6289,-4.6289,-4.6289,-4.6289,-4.6289,-4.6289,-4.6289,-4.6289,-4.6289,-4.6289,-4.6289,-4.6289,-4.6289,-4.6289,-4.6289,-4.6289,-4.6289,-4.6289,-4.6289,-4.6289,-4.6289,-4.6289,-4.6289,-4.6289,-4.6289,-4.6289,-4.6289,-4.6289,-4.6289,-4.6289,-4.6289,-4.6289,-4.6289,-4.6289,-4.6289,-4.6289,-4.6289,-4.6289,-4.6289,-4.6289,-4.6289,-4.6289,-4.6289,-4.6289,-4.6289,-4.6289,-4.6289,-4.6289,-4.6289,-4.6289,-4.6289,-4.6289,-4.6289,-4.6289,-4.6289,-4.6289,-4.6289,-4.6289,-4.6289,-4.6289,-4.6289,-4.6269,-4.5996,-4.5449,-4.4334,-4.3395,-4.2665,-4.2094,-4.1424,-4.062,-4.0489,-4.0489,-4.0489,-4.0489,-4.0489,-4.0489,-4.0489,-4.0489,-4.0489,-4.0489,-4.0489,-4.0489,-4.0489,-4.0489,-4.0489,-4.0489,-4.0489,-4.0489,-4.0489,-4.0489,-5.0683,-5.0683,-5.0683,-5.0683,-5.0664,-5.0106,-4.9702,-4.9335,-4.8835,-4.8432,-4.8048,-4.7586,-4.7201,-4.6836,-4.6278,-4.5951,-4.5642,-4.5796,-4.5852,-4.5957,-4.6094,-4.623,-4.6289,-4.6289,-4.6289,-4.6289,-4.6289,-4.6289,-4.6289,-4.6289,-4.6289,-4.6289,-4.6289,-4.6289,-4.6289,-4.6289,-4.6289,-4.6289,-4.6289,-4.6289,-4.6289,-4.6289,-4.6289,-4.6289,-4.6289,-4.6289,-4.6289,-4.6289,-4.6289,-4.6289,-4.6289,-4.6289,-4.6289,-4.6289,-4.6289,-4.6289,-4.6289,-4.6289,-4.6289,-4.6289,-4.6289,-4.6289,-4.6289,-4.6289,-4.6289,-4.6289,-4.6289,-4.6289,-4.6289,-4.6289,-4.6289,-4.6289,-4.6289,-4.6289,-4.6289,-4.6289,-4.6289,-4.6289,-4.6289,-4.6289,-4.6289,-4.6289,-4.6289,-4.6289,-4.6289,-4.6289,-4.6269,-4.6133,-4.5644,-4.515,-4.4208,-4.3361,-4.278,-4.1805,-4.0947,-4.0696,-4.0546,-4.0489,-4.0489,-4.0489,-4.0489,-4.0489,-4.0489,-4.0489,-4.0489,-4.0489,-4.0489,-4.0489,-4.0489,-4.0489,-4.0489,-4.0489,-4.0489,-4.0489,-4.0489,-5.0548,-5.0317,-5.0317,-5.0317,-5.024,-4.9663,-4.9086,-4.8623,-4.8293,-4.7929,-4.7702,-4.6913,-4.6509,-4.6317,-4.5951,-4.5624,-4.5661,-4.5767,-4.5881,-4.5976,-4.6094,-4.625,-4.6289,-4.6289,-4.6289,-4.6289,-4.6289,-4.6289,-4.6289,-4.6289,-4.6289,-4.6289,-4.6289,-4.6289,-4.6289,-4.6289,-4.6289,-4.6289,-4.6289,-4.6289,-4.6289,-4.6289,-4.6289,-4.6289,-4.6289,-4.6289,-4.6289,-4.6289,-4.6289,-4.6289,-4.6289,-4.6289,-4.6289,-4.6289,-4.6289,-4.6289,-4.6289,-4.6289,-4.6289,-4.6289,-4.6289,-4.6289,-4.6289,-4.6289,-4.6289,-4.6289,-4.6289,-4.6289,-4.6289,-4.6289,-4.6289,-4.6289,-4.6289,-4.6289,-4.6289,-4.6289,-4.6289,-4.6289,-4.6289,-4.6289,-4.6289,-4.6289,-4.6289,-4.6289,-4.6289,-4.6289,-4.6289,-4.625,-4.6074,-4.5566,-4.499,-4.4187,-4.3505,-4.2379,-4.1254,-4.1232,-4.1097,-4.0489,-4.0489,-4.0489,-4.0489,-4.0489,-4.0489,-4.0489,-4.0489,-4.0489,-4.0489,-4.0489,-4.0489,-4.0489,-4.0489,-4.0489,-4.0489,-4.0489,-4.0489,-5.0144,-4.9471,-4.9413,-4.9413,-4.9336,-4.9375,-4.8471,-4.7372,-4.7659,-4.7507,-4.6855,-4.6067,-4.574,-4.572,-4.5624,-4.5586,-4.5624,-4.5755,-4.5859,-4.5937,-4.6094,-4.6191,-4.625,-4.6289,-4.6289,-4.6289,-4.6289,-4.6289,-4.6289,-4.6289,-4.6289,-4.6289,-4.6289,-4.6289,-4.6289,-4.6289,-4.6289,-4.6289,-4.6289,-4.6289,-4.6289,-4.6289,-4.6289,-4.6289,-4.6289,-4.6289,-4.6289,-4.6289,-4.6289,-4.6289,-4.6289,-4.6289,-4.6289,-4.6289,-4.6289,-4.6289,-4.6289,-4.6289,-4.6289,-4.6289,-4.6289,-4.6289,-4.6289,-4.6289,-4.6289,-4.6289,-4.6289,-4.6289,-4.6289,-4.6289,-4.6289,-4.6289,-4.6289,-4.6289,-4.6289,-4.6289,-4.6289,-4.6289,-4.6289,-4.6289,-4.6289,-4.6289,-4.6289,-4.6289,-4.6289,-4.6289,-4.6289,-4.6269,-4.623,-4.5937,-4.5391,-4.4767,-4.4013,-4.2994,-4.2019,-4.1894,-4.1613,-4.0927,-4.0489,-4.0489,-4.0489,-4.0489,-4.0489,-4.0489,-4.0489,-4.0489,-4.0489,-4.0489,-4.0489,-4.0489,-4.0489,-4.0489,-4.0489,-4.0489,-4.0489,-4.8798,-4.8529,-4.8529,-4.8241,-4.778,-4.774,-4.7391,-4.691,-4.6602,-4.6296,-4.6047,-4.5663,-4.5586,-4.5586,-4.5586,-4.5586,-4.5624,-4.5796,-4.5906,-4.5928,-4.612,-4.623,-4.6289,-4.6289,-4.6289,-4.6289,-4.6289,-4.6289,-4.6289,-4.6289,-4.6289,-4.6289,-4.6289,-4.6289,-4.6289,-4.6289,-4.6289,-4.6289,-4.6289,-4.6289,-4.6289,-4.6289,-4.6289,-4.6289,-4.6289,-4.6289,-4.6289,-4.6289,-4.6289,-4.6289,-4.6289,-4.6289,-4.6289,-4.6289,-4.6289,-4.6289,-4.6289,-4.6289,-4.6289,-4.6289,-4.6289,-4.6289,-4.6289,-4.6289,-4.6289,-4.6289,-4.6289,-4.6289,-4.6289,-4.6289,-4.6289,-4.6289,-4.6289,-4.6289,-4.6289,-4.6289,-4.6289,-4.6289,-4.6289,-4.6289,-4.6289,-4.6289,-4.6289,-4.6289,-4.6289,-4.6289,-4.6289,-4.6289,-4.6269,-4.6094,-4.5703,-4.5117,-4.4396,-4.3491,-4.2807,-4.2717,-4.1971,-4.1024,-4.0639,-4.0489,-4.0489,-4.0489,-4.0489,-4.0489,-4.0489,-4.0489,-4.0489,-4.0489,-4.0489,-4.0489,-4.0489,-4.0489,-4.0489,-4.0489,-4.0489,-4.7932,-4.7682,-4.7683,-4.7202,-4.6568,-4.6775,-4.6737,-4.641,-4.5853,-4.5586,-4.5605,-4.5605,-4.5586,-4.5586,-4.5586,-4.5642,-4.568,-4.5796,-4.5938,-4.5972,-4.6132,-4.623,-4.6289,-4.6289,-4.6289,-4.6289,-4.6289,-4.6289,-4.6289,-4.6289,-4.6289,-4.6289,-4.6289,-4.6289,-4.6289,-4.6289,-4.6289,-4.6289,-4.6289,-4.6289,-4.6289,-4.6289,-4.6289,-4.6289,-4.6289,-4.6289,-4.6289,-4.6289,-4.6289,-4.6289,-4.6289,-4.6289,-4.6289,-4.6289,-4.6289,-4.6289,-4.6289,-4.6289,-4.6289,-4.6289,-4.6289,-4.6289,-4.6289,-4.6289,-4.6289,-4.6289,-4.6289,-4.6289,-4.6289,-4.6289,-4.6289,-4.6289,-4.6289,-4.6289,-4.6289,-4.6289,-4.6289,-4.6289,-4.6289,-4.6289,-4.6289,-4.6289,-4.6289,-4.6289,-4.6289,-4.6289,-4.6289,-4.6289,-4.6289,-4.6152,-4.6016,-4.5586,-4.5156,-4.4512,-4.3906,-4.3531,-4.2613,-4.1247,-4.0927,-4.085,-4.0489,-4.0489,-4.0489,-4.0489,-4.0489,-4.0489,-4.0489,-4.0489,-4.0489,-4.0489,-4.0489,-4.0489,-4.0489,-4.0489,-4.0489,-4.7567,-4.6895,-4.6857,-4.6395,-4.5836,-4.6467,-4.6352,-4.5661,-4.5605,-4.5586,-4.5586,-4.5586,-4.5586,-4.5586,-4.5586,-4.568,-4.577,-4.5808,-4.5929,-4.6055,-4.6152,-4.623,-4.6269,-4.6289,-4.6289,-4.6289,-4.6289,-4.6289,-4.6289,-4.6289,-4.6289,-4.6289,-4.6289,-4.6289,-4.6289,-4.6289,-4.6289,-4.6289,-4.6289,-4.6289,-4.6289,-4.6289,-4.6289,-4.6289,-4.6289,-4.6289,-4.6289,-4.6289,-4.6289,-4.6289,-4.6289,-4.6289,-4.6289,-4.6289,-4.6289,-4.6289,-4.6289,-4.6289,-4.6289,-4.6289,-4.6289,-4.6289,-4.6289,-4.6289,-4.6289,-4.6289,-4.6289,-4.6289,-4.6289,-4.6289,-4.6289,-4.6289,-4.6289,-4.6289,-4.6289,-4.6289,-4.6289,-4.6289,-4.6289,-4.6289,-4.6289,-4.6289,-4.6289,-4.6289,-4.6289,-4.6289,-4.6289,-4.6289,-4.6289,-4.6289,-4.6191,-4.6172,-4.582,-4.5644,-4.5078,-4.4316,-4.3179,-4.1796,-4.1624,-4.1463,-4.1024,-4.0489,-4.0489,-4.0489,-4.0489,-4.0489,-4.0489,-4.0489,-4.0489,-4.0489,-4.0489,-4.0489,-4.0489,-4.0489,-4.0489,-4.6163,-4.597,-4.599,-4.5817,-4.5643,-4.5873,-4.5815,-4.5605,-4.5586,-4.5586,-4.5586,-4.5586,-4.5586,-4.5586,-4.5586,-4.5699,-4.5796,-4.5861,-4.5962,-4.6074,-4.6191,-4.625,-4.6269,-4.6289,-4.6289,-4.6289,-4.6289,-4.6289,-4.6289,-4.6289,-4.6289,-4.6289,-4.6289,-4.6289,-4.6289,-4.6289,-4.6289,-4.6289,-4.6289,-4.6289,-4.6289,-4.6289,-4.6289,-4.6289,-4.6289,-4.6289,-4.6289,-4.6289,-4.6289,-4.6289,-4.6289,-4.6289,-4.6289,-4.6289,-4.6289,-4.6289,-4.6289,-4.6289,-4.6289,-4.6289,-4.6289,-4.6289,-4.6289,-4.6289,-4.6289,-4.6289,-4.6289,-4.6289,-4.6289,-4.6289,-4.6289,-4.6289,-4.6289,-4.6289,-4.6289,-4.6289,-4.6289,-4.6289,-4.6289,-4.6289,-4.6289,-4.6289,-4.6289,-4.6289,-4.6289,-4.6289,-4.6289,-4.6289,-4.6289,-4.6289,-4.6289,-4.6289,-4.6211,-4.5937,-4.5449,-4.4746,-4.3574,-4.2528,-4.2325,-4.1805,-4.0927,-4.0489,-4.0489,-4.0489,-4.0489,-4.0489,-4.0489,-4.0489,-4.0489,-4.0489,-4.0489,-4.0489,-4.0489,-4.0489,-4.0489,-4.5586,-4.5586,-4.5586,-4.5586,-4.5586,-4.5586,-4.5586,-4.5586,-4.5586,-4.5586,-4.5586,-4.5586,-4.5586,-4.5605,-4.568,-4.5757,-4.5851,-4.5965,-4.6074,-4.6191,-4.6269,-4.6289,-4.6289,-4.6289,-4.6289,-4.6289,-4.6289,-4.6289,-4.6289,-4.6289,-4.6289,-4.6289,-4.6289,-4.6289,-4.6289,-4.6289,-4.6289,-4.6289,-4.6289,-4.6289,-4.6289,-4.6289,-4.6289,-4.6289,-4.6289,-4.6289,-4.6289,-4.6289,-4.6289,-4.6289,-4.6289,-4.6289,-4.6289,-4.6289,-4.6289,-4.6289,-4.6289,-4.6289,-4.6289,-4.6289,-4.6289,-4.6289,-4.6289,-4.6289,-4.6289,-4.6289,-4.6289,-4.6289,-4.6289,-4.6289,-4.6289,-4.6289,-4.6289,-4.6289,-4.6289,-4.6289,-4.6289,-4.6289,-4.6289,-4.6289,-4.6289,-4.6289,-4.6289,-4.6289,-4.6289,-4.6289,-4.6289,-4.6289,-4.6289,-4.6289,-4.6289,-4.6289,-4.625,-4.6113,-4.5625,-4.5215,-4.4297,-4.34,-4.2899,-4.2232,-4.1074,-4.0489,-4.0489,-4.0489,-4.0489,-4.0489,-4.0489,-4.0489,-4.0489,-4.0489,-4.0489,-4.0489,-4.0489,-4.0489,-4.0489,-4.5586,-4.5586,-4.5586,-4.5586,-4.5586,-4.5586,-4.5586,-4.5586,-4.5586,-4.5586,-4.5586,-4.5586,-4.5586,-4.5605,-4.5719,-4.5806,-4.5918,-4.6032,-4.6152,-4.6289,-4.6289,-4.6289,-4.6289,-4.6289,-4.6289,-4.6289,-4.6289,-4.6289,-4.6289,-4.6289,-4.6289,-4.6289,-4.6289,-4.6289,-4.6289,-4.6289,-4.6289,-4.6289,-4.6289,-4.6289,-4.6289,-4.6289,-4.6289,-4.6289,-4.6289,-4.6289,-4.6289,-4.6289,-4.6289,-4.6289,-4.6289,-4.6289,-4.6289,-4.6289,-4.6289,-4.6289,-4.6289,-4.6289,-4.6289,-4.6289,-4.6289,-4.6289,-4.6289,-4.6289,-4.6289,-4.6289,-4.6289,-4.6289,-4.6289,-4.6289,-4.6289,-4.6289,-4.6289,-4.6289,-4.6289,-4.6289,-4.6289,-4.6289,-4.6289,-4.6289,-4.6289,-4.6289,-4.6289,-4.6289,-4.6289,-4.6289,-4.6289,-4.6289,-4.6289,-4.6289,-4.6289,-4.6289,-4.6269,-4.623,-4.6152,-4.5683,-4.5098,-4.4377,-4.3637,-4.2613,-4.142,-4.087,-4.0489,-4.0489,-4.0489,-4.0489,-4.0489,-4.0489,-4.0489,-4.0489,-4.0489,-4.0489,-4.0489,-4.0489,-4.0489,-4.5586,-4.5586,-4.5586,-4.5586,-4.5586,-4.5586,-4.5586,-4.5586,-4.5586,-4.5586,-4.5586,-4.5586,-4.5586,-4.5605,-4.5738,-4.5835,-4.5912,-4.6067,-4.6183,-4.6269,-4.6289,-4.6289,-4.6289,-4.6289,-4.6289,-4.6289,-4.6289,-4.6289,-4.6289,-4.6289,-4.6289,-4.6289,-4.6289,-4.6289,-4.6289,-4.6289,-4.6289,-4.6289,-4.6289,-4.6289,-4.6289,-4.6289,-4.6289,-4.6289,-4.6289,-4.6289,-4.6289,-4.6289,-4.6289,-4.6289,-4.6289,-4.6289,-4.6289,-4.6289,-4.6289,-4.6289,-4.6289,-4.6289,-4.6289,-4.6289,-4.6289,-4.6289,-4.6289,-4.6289,-4.6289,-4.6289,-4.6289,-4.6289,-4.6289,-4.6289,-4.6289,-4.6289,-4.6289,-4.6289,-4.6289,-4.6289,-4.6289,-4.6289,-4.6289,-4.6289,-4.6289,-4.6289,-4.6289,-4.6289,-4.6289,-4.6289,-4.6289,-4.6289,-4.6289,-4.6289,-4.6289,-4.6289,-4.6289,-4.6289,-4.6289,-4.6113,-4.5488,-4.4785,-4.4015,-4.2931,-4.1821,-4.1289,-4.085,-4.06,-4.0489,-4.0489,-4.0489,-4.0489,-4.0489,-4.0489,-4.0489,-4.0489,-4.0489,-4.0489,-4.0489,-4.5586,-4.5586,-4.5586,-4.5586,-4.5586,-4.5586,-4.5586,-4.5586,-4.5586,-4.5586,-4.5586,-4.5586,-4.5586,-4.5624,-4.5757,-4.5849,-4.5959,-4.6113,-4.622,-4.6289,-4.6289,-4.6289,-4.6289,-4.6289,-4.6289,-4.6289,-4.6289,-4.6289,-4.6289,-4.6289,-4.6289,-4.6289,-4.6289,-4.6289,-4.6289,-4.6289,-4.6289,-4.6289,-4.6289,-4.6289,-4.6289,-4.6289,-4.6289,-4.6289,-4.6289,-4.6289,-4.6289,-4.6289,-4.6289,-4.6289,-4.6289,-4.6289,-4.6289,-4.6289,-4.6289,-4.6289,-4.6289,-4.6289,-4.6289,-4.6289,-4.6289,-4.6289,-4.6289,-4.6289,-4.6289,-4.6289,-4.6289,-4.6289,-4.6289,-4.6289,-4.6289,-4.6289,-4.6289,-4.6289,-4.6289,-4.6289,-4.6289,-4.6289,-4.6289,-4.6289,-4.6289,-4.6289,-4.6289,-4.6289,-4.6289,-4.6289,-4.6289,-4.6289,-4.6289,-4.6289,-4.6289,-4.6289,-4.6289,-4.6289,-4.6289,-4.6133,-4.582,-4.5098,-4.4414,-4.3613,-4.2714,-4.184,-4.1212,-4.1062,-4.0831,-4.0489,-4.0489,-4.0489,-4.0489,-4.0489,-4.0489,-4.0489,-4.0489,-4.0489,-4.0489,-4.5586,-4.5586,-4.5586,-4.5586,-4.5586,-4.5586,-4.5586,-4.5586,-4.5586,-4.5586,-4.5586,-4.5586,-4.5586,-4.568,-4.5794,-4.5886,-4.6008,-4.6181,-4.6285,-4.6289,-4.6289,-4.6289,-4.6289,-4.6289,-4.6289,-4.6289,-4.6289,-4.6289,-4.6289,-4.6289,-4.6289,-4.6289,-4.6289,-4.6289,-4.6289,-4.6289,-4.6289,-4.6289,-4.6289,-4.6289,-4.6289,-4.6289,-4.6289,-4.6289,-4.6289,-4.6289,-4.6289,-4.6289,-4.6289,-4.6289,-4.6289,-4.6289,-4.6289,-4.6289,-4.6289,-4.6289,-4.6289,-4.6289,-4.6289,-4.6289,-4.6289,-4.6289,-4.6289,-4.6289,-4.6289,-4.6289,-4.6289,-4.6289,-4.6289,-4.6289,-4.6289,-4.6289,-4.6289,-4.6289,-4.6289,-4.6289,-4.6289,-4.6289,-4.6289,-4.6289,-4.6289,-4.6289,-4.6289,-4.6289,-4.6289,-4.6289,-4.6289,-4.6289,-4.6289,-4.6289,-4.6289,-4.6289,-4.6289,-4.6289,-4.6289,-4.6191,-4.5976,-4.5586,-4.4928,-4.4305,-4.3612,-4.2705,-4.2027,-4.1709,-4.1424,-4.0947,-4.06,-4.0489,-4.0489,-4.0489,-4.0489,-4.0489,-4.0489,-4.0489,-4.0489,-4.5586,-4.5586,-4.5586,-4.5586,-4.5586,-4.5586,-4.5586,-4.5586,-4.5586,-4.5586,-4.5586,-4.5605,-4.5661,-4.5757,-4.5853,-4.5947,-4.6067,-4.623,-4.6289,-4.6289,-4.6289,-4.6289,-4.6289,-4.6289,-4.6289,-4.6289,-4.6289,-4.6289,-4.6289,-4.6289,-4.6289,-4.6289,-4.6289,-4.6289,-4.6289,-4.6289,-4.6289,-4.6289,-4.6289,-4.6289,-4.6289,-4.6289,-4.6289,-4.6289,-4.6289,-4.6289,-4.6289,-4.6289,-4.6289,-4.6289,-4.6289,-4.6289,-4.6289,-4.6289,-4.6289,-4.6289,-4.6289,-4.6289,-4.6289,-4.6289,-4.6289,-4.6289,-4.6289,-4.6289,-4.6289,-4.6289,-4.6289,-4.6289,-4.6289,-4.6289,-4.6289,-4.6289,-4.6289,-4.6289,-4.6289,-4.6289,-4.6289,-4.6289,-4.6289,-4.6289,-4.6289,-4.6289,-4.6289,-4.6289,-4.6289,-4.6289,-4.6289,-4.6289,-4.6289,-4.6289,-4.6289,-4.6289,-4.6289,-4.6289,-4.6289,-4.6289,-4.6113,-4.5801,-4.546,-4.4896,-4.4264,-4.3529,-4.2946,-4.2428,-4.1909,-4.1405,-4.1062,-4.0489,-4.0489,-4.0489,-4.0489,-4.0489,-4.0489,-4.0489,-4.0489]}]]